<?xml version="1.0" encoding="UTF-8" standalone="no" ?>
<gpx xmlns="http://www.topografix.com/GPX/1/1" xmlns:xsi="http://www.w3.org/2001/XMLSchema-instance" xsi:schemaLocation="http://www.topografix.com/GPX/1/1 http://www.topografix.com/GPX/1/1/gpx.xsd" version="1.1" creator="VisuGPX - https://www.visugpx.com">
  <metadata>
    <name>Sortie du 29 Novembre 2015</name>
    <desc><![CDATA[Sortie du 29 Novembre 2015]]></desc>
  </metadata>
  <trk>
    <name><![CDATA[--Courcelles-lès-Gisors-- OR-5496033:29 Nov 2015]]></name>
    <trkseg>
      <trkpt lat="49.25846" lon="1.74004">
        <ele>93</ele>
        <time>2015-11-29T12:15:06Z</time>
      </trkpt>
      <trkpt lat="49.2585" lon="1.74019">
        <ele>92</ele>
        <time>2015-11-29T12:17:06Z</time>
      </trkpt>
      <trkpt lat="49.25857" lon="1.74031">
        <ele>91</ele>
        <time>2015-11-29T12:19:06Z</time>
      </trkpt>
      <trkpt lat="49.25872" lon="1.74072">
        <ele>89</ele>
        <time>2015-11-29T12:21:06Z</time>
      </trkpt>
      <trkpt lat="49.2588" lon="1.74085">
        <ele>87</ele>
        <time>2015-11-29T12:23:06Z</time>
      </trkpt>
      <trkpt lat="49.25891" lon="1.74092">
        <ele>86</ele>
        <time>2015-11-29T12:25:06Z</time>
      </trkpt>
      <trkpt lat="49.25904" lon="1.74096">
        <ele>84</ele>
        <time>2015-11-29T12:27:06Z</time>
      </trkpt>
      <trkpt lat="49.25917" lon="1.74101">
        <ele>83</ele>
        <time>2015-11-29T12:29:06Z</time>
      </trkpt>
      <trkpt lat="49.25937" lon="1.7411">
        <ele>82</ele>
        <time>2015-11-29T12:31:06Z</time>
      </trkpt>
      <trkpt lat="49.25947" lon="1.74113">
        <ele>81</ele>
        <time>2015-11-29T12:33:06Z</time>
      </trkpt>
      <trkpt lat="49.25958" lon="1.74114">
        <ele>81</ele>
        <time>2015-11-29T12:35:06Z</time>
      </trkpt>
      <trkpt lat="49.25969" lon="1.74114">
        <ele>80</ele>
        <time>2015-11-29T12:37:06Z</time>
      </trkpt>
      <trkpt lat="49.25979" lon="1.74111">
        <ele>80</ele>
        <time>2015-11-29T12:39:06Z</time>
      </trkpt>
      <trkpt lat="49.25991" lon="1.74111">
        <ele>79</ele>
        <time>2015-11-29T12:41:06Z</time>
      </trkpt>
      <trkpt lat="49.25999" lon="1.74123">
        <ele>79</ele>
        <time>2015-11-29T12:43:06Z</time>
      </trkpt>
      <trkpt lat="49.25999" lon="1.7414">
        <ele>79</ele>
        <time>2015-11-29T12:45:06Z</time>
      </trkpt>
      <trkpt lat="49.25998" lon="1.74158">
        <ele>79</ele>
        <time>2015-11-29T12:47:06Z</time>
      </trkpt>
      <trkpt lat="49.26002" lon="1.74176">
        <ele>79</ele>
        <time>2015-11-29T12:49:06Z</time>
      </trkpt>
      <trkpt lat="49.26013" lon="1.74185">
        <ele>79</ele>
        <time>2015-11-29T12:51:06Z</time>
      </trkpt>
      <trkpt lat="49.26037" lon="1.7419">
        <ele>78</ele>
        <time>2015-11-29T12:53:06Z</time>
      </trkpt>
      <trkpt lat="49.26046" lon="1.74197">
        <ele>78</ele>
        <time>2015-11-29T12:55:06Z</time>
      </trkpt>
      <trkpt lat="49.26049" lon="1.7421">
        <ele>78</ele>
        <time>2015-11-29T12:57:06Z</time>
      </trkpt>
      <trkpt lat="49.26048" lon="1.74226">
        <ele>78</ele>
        <time>2015-11-29T12:59:06Z</time>
      </trkpt>
      <trkpt lat="49.26046" lon="1.74241">
        <ele>77</ele>
        <time>2015-11-29T13:01:06Z</time>
      </trkpt>
      <trkpt lat="49.26041" lon="1.74272">
        <ele>77</ele>
        <time>2015-11-29T13:03:06Z</time>
      </trkpt>
      <trkpt lat="49.26036" lon="1.74304">
        <ele>77</ele>
        <time>2015-11-29T13:05:06Z</time>
      </trkpt>
      <trkpt lat="49.26034" lon="1.7432">
        <ele>77</ele>
        <time>2015-11-29T13:07:06Z</time>
      </trkpt>
      <trkpt lat="49.26031" lon="1.74335">
        <ele>77</ele>
        <time>2015-11-29T13:09:06Z</time>
      </trkpt>
      <trkpt lat="49.26026" lon="1.74368">
        <ele>77</ele>
        <time>2015-11-29T13:11:06Z</time>
      </trkpt>
      <trkpt lat="49.26025" lon="1.74387">
        <ele>77</ele>
        <time>2015-11-29T13:13:06Z</time>
      </trkpt>
      <trkpt lat="49.26025" lon="1.74405">
        <ele>77</ele>
        <time>2015-11-29T13:15:06Z</time>
      </trkpt>
      <trkpt lat="49.26029" lon="1.74422">
        <ele>77</ele>
        <time>2015-11-29T13:17:06Z</time>
      </trkpt>
      <trkpt lat="49.26052" lon="1.7447">
        <ele>77</ele>
        <time>2015-11-29T13:19:06Z</time>
      </trkpt>
      <trkpt lat="49.26068" lon="1.74502">
        <ele>77</ele>
        <time>2015-11-29T13:21:06Z</time>
      </trkpt>
      <trkpt lat="49.26083" lon="1.74532">
        <ele>77</ele>
        <time>2015-11-29T13:23:06Z</time>
      </trkpt>
      <trkpt lat="49.26097" lon="1.74561">
        <ele>76</ele>
        <time>2015-11-29T13:25:06Z</time>
      </trkpt>
      <trkpt lat="49.261" lon="1.74576">
        <ele>76</ele>
        <time>2015-11-29T13:27:06Z</time>
      </trkpt>
      <trkpt lat="49.26102" lon="1.74592">
        <ele>76</ele>
        <time>2015-11-29T13:29:06Z</time>
      </trkpt>
      <trkpt lat="49.26102" lon="1.74609">
        <ele>75</ele>
        <time>2015-11-29T13:31:06Z</time>
      </trkpt>
      <trkpt lat="49.26102" lon="1.74627">
        <ele>75</ele>
        <time>2015-11-29T13:33:06Z</time>
      </trkpt>
      <trkpt lat="49.26104" lon="1.74644">
        <ele>75</ele>
        <time>2015-11-29T13:35:06Z</time>
      </trkpt>
      <trkpt lat="49.26105" lon="1.74662">
        <ele>75</ele>
        <time>2015-11-29T13:37:06Z</time>
      </trkpt>
      <trkpt lat="49.26106" lon="1.7468">
        <ele>74</ele>
        <time>2015-11-29T13:39:06Z</time>
      </trkpt>
      <trkpt lat="49.26108" lon="1.74735">
        <ele>74</ele>
        <time>2015-11-29T13:41:06Z</time>
      </trkpt>
      <trkpt lat="49.2611" lon="1.74771">
        <ele>73</ele>
        <time>2015-11-29T13:43:06Z</time>
      </trkpt>
      <trkpt lat="49.26111" lon="1.74809">
        <ele>73</ele>
        <time>2015-11-29T13:45:06Z</time>
      </trkpt>
      <trkpt lat="49.26114" lon="1.74883">
        <ele>73</ele>
        <time>2015-11-29T13:47:06Z</time>
      </trkpt>
      <trkpt lat="49.26115" lon="1.74899">
        <ele>73</ele>
        <time>2015-11-29T13:49:06Z</time>
      </trkpt>
      <trkpt lat="49.26115" lon="1.74917">
        <ele>73</ele>
        <time>2015-11-29T13:51:06Z</time>
      </trkpt>
      <trkpt lat="49.26115" lon="1.74935">
        <ele>73</ele>
        <time>2015-11-29T13:53:06Z</time>
      </trkpt>
      <trkpt lat="49.26116" lon="1.74953">
        <ele>73</ele>
        <time>2015-11-29T13:55:06Z</time>
      </trkpt>
      <trkpt lat="49.26118" lon="1.7497">
        <ele>73</ele>
        <time>2015-11-29T13:57:06Z</time>
      </trkpt>
      <trkpt lat="49.26118" lon="1.74987">
        <ele>73</ele>
        <time>2015-11-29T13:59:06Z</time>
      </trkpt>
      <trkpt lat="49.2612" lon="1.75003">
        <ele>73</ele>
        <time>2015-11-29T14:01:06Z</time>
      </trkpt>
      <trkpt lat="49.26123" lon="1.75075">
        <ele>73</ele>
        <time>2015-11-29T14:03:06Z</time>
      </trkpt>
      <trkpt lat="49.26125" lon="1.75132">
        <ele>72</ele>
        <time>2015-11-29T14:05:06Z</time>
      </trkpt>
      <trkpt lat="49.26129" lon="1.75208">
        <ele>72</ele>
        <time>2015-11-29T14:07:06Z</time>
      </trkpt>
      <trkpt lat="49.26135" lon="1.75357">
        <ele>71</ele>
        <time>2015-11-29T14:09:06Z</time>
      </trkpt>
      <trkpt lat="49.26137" lon="1.75393">
        <ele>71</ele>
        <time>2015-11-29T14:11:06Z</time>
      </trkpt>
      <trkpt lat="49.26139" lon="1.75448">
        <ele>71</ele>
        <time>2015-11-29T14:13:06Z</time>
      </trkpt>
      <trkpt lat="49.2614" lon="1.75467">
        <ele>71</ele>
        <time>2015-11-29T14:15:06Z</time>
      </trkpt>
      <trkpt lat="49.26143" lon="1.75543">
        <ele>71</ele>
        <time>2015-11-29T14:17:06Z</time>
      </trkpt>
      <trkpt lat="49.26146" lon="1.75581">
        <ele>71</ele>
        <time>2015-11-29T14:19:06Z</time>
      </trkpt>
      <trkpt lat="49.26147" lon="1.7562">
        <ele>70</ele>
        <time>2015-11-29T14:21:06Z</time>
      </trkpt>
      <trkpt lat="49.26149" lon="1.75676">
        <ele>71</ele>
        <time>2015-11-29T14:23:06Z</time>
      </trkpt>
      <trkpt lat="49.26151" lon="1.75713">
        <ele>71</ele>
        <time>2015-11-29T14:25:06Z</time>
      </trkpt>
      <trkpt lat="49.26152" lon="1.7575">
        <ele>71</ele>
        <time>2015-11-29T14:27:06Z</time>
      </trkpt>
      <trkpt lat="49.26157" lon="1.75843">
        <ele>70</ele>
        <time>2015-11-29T14:29:06Z</time>
      </trkpt>
      <trkpt lat="49.26159" lon="1.759">
        <ele>69</ele>
        <time>2015-11-29T14:31:06Z</time>
      </trkpt>
      <trkpt lat="49.2616" lon="1.7594">
        <ele>69</ele>
        <time>2015-11-29T14:33:06Z</time>
      </trkpt>
      <trkpt lat="49.2616" lon="1.7596">
        <ele>70</ele>
        <time>2015-11-29T14:35:06Z</time>
      </trkpt>
      <trkpt lat="49.2616" lon="1.7598">
        <ele>70</ele>
        <time>2015-11-29T14:37:06Z</time>
      </trkpt>
      <trkpt lat="49.26158" lon="1.76022">
        <ele>70</ele>
        <time>2015-11-29T14:39:06Z</time>
      </trkpt>
      <trkpt lat="49.26156" lon="1.76042">
        <ele>69</ele>
        <time>2015-11-29T14:41:06Z</time>
      </trkpt>
      <trkpt lat="49.26153" lon="1.76062">
        <ele>69</ele>
        <time>2015-11-29T14:43:06Z</time>
      </trkpt>
      <trkpt lat="49.26152" lon="1.76081">
        <ele>68</ele>
        <time>2015-11-29T14:45:06Z</time>
      </trkpt>
      <trkpt lat="49.26148" lon="1.76119">
        <ele>68</ele>
        <time>2015-11-29T14:47:06Z</time>
      </trkpt>
      <trkpt lat="49.26144" lon="1.76151">
        <ele>68</ele>
        <time>2015-11-29T14:49:06Z</time>
      </trkpt>
      <trkpt lat="49.26142" lon="1.76168">
        <ele>68</ele>
        <time>2015-11-29T14:51:06Z</time>
      </trkpt>
      <trkpt lat="49.26142" lon="1.76185">
        <ele>69</ele>
        <time>2015-11-29T14:53:06Z</time>
      </trkpt>
      <trkpt lat="49.26141" lon="1.762">
        <ele>69</ele>
        <time>2015-11-29T14:55:06Z</time>
      </trkpt>
      <trkpt lat="49.26139" lon="1.76216">
        <ele>69</ele>
        <time>2015-11-29T14:57:06Z</time>
      </trkpt>
      <trkpt lat="49.26135" lon="1.7625">
        <ele>70</ele>
        <time>2015-11-29T14:59:06Z</time>
      </trkpt>
      <trkpt lat="49.26133" lon="1.76267">
        <ele>70</ele>
        <time>2015-11-29T15:01:06Z</time>
      </trkpt>
      <trkpt lat="49.26132" lon="1.76285">
        <ele>70</ele>
        <time>2015-11-29T15:03:06Z</time>
      </trkpt>
      <trkpt lat="49.2613" lon="1.76301">
        <ele>70</ele>
        <time>2015-11-29T15:05:06Z</time>
      </trkpt>
      <trkpt lat="49.26128" lon="1.76316">
        <ele>70</ele>
        <time>2015-11-29T15:07:06Z</time>
      </trkpt>
      <trkpt lat="49.26128" lon="1.7633">
        <ele>70</ele>
        <time>2015-11-29T15:09:06Z</time>
      </trkpt>
      <trkpt lat="49.26128" lon="1.76361">
        <ele>70</ele>
        <time>2015-11-29T15:11:06Z</time>
      </trkpt>
      <trkpt lat="49.26128" lon="1.76377">
        <ele>70</ele>
        <time>2015-11-29T15:13:06Z</time>
      </trkpt>
      <trkpt lat="49.26127" lon="1.76393">
        <ele>70</ele>
        <time>2015-11-29T15:15:06Z</time>
      </trkpt>
      <trkpt lat="49.26127" lon="1.76408">
        <ele>70</ele>
        <time>2015-11-29T15:17:06Z</time>
      </trkpt>
      <trkpt lat="49.26127" lon="1.76441">
        <ele>70</ele>
        <time>2015-11-29T15:19:06Z</time>
      </trkpt>
      <trkpt lat="49.26129" lon="1.76474">
        <ele>70</ele>
        <time>2015-11-29T15:21:06Z</time>
      </trkpt>
      <trkpt lat="49.26131" lon="1.76507">
        <ele>70</ele>
        <time>2015-11-29T15:23:06Z</time>
      </trkpt>
      <trkpt lat="49.26133" lon="1.76524">
        <ele>71</ele>
        <time>2015-11-29T15:25:06Z</time>
      </trkpt>
      <trkpt lat="49.26135" lon="1.76541">
        <ele>71</ele>
        <time>2015-11-29T15:27:06Z</time>
      </trkpt>
      <trkpt lat="49.26137" lon="1.76557">
        <ele>71</ele>
        <time>2015-11-29T15:29:06Z</time>
      </trkpt>
      <trkpt lat="49.26137" lon="1.76573">
        <ele>72</ele>
        <time>2015-11-29T15:31:06Z</time>
      </trkpt>
      <trkpt lat="49.26138" lon="1.76588">
        <ele>72</ele>
        <time>2015-11-29T15:33:06Z</time>
      </trkpt>
      <trkpt lat="49.26139" lon="1.76604">
        <ele>72</ele>
        <time>2015-11-29T15:35:06Z</time>
      </trkpt>
      <trkpt lat="49.2614" lon="1.76619">
        <ele>72</ele>
        <time>2015-11-29T15:37:06Z</time>
      </trkpt>
      <trkpt lat="49.26142" lon="1.76634">
        <ele>72</ele>
        <time>2015-11-29T15:39:06Z</time>
      </trkpt>
      <trkpt lat="49.26145" lon="1.76667">
        <ele>71</ele>
        <time>2015-11-29T15:41:06Z</time>
      </trkpt>
      <trkpt lat="49.26147" lon="1.76685">
        <ele>71</ele>
        <time>2015-11-29T15:43:06Z</time>
      </trkpt>
      <trkpt lat="49.26149" lon="1.76703">
        <ele>71</ele>
        <time>2015-11-29T15:45:06Z</time>
      </trkpt>
      <trkpt lat="49.26152" lon="1.7674">
        <ele>71</ele>
        <time>2015-11-29T15:47:06Z</time>
      </trkpt>
      <trkpt lat="49.26154" lon="1.76758">
        <ele>71</ele>
        <time>2015-11-29T15:49:06Z</time>
      </trkpt>
      <trkpt lat="49.26156" lon="1.76777">
        <ele>71</ele>
        <time>2015-11-29T15:51:06Z</time>
      </trkpt>
      <trkpt lat="49.26157" lon="1.76795">
        <ele>71</ele>
        <time>2015-11-29T15:53:06Z</time>
      </trkpt>
      <trkpt lat="49.26159" lon="1.76814">
        <ele>72</ele>
        <time>2015-11-29T15:55:06Z</time>
      </trkpt>
      <trkpt lat="49.26163" lon="1.76852">
        <ele>73</ele>
        <time>2015-11-29T15:57:06Z</time>
      </trkpt>
      <trkpt lat="49.26163" lon="1.76871">
        <ele>73</ele>
        <time>2015-11-29T15:59:06Z</time>
      </trkpt>
      <trkpt lat="49.26168" lon="1.76928">
        <ele>74</ele>
        <time>2015-11-29T16:01:06Z</time>
      </trkpt>
      <trkpt lat="49.2617" lon="1.76948">
        <ele>74</ele>
        <time>2015-11-29T16:03:06Z</time>
      </trkpt>
      <trkpt lat="49.26173" lon="1.76985">
        <ele>74</ele>
        <time>2015-11-29T16:05:06Z</time>
      </trkpt>
      <trkpt lat="49.26174" lon="1.77005">
        <ele>74</ele>
        <time>2015-11-29T16:07:06Z</time>
      </trkpt>
      <trkpt lat="49.26177" lon="1.77024">
        <ele>73</ele>
        <time>2015-11-29T16:09:06Z</time>
      </trkpt>
      <trkpt lat="49.26182" lon="1.77086">
        <ele>72</ele>
        <time>2015-11-29T16:11:06Z</time>
      </trkpt>
      <trkpt lat="49.26183" lon="1.77106">
        <ele>72</ele>
        <time>2015-11-29T16:13:06Z</time>
      </trkpt>
      <trkpt lat="49.26188" lon="1.77162">
        <ele>72</ele>
        <time>2015-11-29T16:15:06Z</time>
      </trkpt>
      <trkpt lat="49.2619" lon="1.77191">
        <ele>72</ele>
        <time>2015-11-29T16:17:06Z</time>
      </trkpt>
      <trkpt lat="49.26192" lon="1.77205">
        <ele>72</ele>
        <time>2015-11-29T16:19:06Z</time>
      </trkpt>
      <trkpt lat="49.26195" lon="1.77248">
        <ele>72</ele>
        <time>2015-11-29T16:21:06Z</time>
      </trkpt>
      <trkpt lat="49.26196" lon="1.77263">
        <ele>72</ele>
        <time>2015-11-29T16:23:06Z</time>
      </trkpt>
      <trkpt lat="49.262" lon="1.77307">
        <ele>72</ele>
        <time>2015-11-29T16:25:06Z</time>
      </trkpt>
      <trkpt lat="49.26202" lon="1.77337">
        <ele>72</ele>
        <time>2015-11-29T16:27:06Z</time>
      </trkpt>
      <trkpt lat="49.26205" lon="1.77382">
        <ele>72</ele>
        <time>2015-11-29T16:29:06Z</time>
      </trkpt>
      <trkpt lat="49.26208" lon="1.77427">
        <ele>72</ele>
        <time>2015-11-29T16:31:06Z</time>
      </trkpt>
      <trkpt lat="49.26209" lon="1.77442">
        <ele>72</ele>
        <time>2015-11-29T16:33:06Z</time>
      </trkpt>
      <trkpt lat="49.2621" lon="1.77456">
        <ele>72</ele>
        <time>2015-11-29T16:35:06Z</time>
      </trkpt>
      <trkpt lat="49.26211" lon="1.77471">
        <ele>72</ele>
        <time>2015-11-29T16:37:06Z</time>
      </trkpt>
      <trkpt lat="49.26211" lon="1.77486">
        <ele>72</ele>
        <time>2015-11-29T16:39:06Z</time>
      </trkpt>
      <trkpt lat="49.26212" lon="1.77501">
        <ele>71</ele>
        <time>2015-11-29T16:41:06Z</time>
      </trkpt>
      <trkpt lat="49.26215" lon="1.77545">
        <ele>71</ele>
        <time>2015-11-29T16:43:06Z</time>
      </trkpt>
      <trkpt lat="49.26214" lon="1.77573">
        <ele>71</ele>
        <time>2015-11-29T16:45:06Z</time>
      </trkpt>
      <trkpt lat="49.26214" lon="1.77601">
        <ele>71</ele>
        <time>2015-11-29T16:47:06Z</time>
      </trkpt>
      <trkpt lat="49.26213" lon="1.77629">
        <ele>71</ele>
        <time>2015-11-29T16:49:06Z</time>
      </trkpt>
      <trkpt lat="49.26212" lon="1.7765">
        <ele>71</ele>
        <time>2015-11-29T16:51:06Z</time>
      </trkpt>
      <trkpt lat="49.26209" lon="1.77678">
        <ele>70</ele>
        <time>2015-11-29T16:53:06Z</time>
      </trkpt>
      <trkpt lat="49.26203" lon="1.77721">
        <ele>70</ele>
        <time>2015-11-29T16:55:06Z</time>
      </trkpt>
      <trkpt lat="49.26199" lon="1.77749">
        <ele>70</ele>
        <time>2015-11-29T16:57:06Z</time>
      </trkpt>
      <trkpt lat="49.26196" lon="1.77776">
        <ele>70</ele>
        <time>2015-11-29T16:59:06Z</time>
      </trkpt>
      <trkpt lat="49.26193" lon="1.77804">
        <ele>70</ele>
        <time>2015-11-29T17:01:06Z</time>
      </trkpt>
      <trkpt lat="49.26191" lon="1.77817">
        <ele>70</ele>
        <time>2015-11-29T17:03:06Z</time>
      </trkpt>
      <trkpt lat="49.26187" lon="1.77845">
        <ele>71</ele>
        <time>2015-11-29T17:05:06Z</time>
      </trkpt>
      <trkpt lat="49.26182" lon="1.77872">
        <ele>71</ele>
        <time>2015-11-29T17:07:06Z</time>
      </trkpt>
      <trkpt lat="49.26166" lon="1.77973">
        <ele>71</ele>
        <time>2015-11-29T17:09:06Z</time>
      </trkpt>
      <trkpt lat="49.26161" lon="1.78">
        <ele>71</ele>
        <time>2015-11-29T17:11:06Z</time>
      </trkpt>
      <trkpt lat="49.26158" lon="1.78028">
        <ele>71</ele>
        <time>2015-11-29T17:13:06Z</time>
      </trkpt>
      <trkpt lat="49.26155" lon="1.78047">
        <ele>72</ele>
        <time>2015-11-29T17:15:06Z</time>
      </trkpt>
      <trkpt lat="49.2615" lon="1.78061">
        <ele>72</ele>
        <time>2015-11-29T17:17:06Z</time>
      </trkpt>
      <trkpt lat="49.26144" lon="1.78072">
        <ele>72</ele>
        <time>2015-11-29T17:19:06Z</time>
      </trkpt>
      <trkpt lat="49.26143" lon="1.7809">
        <ele>73</ele>
        <time>2015-11-29T17:21:06Z</time>
      </trkpt>
      <trkpt lat="49.26143" lon="1.78104">
        <ele>72</ele>
        <time>2015-11-29T17:23:06Z</time>
      </trkpt>
      <trkpt lat="49.26143" lon="1.78119">
        <ele>72</ele>
        <time>2015-11-29T17:25:06Z</time>
      </trkpt>
      <trkpt lat="49.26141" lon="1.78147">
        <ele>72</ele>
        <time>2015-11-29T17:27:06Z</time>
      </trkpt>
      <trkpt lat="49.2614" lon="1.78176">
        <ele>72</ele>
        <time>2015-11-29T17:29:06Z</time>
      </trkpt>
      <trkpt lat="49.26139" lon="1.78206">
        <ele>72</ele>
        <time>2015-11-29T17:31:06Z</time>
      </trkpt>
      <trkpt lat="49.26139" lon="1.7822">
        <ele>72</ele>
        <time>2015-11-29T17:33:06Z</time>
      </trkpt>
      <trkpt lat="49.26139" lon="1.78234">
        <ele>72</ele>
        <time>2015-11-29T17:35:06Z</time>
      </trkpt>
      <trkpt lat="49.26138" lon="1.78269">
        <ele>72</ele>
        <time>2015-11-29T17:37:06Z</time>
      </trkpt>
      <trkpt lat="49.26138" lon="1.7829">
        <ele>72</ele>
        <time>2015-11-29T17:39:06Z</time>
      </trkpt>
      <trkpt lat="49.26139" lon="1.78317">
        <ele>72</ele>
        <time>2015-11-29T17:41:06Z</time>
      </trkpt>
      <trkpt lat="49.26139" lon="1.78331">
        <ele>72</ele>
        <time>2015-11-29T17:43:06Z</time>
      </trkpt>
      <trkpt lat="49.26139" lon="1.78352">
        <ele>72</ele>
        <time>2015-11-29T17:45:06Z</time>
      </trkpt>
      <trkpt lat="49.26141" lon="1.78372">
        <ele>72</ele>
        <time>2015-11-29T17:47:06Z</time>
      </trkpt>
      <trkpt lat="49.26141" lon="1.78392">
        <ele>73</ele>
        <time>2015-11-29T17:49:06Z</time>
      </trkpt>
      <trkpt lat="49.26142" lon="1.78406">
        <ele>73</ele>
        <time>2015-11-29T17:51:06Z</time>
      </trkpt>
      <trkpt lat="49.26143" lon="1.7842">
        <ele>73</ele>
        <time>2015-11-29T17:53:06Z</time>
      </trkpt>
      <trkpt lat="49.26145" lon="1.78454">
        <ele>73</ele>
        <time>2015-11-29T17:55:06Z</time>
      </trkpt>
      <trkpt lat="49.26145" lon="1.78468">
        <ele>73</ele>
        <time>2015-11-29T17:57:06Z</time>
      </trkpt>
      <trkpt lat="49.26146" lon="1.78496">
        <ele>73</ele>
        <time>2015-11-29T17:59:06Z</time>
      </trkpt>
      <trkpt lat="49.26147" lon="1.78515">
        <ele>73</ele>
        <time>2015-11-29T18:01:06Z</time>
      </trkpt>
      <trkpt lat="49.26148" lon="1.78535">
        <ele>74</ele>
        <time>2015-11-29T18:03:06Z</time>
      </trkpt>
      <trkpt lat="49.26149" lon="1.78552">
        <ele>74</ele>
        <time>2015-11-29T18:05:06Z</time>
      </trkpt>
      <trkpt lat="49.2615" lon="1.78585">
        <ele>74</ele>
        <time>2015-11-29T18:07:06Z</time>
      </trkpt>
      <trkpt lat="49.26152" lon="1.78601">
        <ele>74</ele>
        <time>2015-11-29T18:09:06Z</time>
      </trkpt>
      <trkpt lat="49.26161" lon="1.78607">
        <ele>74</ele>
        <time>2015-11-29T18:11:06Z</time>
      </trkpt>
      <trkpt lat="49.26165" lon="1.78619">
        <ele>74</ele>
        <time>2015-11-29T18:13:06Z</time>
      </trkpt>
      <trkpt lat="49.26174" lon="1.78618">
        <ele>73</ele>
        <time>2015-11-29T18:15:06Z</time>
      </trkpt>
      <trkpt lat="49.26183" lon="1.78613">
        <ele>73</ele>
        <time>2015-11-29T18:17:06Z</time>
      </trkpt>
      <trkpt lat="49.26217" lon="1.78599">
        <ele>73</ele>
        <time>2015-11-29T18:19:06Z</time>
      </trkpt>
      <trkpt lat="49.2626" lon="1.78578">
        <ele>72</ele>
        <time>2015-11-29T18:21:06Z</time>
      </trkpt>
      <trkpt lat="49.26298" lon="1.7856">
        <ele>71</ele>
        <time>2015-11-29T18:23:06Z</time>
      </trkpt>
      <trkpt lat="49.26317" lon="1.7855">
        <ele>71</ele>
        <time>2015-11-29T18:25:06Z</time>
      </trkpt>
      <trkpt lat="49.2636" lon="1.7853">
        <ele>71</ele>
        <time>2015-11-29T18:27:06Z</time>
      </trkpt>
      <trkpt lat="49.26372" lon="1.78525">
        <ele>71</ele>
        <time>2015-11-29T18:29:06Z</time>
      </trkpt>
      <trkpt lat="49.26383" lon="1.7852">
        <ele>71</ele>
        <time>2015-11-29T18:31:06Z</time>
      </trkpt>
      <trkpt lat="49.26406" lon="1.78509">
        <ele>71</ele>
        <time>2015-11-29T18:33:06Z</time>
      </trkpt>
      <trkpt lat="49.26441" lon="1.78492">
        <ele>71</ele>
        <time>2015-11-29T18:35:06Z</time>
      </trkpt>
      <trkpt lat="49.26464" lon="1.7848">
        <ele>71</ele>
        <time>2015-11-29T18:37:06Z</time>
      </trkpt>
      <trkpt lat="49.26512" lon="1.78456">
        <ele>70</ele>
        <time>2015-11-29T18:39:06Z</time>
      </trkpt>
      <trkpt lat="49.26538" lon="1.78444">
        <ele>68</ele>
        <time>2015-11-29T18:41:06Z</time>
      </trkpt>
      <trkpt lat="49.26591" lon="1.78417">
        <ele>66</ele>
        <time>2015-11-29T18:43:06Z</time>
      </trkpt>
      <trkpt lat="49.26633" lon="1.78396">
        <ele>64</ele>
        <time>2015-11-29T18:45:06Z</time>
      </trkpt>
      <trkpt lat="49.2666" lon="1.78384">
        <ele>63</ele>
        <time>2015-11-29T18:47:06Z</time>
      </trkpt>
      <trkpt lat="49.26674" lon="1.78379">
        <ele>63</ele>
        <time>2015-11-29T18:49:06Z</time>
      </trkpt>
      <trkpt lat="49.26687" lon="1.78372">
        <ele>63</ele>
        <time>2015-11-29T18:51:06Z</time>
      </trkpt>
      <trkpt lat="49.26699" lon="1.78365">
        <ele>63</ele>
        <time>2015-11-29T18:53:06Z</time>
      </trkpt>
      <trkpt lat="49.26711" lon="1.78364">
        <ele>63</ele>
        <time>2015-11-29T18:55:06Z</time>
      </trkpt>
      <trkpt lat="49.26723" lon="1.78371">
        <ele>63</ele>
        <time>2015-11-29T18:57:06Z</time>
      </trkpt>
      <trkpt lat="49.26736" lon="1.78378">
        <ele>63</ele>
        <time>2015-11-29T18:59:06Z</time>
      </trkpt>
      <trkpt lat="49.26747" lon="1.78388">
        <ele>63</ele>
        <time>2015-11-29T19:01:06Z</time>
      </trkpt>
      <trkpt lat="49.26767" lon="1.78417">
        <ele>62</ele>
        <time>2015-11-29T19:03:06Z</time>
      </trkpt>
      <trkpt lat="49.26778" lon="1.78431">
        <ele>62</ele>
        <time>2015-11-29T19:05:06Z</time>
      </trkpt>
      <trkpt lat="49.2679" lon="1.78444">
        <ele>61</ele>
        <time>2015-11-29T19:07:06Z</time>
      </trkpt>
      <trkpt lat="49.26803" lon="1.78457">
        <ele>60</ele>
        <time>2015-11-29T19:09:06Z</time>
      </trkpt>
      <trkpt lat="49.26816" lon="1.78471">
        <ele>59</ele>
        <time>2015-11-29T19:11:06Z</time>
      </trkpt>
      <trkpt lat="49.26857" lon="1.7851">
        <ele>57</ele>
        <time>2015-11-29T19:13:06Z</time>
      </trkpt>
      <trkpt lat="49.26872" lon="1.78523">
        <ele>57</ele>
        <time>2015-11-29T19:15:06Z</time>
      </trkpt>
      <trkpt lat="49.26887" lon="1.78536">
        <ele>56</ele>
        <time>2015-11-29T19:17:06Z</time>
      </trkpt>
      <trkpt lat="49.26917" lon="1.78561">
        <ele>55</ele>
        <time>2015-11-29T19:19:06Z</time>
      </trkpt>
      <trkpt lat="49.26932" lon="1.78572">
        <ele>55</ele>
        <time>2015-11-29T19:21:06Z</time>
      </trkpt>
      <trkpt lat="49.26963" lon="1.78594">
        <ele>54</ele>
        <time>2015-11-29T19:23:06Z</time>
      </trkpt>
      <trkpt lat="49.26977" lon="1.78603">
        <ele>53</ele>
        <time>2015-11-29T19:25:06Z</time>
      </trkpt>
      <trkpt lat="49.27019" lon="1.78629">
        <ele>53</ele>
        <time>2015-11-29T19:27:06Z</time>
      </trkpt>
      <trkpt lat="49.27032" lon="1.78636">
        <ele>53</ele>
        <time>2015-11-29T19:29:06Z</time>
      </trkpt>
      <trkpt lat="49.27059" lon="1.78649">
        <ele>54</ele>
        <time>2015-11-29T19:31:06Z</time>
      </trkpt>
      <trkpt lat="49.27085" lon="1.78661">
        <ele>55</ele>
        <time>2015-11-29T19:33:06Z</time>
      </trkpt>
      <trkpt lat="49.27109" lon="1.78671">
        <ele>57</ele>
        <time>2015-11-29T19:35:06Z</time>
      </trkpt>
      <trkpt lat="49.27133" lon="1.7868">
        <ele>59</ele>
        <time>2015-11-29T19:37:06Z</time>
      </trkpt>
      <trkpt lat="49.27173" lon="1.78692">
        <ele>62</ele>
        <time>2015-11-29T19:39:06Z</time>
      </trkpt>
      <trkpt lat="49.27196" lon="1.78698">
        <ele>63</ele>
        <time>2015-11-29T19:41:06Z</time>
      </trkpt>
      <trkpt lat="49.27205" lon="1.78699">
        <ele>64</ele>
        <time>2015-11-29T19:43:06Z</time>
      </trkpt>
      <trkpt lat="49.27224" lon="1.78702">
        <ele>65</ele>
        <time>2015-11-29T19:45:06Z</time>
      </trkpt>
      <trkpt lat="49.27243" lon="1.78705">
        <ele>66</ele>
        <time>2015-11-29T19:47:06Z</time>
      </trkpt>
      <trkpt lat="49.27262" lon="1.78705">
        <ele>66</ele>
        <time>2015-11-29T19:49:06Z</time>
      </trkpt>
      <trkpt lat="49.27285" lon="1.78707">
        <ele>66</ele>
        <time>2015-11-29T19:51:06Z</time>
      </trkpt>
      <trkpt lat="49.27294" lon="1.78708">
        <ele>66</ele>
        <time>2015-11-29T19:53:06Z</time>
      </trkpt>
      <trkpt lat="49.27307" lon="1.78708">
        <ele>66</ele>
        <time>2015-11-29T19:55:06Z</time>
      </trkpt>
      <trkpt lat="49.2732" lon="1.78708">
        <ele>66</ele>
        <time>2015-11-29T19:57:06Z</time>
      </trkpt>
      <trkpt lat="49.27343" lon="1.78709">
        <ele>66</ele>
        <time>2015-11-29T19:59:06Z</time>
      </trkpt>
      <trkpt lat="49.27355" lon="1.78713">
        <ele>66</ele>
        <time>2015-11-29T20:01:06Z</time>
      </trkpt>
      <trkpt lat="49.27364" lon="1.78724">
        <ele>65</ele>
        <time>2015-11-29T20:03:06Z</time>
      </trkpt>
      <trkpt lat="49.27371" lon="1.78738">
        <ele>65</ele>
        <time>2015-11-29T20:05:06Z</time>
      </trkpt>
      <trkpt lat="49.27374" lon="1.78756">
        <ele>65</ele>
        <time>2015-11-29T20:07:06Z</time>
      </trkpt>
      <trkpt lat="49.27379" lon="1.78771">
        <ele>65</ele>
        <time>2015-11-29T20:09:06Z</time>
      </trkpt>
      <trkpt lat="49.27386" lon="1.78783">
        <ele>65</ele>
        <time>2015-11-29T20:11:06Z</time>
      </trkpt>
      <trkpt lat="49.27394" lon="1.78792">
        <ele>65</ele>
        <time>2015-11-29T20:13:06Z</time>
      </trkpt>
      <trkpt lat="49.27401" lon="1.78804">
        <ele>65</ele>
        <time>2015-11-29T20:15:06Z</time>
      </trkpt>
      <trkpt lat="49.27409" lon="1.78816">
        <ele>66</ele>
        <time>2015-11-29T20:17:06Z</time>
      </trkpt>
      <trkpt lat="49.27415" lon="1.7883">
        <ele>66</ele>
        <time>2015-11-29T20:19:06Z</time>
      </trkpt>
      <trkpt lat="49.2742" lon="1.78846">
        <ele>67</ele>
        <time>2015-11-29T20:21:06Z</time>
      </trkpt>
      <trkpt lat="49.27422" lon="1.78862">
        <ele>67</ele>
        <time>2015-11-29T20:23:06Z</time>
      </trkpt>
      <trkpt lat="49.27425" lon="1.7888">
        <ele>68</ele>
        <time>2015-11-29T20:25:06Z</time>
      </trkpt>
      <trkpt lat="49.27425" lon="1.78897">
        <ele>69</ele>
        <time>2015-11-29T20:27:06Z</time>
      </trkpt>
      <trkpt lat="49.27424" lon="1.78915">
        <ele>70</ele>
        <time>2015-11-29T20:29:06Z</time>
      </trkpt>
      <trkpt lat="49.27424" lon="1.78949">
        <ele>71</ele>
        <time>2015-11-29T20:31:06Z</time>
      </trkpt>
      <trkpt lat="49.27423" lon="1.78979">
        <ele>71</ele>
        <time>2015-11-29T20:33:06Z</time>
      </trkpt>
      <trkpt lat="49.27422" lon="1.78993">
        <ele>72</ele>
        <time>2015-11-29T20:35:06Z</time>
      </trkpt>
      <trkpt lat="49.27421" lon="1.79022">
        <ele>72</ele>
        <time>2015-11-29T20:37:06Z</time>
      </trkpt>
      <trkpt lat="49.27422" lon="1.79053">
        <ele>73</ele>
        <time>2015-11-29T20:39:06Z</time>
      </trkpt>
      <trkpt lat="49.27423" lon="1.79069">
        <ele>74</ele>
        <time>2015-11-29T20:41:06Z</time>
      </trkpt>
      <trkpt lat="49.27424" lon="1.79084">
        <ele>74</ele>
        <time>2015-11-29T20:43:06Z</time>
      </trkpt>
      <trkpt lat="49.27424" lon="1.79099">
        <ele>74</ele>
        <time>2015-11-29T20:45:06Z</time>
      </trkpt>
      <trkpt lat="49.2743" lon="1.79159">
        <ele>76</ele>
        <time>2015-11-29T20:47:06Z</time>
      </trkpt>
      <trkpt lat="49.27433" lon="1.79189">
        <ele>77</ele>
        <time>2015-11-29T20:49:06Z</time>
      </trkpt>
      <trkpt lat="49.27434" lon="1.79204">
        <ele>77</ele>
        <time>2015-11-29T20:51:06Z</time>
      </trkpt>
      <trkpt lat="49.27433" lon="1.79218">
        <ele>78</ele>
        <time>2015-11-29T20:53:06Z</time>
      </trkpt>
      <trkpt lat="49.27432" lon="1.79236">
        <ele>79</ele>
        <time>2015-11-29T20:55:06Z</time>
      </trkpt>
      <trkpt lat="49.27431" lon="1.79265">
        <ele>80</ele>
        <time>2015-11-29T20:57:06Z</time>
      </trkpt>
      <trkpt lat="49.2743" lon="1.79282">
        <ele>81</ele>
        <time>2015-11-29T20:59:06Z</time>
      </trkpt>
      <trkpt lat="49.2743" lon="1.79312">
        <ele>84</ele>
        <time>2015-11-29T21:01:06Z</time>
      </trkpt>
      <trkpt lat="49.2743" lon="1.79329">
        <ele>85</ele>
        <time>2015-11-29T21:03:06Z</time>
      </trkpt>
      <trkpt lat="49.27429" lon="1.79343">
        <ele>86</ele>
        <time>2015-11-29T21:05:06Z</time>
      </trkpt>
      <trkpt lat="49.27427" lon="1.79388">
        <ele>90</ele>
        <time>2015-11-29T21:07:06Z</time>
      </trkpt>
      <trkpt lat="49.27429" lon="1.79403">
        <ele>91</ele>
        <time>2015-11-29T21:09:06Z</time>
      </trkpt>
      <trkpt lat="49.27427" lon="1.79432">
        <ele>93</ele>
        <time>2015-11-29T21:11:06Z</time>
      </trkpt>
      <trkpt lat="49.27427" lon="1.79448">
        <ele>95</ele>
        <time>2015-11-29T21:13:06Z</time>
      </trkpt>
      <trkpt lat="49.27425" lon="1.79462">
        <ele>96</ele>
        <time>2015-11-29T21:15:06Z</time>
      </trkpt>
      <trkpt lat="49.27428" lon="1.79478">
        <ele>97</ele>
        <time>2015-11-29T21:17:06Z</time>
      </trkpt>
      <trkpt lat="49.27431" lon="1.79507">
        <ele>100</ele>
        <time>2015-11-29T21:19:06Z</time>
      </trkpt>
      <trkpt lat="49.27431" lon="1.79523">
        <ele>101</ele>
        <time>2015-11-29T21:21:06Z</time>
      </trkpt>
      <trkpt lat="49.2743" lon="1.79539">
        <ele>103</ele>
        <time>2015-11-29T21:23:06Z</time>
      </trkpt>
      <trkpt lat="49.27431" lon="1.79554">
        <ele>104</ele>
        <time>2015-11-29T21:25:06Z</time>
      </trkpt>
      <trkpt lat="49.2743" lon="1.79571">
        <ele>105</ele>
        <time>2015-11-29T21:27:06Z</time>
      </trkpt>
      <trkpt lat="49.27428" lon="1.79584">
        <ele>106</ele>
        <time>2015-11-29T21:29:06Z</time>
      </trkpt>
      <trkpt lat="49.27426" lon="1.79598">
        <ele>108</ele>
        <time>2015-11-29T21:31:06Z</time>
      </trkpt>
      <trkpt lat="49.27422" lon="1.79612">
        <ele>109</ele>
        <time>2015-11-29T21:33:06Z</time>
      </trkpt>
      <trkpt lat="49.27419" lon="1.79625">
        <ele>110</ele>
        <time>2015-11-29T21:35:06Z</time>
      </trkpt>
      <trkpt lat="49.27414" lon="1.79639">
        <ele>111</ele>
        <time>2015-11-29T21:37:06Z</time>
      </trkpt>
      <trkpt lat="49.27411" lon="1.79653">
        <ele>112</ele>
        <time>2015-11-29T21:39:06Z</time>
      </trkpt>
      <trkpt lat="49.27407" lon="1.79666">
        <ele>113</ele>
        <time>2015-11-29T21:41:06Z</time>
      </trkpt>
      <trkpt lat="49.27405" lon="1.7968">
        <ele>113</ele>
        <time>2015-11-29T21:43:06Z</time>
      </trkpt>
      <trkpt lat="49.27403" lon="1.79695">
        <ele>113</ele>
        <time>2015-11-29T21:45:06Z</time>
      </trkpt>
      <trkpt lat="49.274" lon="1.7971">
        <ele>113</ele>
        <time>2015-11-29T21:47:06Z</time>
      </trkpt>
      <trkpt lat="49.27394" lon="1.79741">
        <ele>113</ele>
        <time>2015-11-29T21:49:06Z</time>
      </trkpt>
      <trkpt lat="49.27392" lon="1.79755">
        <ele>113</ele>
        <time>2015-11-29T21:51:06Z</time>
      </trkpt>
      <trkpt lat="49.27389" lon="1.79771">
        <ele>113</ele>
        <time>2015-11-29T21:53:06Z</time>
      </trkpt>
      <trkpt lat="49.27385" lon="1.79787">
        <ele>112</ele>
        <time>2015-11-29T21:55:06Z</time>
      </trkpt>
      <trkpt lat="49.27383" lon="1.79804">
        <ele>112</ele>
        <time>2015-11-29T21:57:06Z</time>
      </trkpt>
      <trkpt lat="49.2738" lon="1.79823">
        <ele>111</ele>
        <time>2015-11-29T21:59:06Z</time>
      </trkpt>
      <trkpt lat="49.27377" lon="1.79841">
        <ele>111</ele>
        <time>2015-11-29T22:01:06Z</time>
      </trkpt>
      <trkpt lat="49.27374" lon="1.79859">
        <ele>111</ele>
        <time>2015-11-29T22:03:06Z</time>
      </trkpt>
      <trkpt lat="49.27362" lon="1.79913">
        <ele>109</ele>
        <time>2015-11-29T22:05:06Z</time>
      </trkpt>
      <trkpt lat="49.27354" lon="1.79949">
        <ele>109</ele>
        <time>2015-11-29T22:07:06Z</time>
      </trkpt>
      <trkpt lat="49.27349" lon="1.79967">
        <ele>108</ele>
        <time>2015-11-29T22:09:06Z</time>
      </trkpt>
      <trkpt lat="49.27345" lon="1.79985">
        <ele>108</ele>
        <time>2015-11-29T22:11:06Z</time>
      </trkpt>
      <trkpt lat="49.27342" lon="1.80005">
        <ele>109</ele>
        <time>2015-11-29T22:13:06Z</time>
      </trkpt>
      <trkpt lat="49.2734" lon="1.80019">
        <ele>108</ele>
        <time>2015-11-29T22:15:06Z</time>
      </trkpt>
      <trkpt lat="49.27339" lon="1.80032">
        <ele>108</ele>
        <time>2015-11-29T22:17:06Z</time>
      </trkpt>
      <trkpt lat="49.27338" lon="1.80046">
        <ele>108</ele>
        <time>2015-11-29T22:19:06Z</time>
      </trkpt>
      <trkpt lat="49.27337" lon="1.80067">
        <ele>107</ele>
        <time>2015-11-29T22:21:06Z</time>
      </trkpt>
      <trkpt lat="49.27337" lon="1.80087">
        <ele>107</ele>
        <time>2015-11-29T22:23:06Z</time>
      </trkpt>
      <trkpt lat="49.27337" lon="1.80107">
        <ele>107</ele>
        <time>2015-11-29T22:25:06Z</time>
      </trkpt>
      <trkpt lat="49.27338" lon="1.80121">
        <ele>106</ele>
        <time>2015-11-29T22:27:06Z</time>
      </trkpt>
      <trkpt lat="49.27339" lon="1.80135">
        <ele>106</ele>
        <time>2015-11-29T22:29:06Z</time>
      </trkpt>
      <trkpt lat="49.27345" lon="1.80196">
        <ele>106</ele>
        <time>2015-11-29T22:31:06Z</time>
      </trkpt>
      <trkpt lat="49.27347" lon="1.80217">
        <ele>106</ele>
        <time>2015-11-29T22:33:06Z</time>
      </trkpt>
      <trkpt lat="49.27355" lon="1.80288">
        <ele>106</ele>
        <time>2015-11-29T22:35:06Z</time>
      </trkpt>
      <trkpt lat="49.27361" lon="1.80335">
        <ele>106</ele>
        <time>2015-11-29T22:37:06Z</time>
      </trkpt>
      <trkpt lat="49.27364" lon="1.80355">
        <ele>106</ele>
        <time>2015-11-29T22:39:06Z</time>
      </trkpt>
      <trkpt lat="49.27366" lon="1.8037">
        <ele>105</ele>
        <time>2015-11-29T22:41:06Z</time>
      </trkpt>
      <trkpt lat="49.27368" lon="1.80386">
        <ele>105</ele>
        <time>2015-11-29T22:43:06Z</time>
      </trkpt>
      <trkpt lat="49.27377" lon="1.80441">
        <ele>104</ele>
        <time>2015-11-29T22:45:06Z</time>
      </trkpt>
      <trkpt lat="49.2738" lon="1.80461">
        <ele>103</ele>
        <time>2015-11-29T22:47:06Z</time>
      </trkpt>
      <trkpt lat="49.27386" lon="1.80502">
        <ele>102</ele>
        <time>2015-11-29T22:49:06Z</time>
      </trkpt>
      <trkpt lat="49.27388" lon="1.80524">
        <ele>101</ele>
        <time>2015-11-29T22:51:06Z</time>
      </trkpt>
      <trkpt lat="49.27389" lon="1.80547">
        <ele>101</ele>
        <time>2015-11-29T22:53:06Z</time>
      </trkpt>
      <trkpt lat="49.274" lon="1.80684">
        <ele>97</ele>
        <time>2015-11-29T22:55:06Z</time>
      </trkpt>
      <trkpt lat="49.27404" lon="1.80749">
        <ele>96</ele>
        <time>2015-11-29T22:57:06Z</time>
      </trkpt>
      <trkpt lat="49.27404" lon="1.80768">
        <ele>96</ele>
        <time>2015-11-29T22:59:06Z</time>
      </trkpt>
      <trkpt lat="49.27406" lon="1.80825">
        <ele>96</ele>
        <time>2015-11-29T23:01:06Z</time>
      </trkpt>
      <trkpt lat="49.27406" lon="1.80875">
        <ele>96</ele>
        <time>2015-11-29T23:03:06Z</time>
      </trkpt>
      <trkpt lat="49.27407" lon="1.8089">
        <ele>96</ele>
        <time>2015-11-29T23:05:06Z</time>
      </trkpt>
      <trkpt lat="49.27407" lon="1.80909">
        <ele>97</ele>
        <time>2015-11-29T23:07:06Z</time>
      </trkpt>
      <trkpt lat="49.27407" lon="1.80925">
        <ele>97</ele>
        <time>2015-11-29T23:09:06Z</time>
      </trkpt>
      <trkpt lat="49.27402" lon="1.8094">
        <ele>97</ele>
        <time>2015-11-29T23:11:06Z</time>
      </trkpt>
      <trkpt lat="49.27395" lon="1.80952">
        <ele>97</ele>
        <time>2015-11-29T23:13:06Z</time>
      </trkpt>
      <trkpt lat="49.27388" lon="1.80962">
        <ele>97</ele>
        <time>2015-11-29T23:15:06Z</time>
      </trkpt>
      <trkpt lat="49.27374" lon="1.80985">
        <ele>98</ele>
        <time>2015-11-29T23:17:06Z</time>
      </trkpt>
      <trkpt lat="49.27347" lon="1.81031">
        <ele>102</ele>
        <time>2015-11-29T23:19:06Z</time>
      </trkpt>
      <trkpt lat="49.27339" lon="1.81042">
        <ele>104</ele>
        <time>2015-11-29T23:21:06Z</time>
      </trkpt>
      <trkpt lat="49.27326" lon="1.81063">
        <ele>107</ele>
        <time>2015-11-29T23:23:06Z</time>
      </trkpt>
      <trkpt lat="49.2732" lon="1.81074">
        <ele>109</ele>
        <time>2015-11-29T23:25:06Z</time>
      </trkpt>
      <trkpt lat="49.27312" lon="1.81084">
        <ele>111</ele>
        <time>2015-11-29T23:27:06Z</time>
      </trkpt>
      <trkpt lat="49.27306" lon="1.81094">
        <ele>112</ele>
        <time>2015-11-29T23:29:06Z</time>
      </trkpt>
      <trkpt lat="49.27299" lon="1.81105">
        <ele>114</ele>
        <time>2015-11-29T23:31:06Z</time>
      </trkpt>
      <trkpt lat="49.27293" lon="1.81115">
        <ele>115</ele>
        <time>2015-11-29T23:33:06Z</time>
      </trkpt>
      <trkpt lat="49.27287" lon="1.81128">
        <ele>117</ele>
        <time>2015-11-29T23:35:06Z</time>
      </trkpt>
      <trkpt lat="49.27282" lon="1.81142">
        <ele>119</ele>
        <time>2015-11-29T23:37:06Z</time>
      </trkpt>
      <trkpt lat="49.27279" lon="1.81156">
        <ele>120</ele>
        <time>2015-11-29T23:39:06Z</time>
      </trkpt>
      <trkpt lat="49.27276" lon="1.8117">
        <ele>121</ele>
        <time>2015-11-29T23:41:06Z</time>
      </trkpt>
      <trkpt lat="49.27273" lon="1.81184">
        <ele>122</ele>
        <time>2015-11-29T23:43:06Z</time>
      </trkpt>
      <trkpt lat="49.27271" lon="1.81197">
        <ele>123</ele>
        <time>2015-11-29T23:45:06Z</time>
      </trkpt>
      <trkpt lat="49.27267" lon="1.8121">
        <ele>124</ele>
        <time>2015-11-29T23:47:06Z</time>
      </trkpt>
      <trkpt lat="49.27265" lon="1.81224">
        <ele>126</ele>
        <time>2015-11-29T23:49:06Z</time>
      </trkpt>
      <trkpt lat="49.27259" lon="1.81251">
        <ele>128</ele>
        <time>2015-11-29T23:51:06Z</time>
      </trkpt>
      <trkpt lat="49.27255" lon="1.81266">
        <ele>129</ele>
        <time>2015-11-29T23:53:06Z</time>
      </trkpt>
      <trkpt lat="49.27252" lon="1.81279">
        <ele>130</ele>
        <time>2015-11-29T23:55:06Z</time>
      </trkpt>
      <trkpt lat="49.27249" lon="1.81293">
        <ele>132</ele>
        <time>2015-11-29T23:57:06Z</time>
      </trkpt>
      <trkpt lat="49.27244" lon="1.81321">
        <ele>134</ele>
        <time>2015-11-29T23:59:06Z</time>
      </trkpt>
      <trkpt lat="49.27241" lon="1.81335">
        <ele>135</ele>
        <time>2015-11-30T00:01:06Z</time>
      </trkpt>
      <trkpt lat="49.27238" lon="1.81348">
        <ele>137</ele>
        <time>2015-11-30T00:03:06Z</time>
      </trkpt>
      <trkpt lat="49.27236" lon="1.81362">
        <ele>138</ele>
        <time>2015-11-30T00:05:06Z</time>
      </trkpt>
      <trkpt lat="49.27237" lon="1.81377">
        <ele>139</ele>
        <time>2015-11-30T00:07:06Z</time>
      </trkpt>
      <trkpt lat="49.27234" lon="1.81392">
        <ele>141</ele>
        <time>2015-11-30T00:09:06Z</time>
      </trkpt>
      <trkpt lat="49.27229" lon="1.8142">
        <ele>144</ele>
        <time>2015-11-30T00:11:06Z</time>
      </trkpt>
      <trkpt lat="49.27229" lon="1.81435">
        <ele>144</ele>
        <time>2015-11-30T00:13:06Z</time>
      </trkpt>
      <trkpt lat="49.27226" lon="1.8145">
        <ele>145</ele>
        <time>2015-11-30T00:15:06Z</time>
      </trkpt>
      <trkpt lat="49.27227" lon="1.81465">
        <ele>145</ele>
        <time>2015-11-30T00:17:06Z</time>
      </trkpt>
      <trkpt lat="49.27224" lon="1.8148">
        <ele>146</ele>
        <time>2015-11-30T00:19:06Z</time>
      </trkpt>
      <trkpt lat="49.27225" lon="1.81494">
        <ele>147</ele>
        <time>2015-11-30T00:21:06Z</time>
      </trkpt>
      <trkpt lat="49.27221" lon="1.81507">
        <ele>147</ele>
        <time>2015-11-30T00:23:06Z</time>
      </trkpt>
      <trkpt lat="49.27222" lon="1.81522">
        <ele>147</ele>
        <time>2015-11-30T00:25:06Z</time>
      </trkpt>
      <trkpt lat="49.27221" lon="1.81536">
        <ele>147</ele>
        <time>2015-11-30T00:27:06Z</time>
      </trkpt>
      <trkpt lat="49.27219" lon="1.81549">
        <ele>147</ele>
        <time>2015-11-30T00:29:06Z</time>
      </trkpt>
      <trkpt lat="49.27219" lon="1.81565">
        <ele>146</ele>
        <time>2015-11-30T00:31:06Z</time>
      </trkpt>
      <trkpt lat="49.27217" lon="1.81579">
        <ele>146</ele>
        <time>2015-11-30T00:33:06Z</time>
      </trkpt>
      <trkpt lat="49.27214" lon="1.8161">
        <ele>146</ele>
        <time>2015-11-30T00:35:06Z</time>
      </trkpt>
      <trkpt lat="49.27207" lon="1.81661">
        <ele>145</ele>
        <time>2015-11-30T00:37:06Z</time>
      </trkpt>
      <trkpt lat="49.27204" lon="1.81679">
        <ele>144</ele>
        <time>2015-11-30T00:39:06Z</time>
      </trkpt>
      <trkpt lat="49.27202" lon="1.81697">
        <ele>144</ele>
        <time>2015-11-30T00:41:06Z</time>
      </trkpt>
      <trkpt lat="49.27199" lon="1.81717">
        <ele>143</ele>
        <time>2015-11-30T00:43:06Z</time>
      </trkpt>
      <trkpt lat="49.27196" lon="1.81735">
        <ele>142</ele>
        <time>2015-11-30T00:45:06Z</time>
      </trkpt>
      <trkpt lat="49.27193" lon="1.81753">
        <ele>142</ele>
        <time>2015-11-30T00:47:06Z</time>
      </trkpt>
      <trkpt lat="49.2719" lon="1.81769">
        <ele>141</ele>
        <time>2015-11-30T00:49:06Z</time>
      </trkpt>
      <trkpt lat="49.27188" lon="1.81785">
        <ele>141</ele>
        <time>2015-11-30T00:51:06Z</time>
      </trkpt>
      <trkpt lat="49.27188" lon="1.81801">
        <ele>141</ele>
        <time>2015-11-30T00:53:06Z</time>
      </trkpt>
      <trkpt lat="49.27184" lon="1.81836">
        <ele>140</ele>
        <time>2015-11-30T00:55:06Z</time>
      </trkpt>
      <trkpt lat="49.27178" lon="1.8189">
        <ele>140</ele>
        <time>2015-11-30T00:57:06Z</time>
      </trkpt>
      <trkpt lat="49.27176" lon="1.81926">
        <ele>139</ele>
        <time>2015-11-30T00:59:06Z</time>
      </trkpt>
      <trkpt lat="49.27172" lon="1.81963">
        <ele>139</ele>
        <time>2015-11-30T01:01:06Z</time>
      </trkpt>
      <trkpt lat="49.2717" lon="1.81996">
        <ele>138</ele>
        <time>2015-11-30T01:03:06Z</time>
      </trkpt>
      <trkpt lat="49.27169" lon="1.8203">
        <ele>138</ele>
        <time>2015-11-30T01:05:06Z</time>
      </trkpt>
      <trkpt lat="49.27167" lon="1.82047">
        <ele>137</ele>
        <time>2015-11-30T01:07:06Z</time>
      </trkpt>
      <trkpt lat="49.27166" lon="1.82064">
        <ele>137</ele>
        <time>2015-11-30T01:09:06Z</time>
      </trkpt>
      <trkpt lat="49.27165" lon="1.82098">
        <ele>137</ele>
        <time>2015-11-30T01:11:06Z</time>
      </trkpt>
      <trkpt lat="49.27163" lon="1.82116">
        <ele>137</ele>
        <time>2015-11-30T01:13:06Z</time>
      </trkpt>
      <trkpt lat="49.27163" lon="1.82134">
        <ele>137</ele>
        <time>2015-11-30T01:15:06Z</time>
      </trkpt>
      <trkpt lat="49.27162" lon="1.82153">
        <ele>138</ele>
        <time>2015-11-30T01:17:06Z</time>
      </trkpt>
      <trkpt lat="49.27161" lon="1.82173">
        <ele>138</ele>
        <time>2015-11-30T01:19:06Z</time>
      </trkpt>
      <trkpt lat="49.27161" lon="1.82192">
        <ele>137</ele>
        <time>2015-11-30T01:21:06Z</time>
      </trkpt>
      <trkpt lat="49.2716" lon="1.8221">
        <ele>137</ele>
        <time>2015-11-30T01:23:06Z</time>
      </trkpt>
      <trkpt lat="49.27159" lon="1.82229">
        <ele>137</ele>
        <time>2015-11-30T01:25:06Z</time>
      </trkpt>
      <trkpt lat="49.27157" lon="1.82247">
        <ele>137</ele>
        <time>2015-11-30T01:27:06Z</time>
      </trkpt>
      <trkpt lat="49.27154" lon="1.82265">
        <ele>137</ele>
        <time>2015-11-30T01:29:06Z</time>
      </trkpt>
      <trkpt lat="49.27151" lon="1.82283">
        <ele>138</ele>
        <time>2015-11-30T01:31:06Z</time>
      </trkpt>
      <trkpt lat="49.27147" lon="1.823">
        <ele>138</ele>
        <time>2015-11-30T01:33:06Z</time>
      </trkpt>
      <trkpt lat="49.27143" lon="1.82316">
        <ele>139</ele>
        <time>2015-11-30T01:35:06Z</time>
      </trkpt>
      <trkpt lat="49.27138" lon="1.8233">
        <ele>139</ele>
        <time>2015-11-30T01:37:06Z</time>
      </trkpt>
      <trkpt lat="49.27131" lon="1.82341">
        <ele>140</ele>
        <time>2015-11-30T01:39:06Z</time>
      </trkpt>
      <trkpt lat="49.27121" lon="1.82344">
        <ele>140</ele>
        <time>2015-11-30T01:41:06Z</time>
      </trkpt>
      <trkpt lat="49.27102" lon="1.82345">
        <ele>141</ele>
        <time>2015-11-30T01:43:06Z</time>
      </trkpt>
      <trkpt lat="49.27091" lon="1.82342">
        <ele>141</ele>
        <time>2015-11-30T01:45:06Z</time>
      </trkpt>
      <trkpt lat="49.2708" lon="1.82342">
        <ele>141</ele>
        <time>2015-11-30T01:47:06Z</time>
      </trkpt>
      <trkpt lat="49.27069" lon="1.8234">
        <ele>141</ele>
        <time>2015-11-30T01:49:06Z</time>
      </trkpt>
      <trkpt lat="49.27057" lon="1.82339">
        <ele>141</ele>
        <time>2015-11-30T01:51:06Z</time>
      </trkpt>
      <trkpt lat="49.27034" lon="1.82336">
        <ele>141</ele>
        <time>2015-11-30T01:53:06Z</time>
      </trkpt>
      <trkpt lat="49.27023" lon="1.82337">
        <ele>142</ele>
        <time>2015-11-30T01:55:06Z</time>
      </trkpt>
      <trkpt lat="49.27012" lon="1.82335">
        <ele>142</ele>
        <time>2015-11-30T01:57:06Z</time>
      </trkpt>
      <trkpt lat="49.26991" lon="1.82329">
        <ele>142</ele>
        <time>2015-11-30T01:59:06Z</time>
      </trkpt>
      <trkpt lat="49.26983" lon="1.82321">
        <ele>141</ele>
        <time>2015-11-30T02:01:06Z</time>
      </trkpt>
      <trkpt lat="49.26981" lon="1.82304">
        <ele>140</ele>
        <time>2015-11-30T02:03:06Z</time>
      </trkpt>
      <trkpt lat="49.26979" lon="1.82287">
        <ele>139</ele>
        <time>2015-11-30T02:05:06Z</time>
      </trkpt>
      <trkpt lat="49.26971" lon="1.82274">
        <ele>139</ele>
        <time>2015-11-30T02:07:06Z</time>
      </trkpt>
      <trkpt lat="49.26964" lon="1.82264">
        <ele>138</ele>
        <time>2015-11-30T02:09:06Z</time>
      </trkpt>
      <trkpt lat="49.26956" lon="1.82254">
        <ele>138</ele>
        <time>2015-11-30T02:11:06Z</time>
      </trkpt>
      <trkpt lat="49.26939" lon="1.82231">
        <ele>138</ele>
        <time>2015-11-30T02:13:06Z</time>
      </trkpt>
      <trkpt lat="49.2693" lon="1.82221">
        <ele>139</ele>
        <time>2015-11-30T02:15:06Z</time>
      </trkpt>
      <trkpt lat="49.2692" lon="1.8221">
        <ele>139</ele>
        <time>2015-11-30T02:17:06Z</time>
      </trkpt>
      <trkpt lat="49.26911" lon="1.822">
        <ele>139</ele>
        <time>2015-11-30T02:19:06Z</time>
      </trkpt>
      <trkpt lat="49.26904" lon="1.82188">
        <ele>139</ele>
        <time>2015-11-30T02:21:06Z</time>
      </trkpt>
      <trkpt lat="49.26903" lon="1.82174">
        <ele>138</ele>
        <time>2015-11-30T02:23:06Z</time>
      </trkpt>
      <trkpt lat="49.26907" lon="1.82159">
        <ele>137</ele>
        <time>2015-11-30T02:25:06Z</time>
      </trkpt>
      <trkpt lat="49.26903" lon="1.82147">
        <ele>137</ele>
        <time>2015-11-30T02:27:06Z</time>
      </trkpt>
      <trkpt lat="49.26896" lon="1.82136">
        <ele>138</ele>
        <time>2015-11-30T02:29:06Z</time>
      </trkpt>
      <trkpt lat="49.26891" lon="1.82125">
        <ele>138</ele>
        <time>2015-11-30T02:31:06Z</time>
      </trkpt>
      <trkpt lat="49.26891" lon="1.82109">
        <ele>137</ele>
        <time>2015-11-30T02:33:06Z</time>
      </trkpt>
      <trkpt lat="49.26897" lon="1.82095">
        <ele>137</ele>
        <time>2015-11-30T02:35:06Z</time>
      </trkpt>
      <trkpt lat="49.26898" lon="1.82081">
        <ele>136</ele>
        <time>2015-11-30T02:37:06Z</time>
      </trkpt>
      <trkpt lat="49.26893" lon="1.8207">
        <ele>136</ele>
        <time>2015-11-30T02:39:06Z</time>
      </trkpt>
      <trkpt lat="49.26885" lon="1.82062">
        <ele>136</ele>
        <time>2015-11-30T02:41:06Z</time>
      </trkpt>
      <trkpt lat="49.2687" lon="1.82045">
        <ele>137</ele>
        <time>2015-11-30T02:43:06Z</time>
      </trkpt>
      <trkpt lat="49.26862" lon="1.82038">
        <ele>137</ele>
        <time>2015-11-30T02:45:06Z</time>
      </trkpt>
      <trkpt lat="49.26855" lon="1.82026">
        <ele>138</ele>
        <time>2015-11-30T02:47:06Z</time>
      </trkpt>
      <trkpt lat="49.26848" lon="1.82016">
        <ele>138</ele>
        <time>2015-11-30T02:49:06Z</time>
      </trkpt>
      <trkpt lat="49.26838" lon="1.82007">
        <ele>139</ele>
        <time>2015-11-30T02:51:06Z</time>
      </trkpt>
      <trkpt lat="49.26828" lon="1.82">
        <ele>139</ele>
        <time>2015-11-30T02:53:06Z</time>
      </trkpt>
      <trkpt lat="49.26812" lon="1.81981">
        <ele>138</ele>
        <time>2015-11-30T02:55:06Z</time>
      </trkpt>
      <trkpt lat="49.26805" lon="1.81972">
        <ele>138</ele>
        <time>2015-11-30T02:57:06Z</time>
      </trkpt>
      <trkpt lat="49.26796" lon="1.81963">
        <ele>137</ele>
        <time>2015-11-30T02:59:06Z</time>
      </trkpt>
      <trkpt lat="49.26786" lon="1.81953">
        <ele>137</ele>
        <time>2015-11-30T03:01:06Z</time>
      </trkpt>
      <trkpt lat="49.26768" lon="1.81935">
        <ele>136</ele>
        <time>2015-11-30T03:03:06Z</time>
      </trkpt>
      <trkpt lat="49.2675" lon="1.81913">
        <ele>135</ele>
        <time>2015-11-30T03:05:06Z</time>
      </trkpt>
      <trkpt lat="49.2674" lon="1.81899">
        <ele>134</ele>
        <time>2015-11-30T03:07:06Z</time>
      </trkpt>
      <trkpt lat="49.26732" lon="1.81887">
        <ele>133</ele>
        <time>2015-11-30T03:09:06Z</time>
      </trkpt>
      <trkpt lat="49.26716" lon="1.81869">
        <ele>132</ele>
        <time>2015-11-30T03:11:06Z</time>
      </trkpt>
      <trkpt lat="49.26707" lon="1.81859">
        <ele>132</ele>
        <time>2015-11-30T03:13:06Z</time>
      </trkpt>
      <trkpt lat="49.26699" lon="1.81852">
        <ele>131</ele>
        <time>2015-11-30T03:15:06Z</time>
      </trkpt>
      <trkpt lat="49.26692" lon="1.81843">
        <ele>131</ele>
        <time>2015-11-30T03:17:06Z</time>
      </trkpt>
      <trkpt lat="49.26684" lon="1.81833">
        <ele>131</ele>
        <time>2015-11-30T03:19:06Z</time>
      </trkpt>
      <trkpt lat="49.26667" lon="1.81815">
        <ele>129</ele>
        <time>2015-11-30T03:21:06Z</time>
      </trkpt>
      <trkpt lat="49.26659" lon="1.81806">
        <ele>128</ele>
        <time>2015-11-30T03:23:06Z</time>
      </trkpt>
      <trkpt lat="49.26642" lon="1.81792">
        <ele>126</ele>
        <time>2015-11-30T03:25:06Z</time>
      </trkpt>
      <trkpt lat="49.26634" lon="1.81783">
        <ele>125</ele>
        <time>2015-11-30T03:27:06Z</time>
      </trkpt>
      <trkpt lat="49.26626" lon="1.81773">
        <ele>123</ele>
        <time>2015-11-30T03:29:06Z</time>
      </trkpt>
      <trkpt lat="49.26609" lon="1.81754">
        <ele>121</ele>
        <time>2015-11-30T03:31:06Z</time>
      </trkpt>
      <trkpt lat="49.266" lon="1.81744">
        <ele>119</ele>
        <time>2015-11-30T03:33:06Z</time>
      </trkpt>
      <trkpt lat="49.26591" lon="1.81737">
        <ele>118</ele>
        <time>2015-11-30T03:35:06Z</time>
      </trkpt>
      <trkpt lat="49.26581" lon="1.81727">
        <ele>116</ele>
        <time>2015-11-30T03:37:06Z</time>
      </trkpt>
      <trkpt lat="49.26564" lon="1.81711">
        <ele>113</ele>
        <time>2015-11-30T03:39:06Z</time>
      </trkpt>
      <trkpt lat="49.26537" lon="1.81681">
        <ele>109</ele>
        <time>2015-11-30T03:41:06Z</time>
      </trkpt>
      <trkpt lat="49.26527" lon="1.81671">
        <ele>108</ele>
        <time>2015-11-30T03:43:06Z</time>
      </trkpt>
      <trkpt lat="49.26517" lon="1.81662">
        <ele>107</ele>
        <time>2015-11-30T03:45:06Z</time>
      </trkpt>
      <trkpt lat="49.26497" lon="1.81643">
        <ele>105</ele>
        <time>2015-11-30T03:47:06Z</time>
      </trkpt>
      <trkpt lat="49.2648" lon="1.81629">
        <ele>103</ele>
        <time>2015-11-30T03:49:06Z</time>
      </trkpt>
      <trkpt lat="49.26462" lon="1.81615">
        <ele>101</ele>
        <time>2015-11-30T03:51:06Z</time>
      </trkpt>
      <trkpt lat="49.26453" lon="1.81609">
        <ele>101</ele>
        <time>2015-11-30T03:53:06Z</time>
      </trkpt>
      <trkpt lat="49.26441" lon="1.81602">
        <ele>99</ele>
        <time>2015-11-30T03:55:06Z</time>
      </trkpt>
      <trkpt lat="49.26421" lon="1.81591">
        <ele>98</ele>
        <time>2015-11-30T03:57:06Z</time>
      </trkpt>
      <trkpt lat="49.2641" lon="1.81586">
        <ele>97</ele>
        <time>2015-11-30T03:59:06Z</time>
      </trkpt>
      <trkpt lat="49.264" lon="1.81584">
        <ele>96</ele>
        <time>2015-11-30T04:01:06Z</time>
      </trkpt>
      <trkpt lat="49.2639" lon="1.81582">
        <ele>95</ele>
        <time>2015-11-30T04:03:06Z</time>
      </trkpt>
      <trkpt lat="49.2638" lon="1.81581">
        <ele>95</ele>
        <time>2015-11-30T04:05:06Z</time>
      </trkpt>
      <trkpt lat="49.26371" lon="1.81579">
        <ele>94</ele>
        <time>2015-11-30T04:07:06Z</time>
      </trkpt>
      <trkpt lat="49.26351" lon="1.81573">
        <ele>92</ele>
        <time>2015-11-30T04:09:06Z</time>
      </trkpt>
      <trkpt lat="49.26341" lon="1.8157">
        <ele>91</ele>
        <time>2015-11-30T04:11:06Z</time>
      </trkpt>
      <trkpt lat="49.26308" lon="1.81566">
        <ele>88</ele>
        <time>2015-11-30T04:13:06Z</time>
      </trkpt>
      <trkpt lat="49.26298" lon="1.81565">
        <ele>87</ele>
        <time>2015-11-30T04:15:06Z</time>
      </trkpt>
      <trkpt lat="49.26286" lon="1.8156">
        <ele>86</ele>
        <time>2015-11-30T04:17:06Z</time>
      </trkpt>
      <trkpt lat="49.26276" lon="1.81555">
        <ele>85</ele>
        <time>2015-11-30T04:19:06Z</time>
      </trkpt>
      <trkpt lat="49.26267" lon="1.81547">
        <ele>84</ele>
        <time>2015-11-30T04:21:06Z</time>
      </trkpt>
      <trkpt lat="49.26258" lon="1.81548">
        <ele>83</ele>
        <time>2015-11-30T04:23:06Z</time>
      </trkpt>
      <trkpt lat="49.26249" lon="1.81554">
        <ele>82</ele>
        <time>2015-11-30T04:25:06Z</time>
      </trkpt>
      <trkpt lat="49.26231" lon="1.8157">
        <ele>81</ele>
        <time>2015-11-30T04:27:06Z</time>
      </trkpt>
      <trkpt lat="49.26223" lon="1.81578">
        <ele>80</ele>
        <time>2015-11-30T04:29:06Z</time>
      </trkpt>
      <trkpt lat="49.26213" lon="1.81585">
        <ele>79</ele>
        <time>2015-11-30T04:31:06Z</time>
      </trkpt>
      <trkpt lat="49.26194" lon="1.81602">
        <ele>78</ele>
        <time>2015-11-30T04:33:06Z</time>
      </trkpt>
      <trkpt lat="49.26184" lon="1.81609">
        <ele>77</ele>
        <time>2015-11-30T04:35:06Z</time>
      </trkpt>
      <trkpt lat="49.26164" lon="1.81624">
        <ele>76</ele>
        <time>2015-11-30T04:37:06Z</time>
      </trkpt>
      <trkpt lat="49.26153" lon="1.8163">
        <ele>75</ele>
        <time>2015-11-30T04:39:06Z</time>
      </trkpt>
      <trkpt lat="49.2614" lon="1.81637">
        <ele>74</ele>
        <time>2015-11-30T04:41:06Z</time>
      </trkpt>
      <trkpt lat="49.26131" lon="1.81643">
        <ele>73</ele>
        <time>2015-11-30T04:43:06Z</time>
      </trkpt>
      <trkpt lat="49.26119" lon="1.8165">
        <ele>72</ele>
        <time>2015-11-30T04:45:06Z</time>
      </trkpt>
      <trkpt lat="49.26109" lon="1.81659">
        <ele>71</ele>
        <time>2015-11-30T04:47:06Z</time>
      </trkpt>
      <trkpt lat="49.26104" lon="1.81675">
        <ele>71</ele>
        <time>2015-11-30T04:49:06Z</time>
      </trkpt>
      <trkpt lat="49.26101" lon="1.81688">
        <ele>70</ele>
        <time>2015-11-30T04:51:06Z</time>
      </trkpt>
      <trkpt lat="49.26096" lon="1.81705">
        <ele>70</ele>
        <time>2015-11-30T04:53:06Z</time>
      </trkpt>
      <trkpt lat="49.26092" lon="1.81718">
        <ele>70</ele>
        <time>2015-11-30T04:55:06Z</time>
      </trkpt>
      <trkpt lat="49.26089" lon="1.81732">
        <ele>69</ele>
        <time>2015-11-30T04:57:06Z</time>
      </trkpt>
      <trkpt lat="49.26086" lon="1.81745">
        <ele>69</ele>
        <time>2015-11-30T04:59:06Z</time>
      </trkpt>
      <trkpt lat="49.26084" lon="1.81763">
        <ele>70</ele>
        <time>2015-11-30T05:01:06Z</time>
      </trkpt>
      <trkpt lat="49.26078" lon="1.81791">
        <ele>70</ele>
        <time>2015-11-30T05:03:06Z</time>
      </trkpt>
      <trkpt lat="49.26079" lon="1.81806">
        <ele>71</ele>
        <time>2015-11-30T05:05:06Z</time>
      </trkpt>
      <trkpt lat="49.26094" lon="1.81826">
        <ele>73</ele>
        <time>2015-11-30T05:07:06Z</time>
      </trkpt>
      <trkpt lat="49.26103" lon="1.81835">
        <ele>73</ele>
        <time>2015-11-30T05:09:06Z</time>
      </trkpt>
      <trkpt lat="49.2611" lon="1.81844">
        <ele>74</ele>
        <time>2015-11-30T05:11:06Z</time>
      </trkpt>
      <trkpt lat="49.26117" lon="1.81856">
        <ele>75</ele>
        <time>2015-11-30T05:13:06Z</time>
      </trkpt>
      <trkpt lat="49.26134" lon="1.8189">
        <ele>78</ele>
        <time>2015-11-30T05:15:06Z</time>
      </trkpt>
      <trkpt lat="49.26151" lon="1.81926">
        <ele>80</ele>
        <time>2015-11-30T05:17:06Z</time>
      </trkpt>
      <trkpt lat="49.26156" lon="1.81938">
        <ele>80</ele>
        <time>2015-11-30T05:19:06Z</time>
      </trkpt>
      <trkpt lat="49.26163" lon="1.81948">
        <ele>81</ele>
        <time>2015-11-30T05:21:06Z</time>
      </trkpt>
      <trkpt lat="49.26171" lon="1.81957">
        <ele>81</ele>
        <time>2015-11-30T05:23:06Z</time>
      </trkpt>
      <trkpt lat="49.26179" lon="1.81968">
        <ele>82</ele>
        <time>2015-11-30T05:25:06Z</time>
      </trkpt>
      <trkpt lat="49.26185" lon="1.8198">
        <ele>82</ele>
        <time>2015-11-30T05:27:06Z</time>
      </trkpt>
      <trkpt lat="49.26192" lon="1.81991">
        <ele>83</ele>
        <time>2015-11-30T05:29:06Z</time>
      </trkpt>
      <trkpt lat="49.26205" lon="1.82014">
        <ele>84</ele>
        <time>2015-11-30T05:31:06Z</time>
      </trkpt>
      <trkpt lat="49.26214" lon="1.82025">
        <ele>85</ele>
        <time>2015-11-30T05:33:06Z</time>
      </trkpt>
      <trkpt lat="49.26222" lon="1.82035">
        <ele>85</ele>
        <time>2015-11-30T05:35:06Z</time>
      </trkpt>
      <trkpt lat="49.26227" lon="1.82046">
        <ele>86</ele>
        <time>2015-11-30T05:37:06Z</time>
      </trkpt>
      <trkpt lat="49.26234" lon="1.82055">
        <ele>86</ele>
        <time>2015-11-30T05:39:06Z</time>
      </trkpt>
      <trkpt lat="49.2624" lon="1.82066">
        <ele>86</ele>
        <time>2015-11-30T05:41:06Z</time>
      </trkpt>
      <trkpt lat="49.26248" lon="1.82077">
        <ele>87</ele>
        <time>2015-11-30T05:43:06Z</time>
      </trkpt>
      <trkpt lat="49.26254" lon="1.82088">
        <ele>87</ele>
        <time>2015-11-30T05:45:06Z</time>
      </trkpt>
      <trkpt lat="49.26268" lon="1.82109">
        <ele>88</ele>
        <time>2015-11-30T05:47:06Z</time>
      </trkpt>
      <trkpt lat="49.26275" lon="1.82118">
        <ele>88</ele>
        <time>2015-11-30T05:49:06Z</time>
      </trkpt>
      <trkpt lat="49.26281" lon="1.82131">
        <ele>88</ele>
        <time>2015-11-30T05:51:06Z</time>
      </trkpt>
      <trkpt lat="49.26287" lon="1.82141">
        <ele>88</ele>
        <time>2015-11-30T05:53:06Z</time>
      </trkpt>
      <trkpt lat="49.26293" lon="1.82153">
        <ele>88</ele>
        <time>2015-11-30T05:55:06Z</time>
      </trkpt>
      <trkpt lat="49.26299" lon="1.82164">
        <ele>88</ele>
        <time>2015-11-30T05:57:06Z</time>
      </trkpt>
      <trkpt lat="49.26305" lon="1.82176">
        <ele>88</ele>
        <time>2015-11-30T05:59:06Z</time>
      </trkpt>
      <trkpt lat="49.26316" lon="1.82201">
        <ele>88</ele>
        <time>2015-11-30T06:01:06Z</time>
      </trkpt>
      <trkpt lat="49.2632" lon="1.82215">
        <ele>88</ele>
        <time>2015-11-30T06:03:06Z</time>
      </trkpt>
      <trkpt lat="49.26328" lon="1.82226">
        <ele>87</ele>
        <time>2015-11-30T06:05:06Z</time>
      </trkpt>
      <trkpt lat="49.26335" lon="1.82237">
        <ele>87</ele>
        <time>2015-11-30T06:07:06Z</time>
      </trkpt>
      <trkpt lat="49.2634" lon="1.8225">
        <ele>88</ele>
        <time>2015-11-30T06:09:06Z</time>
      </trkpt>
      <trkpt lat="49.26347" lon="1.82261">
        <ele>88</ele>
        <time>2015-11-30T06:11:06Z</time>
      </trkpt>
      <trkpt lat="49.26353" lon="1.82274">
        <ele>89</ele>
        <time>2015-11-30T06:13:06Z</time>
      </trkpt>
      <trkpt lat="49.26359" lon="1.82288">
        <ele>89</ele>
        <time>2015-11-30T06:15:06Z</time>
      </trkpt>
      <trkpt lat="49.2637" lon="1.82314">
        <ele>91</ele>
        <time>2015-11-30T06:17:06Z</time>
      </trkpt>
      <trkpt lat="49.26375" lon="1.82328">
        <ele>91</ele>
        <time>2015-11-30T06:19:06Z</time>
      </trkpt>
      <trkpt lat="49.2638" lon="1.82342">
        <ele>91</ele>
        <time>2015-11-30T06:21:06Z</time>
      </trkpt>
      <trkpt lat="49.26386" lon="1.82354">
        <ele>92</ele>
        <time>2015-11-30T06:23:06Z</time>
      </trkpt>
      <trkpt lat="49.26391" lon="1.82368">
        <ele>92</ele>
        <time>2015-11-30T06:25:06Z</time>
      </trkpt>
      <trkpt lat="49.26397" lon="1.82379">
        <ele>92</ele>
        <time>2015-11-30T06:27:06Z</time>
      </trkpt>
      <trkpt lat="49.26401" lon="1.82391">
        <ele>93</ele>
        <time>2015-11-30T06:29:06Z</time>
      </trkpt>
      <trkpt lat="49.26401" lon="1.82406">
        <ele>92</ele>
        <time>2015-11-30T06:31:06Z</time>
      </trkpt>
      <trkpt lat="49.26408" lon="1.82417">
        <ele>93</ele>
        <time>2015-11-30T06:33:06Z</time>
      </trkpt>
      <trkpt lat="49.26418" lon="1.82443">
        <ele>94</ele>
        <time>2015-11-30T06:35:06Z</time>
      </trkpt>
      <trkpt lat="49.26422" lon="1.82457">
        <ele>94</ele>
        <time>2015-11-30T06:37:06Z</time>
      </trkpt>
      <trkpt lat="49.2643" lon="1.82485">
        <ele>96</ele>
        <time>2015-11-30T06:39:06Z</time>
      </trkpt>
      <trkpt lat="49.26434" lon="1.82501">
        <ele>96</ele>
        <time>2015-11-30T06:41:06Z</time>
      </trkpt>
      <trkpt lat="49.26441" lon="1.82529">
        <ele>97</ele>
        <time>2015-11-30T06:43:06Z</time>
      </trkpt>
      <trkpt lat="49.26445" lon="1.82542">
        <ele>98</ele>
        <time>2015-11-30T06:45:06Z</time>
      </trkpt>
      <trkpt lat="49.26448" lon="1.82557">
        <ele>98</ele>
        <time>2015-11-30T06:47:06Z</time>
      </trkpt>
      <trkpt lat="49.26456" lon="1.82585">
        <ele>99</ele>
        <time>2015-11-30T06:49:06Z</time>
      </trkpt>
      <trkpt lat="49.2646" lon="1.82598">
        <ele>99</ele>
        <time>2015-11-30T06:51:06Z</time>
      </trkpt>
      <trkpt lat="49.26464" lon="1.82613">
        <ele>99</ele>
        <time>2015-11-30T06:53:06Z</time>
      </trkpt>
      <trkpt lat="49.26466" lon="1.82628">
        <ele>99</ele>
        <time>2015-11-30T06:55:06Z</time>
      </trkpt>
      <trkpt lat="49.26469" lon="1.82657">
        <ele>100</ele>
        <time>2015-11-30T06:57:06Z</time>
      </trkpt>
      <trkpt lat="49.2647" lon="1.82673">
        <ele>100</ele>
        <time>2015-11-30T06:59:06Z</time>
      </trkpt>
      <trkpt lat="49.26482" lon="1.82699">
        <ele>100</ele>
        <time>2015-11-30T07:01:06Z</time>
      </trkpt>
      <trkpt lat="49.26487" lon="1.82712">
        <ele>100</ele>
        <time>2015-11-30T07:03:06Z</time>
      </trkpt>
      <trkpt lat="49.26492" lon="1.82724">
        <ele>100</ele>
        <time>2015-11-30T07:05:06Z</time>
      </trkpt>
      <trkpt lat="49.26497" lon="1.82738">
        <ele>100</ele>
        <time>2015-11-30T07:07:06Z</time>
      </trkpt>
      <trkpt lat="49.26501" lon="1.82751">
        <ele>100</ele>
        <time>2015-11-30T07:09:06Z</time>
      </trkpt>
      <trkpt lat="49.26504" lon="1.82766">
        <ele>102</ele>
        <time>2015-11-30T07:11:06Z</time>
      </trkpt>
      <trkpt lat="49.26508" lon="1.8278">
        <ele>104</ele>
        <time>2015-11-30T07:13:06Z</time>
      </trkpt>
      <trkpt lat="49.26514" lon="1.82795">
        <ele>106</ele>
        <time>2015-11-30T07:15:06Z</time>
      </trkpt>
      <trkpt lat="49.26516" lon="1.82809">
        <ele>107</ele>
        <time>2015-11-30T07:17:06Z</time>
      </trkpt>
      <trkpt lat="49.26519" lon="1.82824">
        <ele>108</ele>
        <time>2015-11-30T07:19:06Z</time>
      </trkpt>
      <trkpt lat="49.26524" lon="1.82839">
        <ele>110</ele>
        <time>2015-11-30T07:21:06Z</time>
      </trkpt>
      <trkpt lat="49.26528" lon="1.82851">
        <ele>111</ele>
        <time>2015-11-30T07:23:06Z</time>
      </trkpt>
      <trkpt lat="49.26536" lon="1.82879">
        <ele>114</ele>
        <time>2015-11-30T07:25:06Z</time>
      </trkpt>
      <trkpt lat="49.2654" lon="1.82891">
        <ele>115</ele>
        <time>2015-11-30T07:27:06Z</time>
      </trkpt>
      <trkpt lat="49.26543" lon="1.82904">
        <ele>117</ele>
        <time>2015-11-30T07:29:06Z</time>
      </trkpt>
      <trkpt lat="49.26546" lon="1.82918">
        <ele>118</ele>
        <time>2015-11-30T07:31:06Z</time>
      </trkpt>
      <trkpt lat="49.26554" lon="1.82929">
        <ele>118</ele>
        <time>2015-11-30T07:33:06Z</time>
      </trkpt>
      <trkpt lat="49.26559" lon="1.82941">
        <ele>119</ele>
        <time>2015-11-30T07:35:06Z</time>
      </trkpt>
      <trkpt lat="49.26564" lon="1.82955">
        <ele>121</ele>
        <time>2015-11-30T07:37:06Z</time>
      </trkpt>
      <trkpt lat="49.26577" lon="1.82976">
        <ele>122</ele>
        <time>2015-11-30T07:39:06Z</time>
      </trkpt>
      <trkpt lat="49.26583" lon="1.82989">
        <ele>123</ele>
        <time>2015-11-30T07:41:06Z</time>
      </trkpt>
      <trkpt lat="49.26588" lon="1.83002">
        <ele>124</ele>
        <time>2015-11-30T07:43:06Z</time>
      </trkpt>
      <trkpt lat="49.26596" lon="1.83012">
        <ele>125</ele>
        <time>2015-11-30T07:45:06Z</time>
      </trkpt>
      <trkpt lat="49.26602" lon="1.83025">
        <ele>126</ele>
        <time>2015-11-30T07:47:06Z</time>
      </trkpt>
      <trkpt lat="49.26604" lon="1.83039">
        <ele>127</ele>
        <time>2015-11-30T07:49:06Z</time>
      </trkpt>
      <trkpt lat="49.26612" lon="1.83084">
        <ele>129</ele>
        <time>2015-11-30T07:51:06Z</time>
      </trkpt>
      <trkpt lat="49.26614" lon="1.83112">
        <ele>130</ele>
        <time>2015-11-30T07:53:06Z</time>
      </trkpt>
      <trkpt lat="49.26617" lon="1.83128">
        <ele>131</ele>
        <time>2015-11-30T07:55:06Z</time>
      </trkpt>
      <trkpt lat="49.26618" lon="1.83143">
        <ele>131</ele>
        <time>2015-11-30T07:57:06Z</time>
      </trkpt>
      <trkpt lat="49.26621" lon="1.83158">
        <ele>132</ele>
        <time>2015-11-30T07:59:06Z</time>
      </trkpt>
      <trkpt lat="49.26623" lon="1.83173">
        <ele>133</ele>
        <time>2015-11-30T08:01:06Z</time>
      </trkpt>
      <trkpt lat="49.26626" lon="1.83186">
        <ele>134</ele>
        <time>2015-11-30T08:03:06Z</time>
      </trkpt>
      <trkpt lat="49.26631" lon="1.832">
        <ele>134</ele>
        <time>2015-11-30T08:05:06Z</time>
      </trkpt>
      <trkpt lat="49.26633" lon="1.83215">
        <ele>135</ele>
        <time>2015-11-30T08:07:06Z</time>
      </trkpt>
      <trkpt lat="49.26642" lon="1.83241">
        <ele>137</ele>
        <time>2015-11-30T08:09:06Z</time>
      </trkpt>
      <trkpt lat="49.26648" lon="1.83255">
        <ele>138</ele>
        <time>2015-11-30T08:11:06Z</time>
      </trkpt>
      <trkpt lat="49.26653" lon="1.83267">
        <ele>138</ele>
        <time>2015-11-30T08:13:06Z</time>
      </trkpt>
      <trkpt lat="49.26657" lon="1.8328">
        <ele>138</ele>
        <time>2015-11-30T08:15:06Z</time>
      </trkpt>
      <trkpt lat="49.26661" lon="1.83296">
        <ele>139</ele>
        <time>2015-11-30T08:17:06Z</time>
      </trkpt>
      <trkpt lat="49.26664" lon="1.8331">
        <ele>139</ele>
        <time>2015-11-30T08:19:06Z</time>
      </trkpt>
      <trkpt lat="49.26668" lon="1.83323">
        <ele>139</ele>
        <time>2015-11-30T08:21:06Z</time>
      </trkpt>
      <trkpt lat="49.2667" lon="1.83336">
        <ele>139</ele>
        <time>2015-11-30T08:23:06Z</time>
      </trkpt>
      <trkpt lat="49.26674" lon="1.83351">
        <ele>139</ele>
        <time>2015-11-30T08:25:06Z</time>
      </trkpt>
      <trkpt lat="49.26672" lon="1.83364">
        <ele>139</ele>
        <time>2015-11-30T08:27:06Z</time>
      </trkpt>
      <trkpt lat="49.26667" lon="1.8338">
        <ele>140</ele>
        <time>2015-11-30T08:29:06Z</time>
      </trkpt>
      <trkpt lat="49.26663" lon="1.83393">
        <ele>140</ele>
        <time>2015-11-30T08:31:06Z</time>
      </trkpt>
      <trkpt lat="49.26658" lon="1.83405">
        <ele>140</ele>
        <time>2015-11-30T08:33:06Z</time>
      </trkpt>
      <trkpt lat="49.26653" lon="1.83417">
        <ele>140</ele>
        <time>2015-11-30T08:35:06Z</time>
      </trkpt>
      <trkpt lat="49.26648" lon="1.83429">
        <ele>141</ele>
        <time>2015-11-30T08:37:06Z</time>
      </trkpt>
      <trkpt lat="49.26643" lon="1.83441">
        <ele>141</ele>
        <time>2015-11-30T08:39:06Z</time>
      </trkpt>
      <trkpt lat="49.26638" lon="1.83454">
        <ele>141</ele>
        <time>2015-11-30T08:41:06Z</time>
      </trkpt>
      <trkpt lat="49.26633" lon="1.83468">
        <ele>141</ele>
        <time>2015-11-30T08:43:06Z</time>
      </trkpt>
      <trkpt lat="49.26628" lon="1.83481">
        <ele>142</ele>
        <time>2015-11-30T08:45:06Z</time>
      </trkpt>
      <trkpt lat="49.26623" lon="1.83493">
        <ele>142</ele>
        <time>2015-11-30T08:47:06Z</time>
      </trkpt>
      <trkpt lat="49.2662" lon="1.83507">
        <ele>142</ele>
        <time>2015-11-30T08:49:06Z</time>
      </trkpt>
      <trkpt lat="49.26615" lon="1.83519">
        <ele>142</ele>
        <time>2015-11-30T08:51:06Z</time>
      </trkpt>
      <trkpt lat="49.26606" lon="1.83544">
        <ele>143</ele>
        <time>2015-11-30T08:53:06Z</time>
      </trkpt>
      <trkpt lat="49.26599" lon="1.83558">
        <ele>143</ele>
        <time>2015-11-30T08:55:06Z</time>
      </trkpt>
      <trkpt lat="49.26595" lon="1.83571">
        <ele>143</ele>
        <time>2015-11-30T08:57:06Z</time>
      </trkpt>
      <trkpt lat="49.26588" lon="1.83582">
        <ele>143</ele>
        <time>2015-11-30T08:59:06Z</time>
      </trkpt>
      <trkpt lat="49.26581" lon="1.83594">
        <ele>143</ele>
        <time>2015-11-30T09:01:06Z</time>
      </trkpt>
      <trkpt lat="49.26561" lon="1.83632">
        <ele>144</ele>
        <time>2015-11-30T09:03:06Z</time>
      </trkpt>
      <trkpt lat="49.26555" lon="1.83643">
        <ele>144</ele>
        <time>2015-11-30T09:05:06Z</time>
      </trkpt>
      <trkpt lat="49.26548" lon="1.83655">
        <ele>144</ele>
        <time>2015-11-30T09:07:06Z</time>
      </trkpt>
      <trkpt lat="49.26541" lon="1.83667">
        <ele>145</ele>
        <time>2015-11-30T09:09:06Z</time>
      </trkpt>
      <trkpt lat="49.26534" lon="1.83682">
        <ele>145</ele>
        <time>2015-11-30T09:11:06Z</time>
      </trkpt>
      <trkpt lat="49.26527" lon="1.83694">
        <ele>145</ele>
        <time>2015-11-30T09:13:06Z</time>
      </trkpt>
      <trkpt lat="49.26518" lon="1.83689">
        <ele>145</ele>
        <time>2015-11-30T09:15:06Z</time>
      </trkpt>
      <trkpt lat="49.26503" lon="1.83669">
        <ele>145</ele>
        <time>2015-11-30T09:17:06Z</time>
      </trkpt>
      <trkpt lat="49.26489" lon="1.83652">
        <ele>144</ele>
        <time>2015-11-30T09:19:06Z</time>
      </trkpt>
      <trkpt lat="49.26481" lon="1.8364">
        <ele>143</ele>
        <time>2015-11-30T09:21:06Z</time>
      </trkpt>
      <trkpt lat="49.26471" lon="1.83627">
        <ele>142</ele>
        <time>2015-11-30T09:23:06Z</time>
      </trkpt>
      <trkpt lat="49.26461" lon="1.83618">
        <ele>141</ele>
        <time>2015-11-30T09:25:06Z</time>
      </trkpt>
      <trkpt lat="49.26451" lon="1.83612">
        <ele>141</ele>
        <time>2015-11-30T09:27:06Z</time>
      </trkpt>
      <trkpt lat="49.26441" lon="1.83604">
        <ele>140</ele>
        <time>2015-11-30T09:29:06Z</time>
      </trkpt>
      <trkpt lat="49.26432" lon="1.83595">
        <ele>139</ele>
        <time>2015-11-30T09:31:06Z</time>
      </trkpt>
      <trkpt lat="49.26413" lon="1.8358">
        <ele>138</ele>
        <time>2015-11-30T09:33:06Z</time>
      </trkpt>
      <trkpt lat="49.26402" lon="1.83574">
        <ele>137</ele>
        <time>2015-11-30T09:35:06Z</time>
      </trkpt>
      <trkpt lat="49.26391" lon="1.8357">
        <ele>137</ele>
        <time>2015-11-30T09:37:06Z</time>
      </trkpt>
      <trkpt lat="49.26379" lon="1.83568">
        <ele>137</ele>
        <time>2015-11-30T09:39:06Z</time>
      </trkpt>
      <trkpt lat="49.2637" lon="1.83568">
        <ele>136</ele>
        <time>2015-11-30T09:41:06Z</time>
      </trkpt>
      <trkpt lat="49.26361" lon="1.83564">
        <ele>136</ele>
        <time>2015-11-30T09:43:06Z</time>
      </trkpt>
      <trkpt lat="49.26358" lon="1.83551">
        <ele>136</ele>
        <time>2015-11-30T09:45:06Z</time>
      </trkpt>
      <trkpt lat="49.26355" lon="1.83537">
        <ele>137</ele>
        <time>2015-11-30T09:47:06Z</time>
      </trkpt>
      <trkpt lat="49.26351" lon="1.83521">
        <ele>137</ele>
        <time>2015-11-30T09:49:06Z</time>
      </trkpt>
      <trkpt lat="49.26347" lon="1.83509">
        <ele>138</ele>
        <time>2015-11-30T09:51:06Z</time>
      </trkpt>
      <trkpt lat="49.26343" lon="1.83495">
        <ele>138</ele>
        <time>2015-11-30T09:53:06Z</time>
      </trkpt>
      <trkpt lat="49.26339" lon="1.83482">
        <ele>137</ele>
        <time>2015-11-30T09:55:06Z</time>
      </trkpt>
      <trkpt lat="49.26336" lon="1.83464">
        <ele>136</ele>
        <time>2015-11-30T09:57:06Z</time>
      </trkpt>
      <trkpt lat="49.2633" lon="1.83452">
        <ele>136</ele>
        <time>2015-11-30T09:59:06Z</time>
      </trkpt>
      <trkpt lat="49.26323" lon="1.8344">
        <ele>135</ele>
        <time>2015-11-30T10:01:06Z</time>
      </trkpt>
      <trkpt lat="49.26316" lon="1.8343">
        <ele>135</ele>
        <time>2015-11-30T10:03:06Z</time>
      </trkpt>
      <trkpt lat="49.26301" lon="1.83404">
        <ele>134</ele>
        <time>2015-11-30T10:05:06Z</time>
      </trkpt>
      <trkpt lat="49.26289" lon="1.83379">
        <ele>132</ele>
        <time>2015-11-30T10:07:06Z</time>
      </trkpt>
      <trkpt lat="49.26285" lon="1.83365">
        <ele>130</ele>
        <time>2015-11-30T10:09:06Z</time>
      </trkpt>
      <trkpt lat="49.26283" lon="1.83351">
        <ele>129</ele>
        <time>2015-11-30T10:11:06Z</time>
      </trkpt>
      <trkpt lat="49.26273" lon="1.83324">
        <ele>126</ele>
        <time>2015-11-30T10:13:06Z</time>
      </trkpt>
      <trkpt lat="49.26269" lon="1.8331">
        <ele>126</ele>
        <time>2015-11-30T10:15:06Z</time>
      </trkpt>
      <trkpt lat="49.26263" lon="1.83296">
        <ele>125</ele>
        <time>2015-11-30T10:17:06Z</time>
      </trkpt>
      <trkpt lat="49.26254" lon="1.83264">
        <ele>123</ele>
        <time>2015-11-30T10:19:06Z</time>
      </trkpt>
      <trkpt lat="49.2625" lon="1.83247">
        <ele>122</ele>
        <time>2015-11-30T10:21:06Z</time>
      </trkpt>
      <trkpt lat="49.26246" lon="1.8323">
        <ele>122</ele>
        <time>2015-11-30T10:23:06Z</time>
      </trkpt>
      <trkpt lat="49.26243" lon="1.83212">
        <ele>122</ele>
        <time>2015-11-30T10:25:06Z</time>
      </trkpt>
      <trkpt lat="49.26236" lon="1.83178">
        <ele>121</ele>
        <time>2015-11-30T10:27:06Z</time>
      </trkpt>
      <trkpt lat="49.26233" lon="1.83166">
        <ele>121</ele>
        <time>2015-11-30T10:29:06Z</time>
      </trkpt>
      <trkpt lat="49.26229" lon="1.83148">
        <ele>121</ele>
        <time>2015-11-30T10:31:06Z</time>
      </trkpt>
      <trkpt lat="49.26227" lon="1.8313">
        <ele>120</ele>
        <time>2015-11-30T10:33:06Z</time>
      </trkpt>
      <trkpt lat="49.26224" lon="1.83112">
        <ele>119</ele>
        <time>2015-11-30T10:35:06Z</time>
      </trkpt>
      <trkpt lat="49.26222" lon="1.83094">
        <ele>119</ele>
        <time>2015-11-30T10:37:06Z</time>
      </trkpt>
      <trkpt lat="49.26221" lon="1.83078">
        <ele>118</ele>
        <time>2015-11-30T10:39:06Z</time>
      </trkpt>
      <trkpt lat="49.2622" lon="1.83062">
        <ele>117</ele>
        <time>2015-11-30T10:41:06Z</time>
      </trkpt>
      <trkpt lat="49.2622" lon="1.83046">
        <ele>116</ele>
        <time>2015-11-30T10:43:06Z</time>
      </trkpt>
      <trkpt lat="49.26215" lon="1.83028">
        <ele>114</ele>
        <time>2015-11-30T10:45:06Z</time>
      </trkpt>
      <trkpt lat="49.26215" lon="1.83013">
        <ele>113</ele>
        <time>2015-11-30T10:47:06Z</time>
      </trkpt>
      <trkpt lat="49.26207" lon="1.82976">
        <ele>109</ele>
        <time>2015-11-30T10:49:06Z</time>
      </trkpt>
      <trkpt lat="49.26208" lon="1.82959">
        <ele>107</ele>
        <time>2015-11-30T10:51:06Z</time>
      </trkpt>
      <trkpt lat="49.26205" lon="1.82945">
        <ele>105</ele>
        <time>2015-11-30T10:53:06Z</time>
      </trkpt>
      <trkpt lat="49.26202" lon="1.82932">
        <ele>103</ele>
        <time>2015-11-30T10:55:06Z</time>
      </trkpt>
      <trkpt lat="49.26195" lon="1.829">
        <ele>100</ele>
        <time>2015-11-30T10:57:06Z</time>
      </trkpt>
      <trkpt lat="49.26197" lon="1.82883">
        <ele>99</ele>
        <time>2015-11-30T10:59:06Z</time>
      </trkpt>
      <trkpt lat="49.26199" lon="1.82852">
        <ele>97</ele>
        <time>2015-11-30T11:01:06Z</time>
      </trkpt>
      <trkpt lat="49.26201" lon="1.82835">
        <ele>95</ele>
        <time>2015-11-30T11:03:06Z</time>
      </trkpt>
      <trkpt lat="49.26203" lon="1.82816">
        <ele>95</ele>
        <time>2015-11-30T11:05:06Z</time>
      </trkpt>
      <trkpt lat="49.26209" lon="1.82801">
        <ele>94</ele>
        <time>2015-11-30T11:07:06Z</time>
      </trkpt>
      <trkpt lat="49.26213" lon="1.82786">
        <ele>93</ele>
        <time>2015-11-30T11:09:06Z</time>
      </trkpt>
      <trkpt lat="49.26219" lon="1.82755">
        <ele>92</ele>
        <time>2015-11-30T11:11:06Z</time>
      </trkpt>
      <trkpt lat="49.26222" lon="1.82736">
        <ele>92</ele>
        <time>2015-11-30T11:13:06Z</time>
      </trkpt>
      <trkpt lat="49.26225" lon="1.82718">
        <ele>92</ele>
        <time>2015-11-30T11:15:06Z</time>
      </trkpt>
      <trkpt lat="49.26226" lon="1.82702">
        <ele>93</ele>
        <time>2015-11-30T11:17:06Z</time>
      </trkpt>
      <trkpt lat="49.26229" lon="1.82688">
        <ele>93</ele>
        <time>2015-11-30T11:19:06Z</time>
      </trkpt>
      <trkpt lat="49.26231" lon="1.8267">
        <ele>93</ele>
        <time>2015-11-30T11:21:06Z</time>
      </trkpt>
      <trkpt lat="49.2623" lon="1.82656">
        <ele>93</ele>
        <time>2015-11-30T11:23:06Z</time>
      </trkpt>
      <trkpt lat="49.2623" lon="1.82641">
        <ele>93</ele>
        <time>2015-11-30T11:25:06Z</time>
      </trkpt>
      <trkpt lat="49.26228" lon="1.82628">
        <ele>94</ele>
        <time>2015-11-30T11:27:06Z</time>
      </trkpt>
      <trkpt lat="49.26231" lon="1.82612">
        <ele>93</ele>
        <time>2015-11-30T11:29:06Z</time>
      </trkpt>
      <trkpt lat="49.26235" lon="1.82598">
        <ele>93</ele>
        <time>2015-11-30T11:31:06Z</time>
      </trkpt>
      <trkpt lat="49.26237" lon="1.82583">
        <ele>93</ele>
        <time>2015-11-30T11:33:06Z</time>
      </trkpt>
      <trkpt lat="49.26241" lon="1.82568">
        <ele>93</ele>
        <time>2015-11-30T11:35:06Z</time>
      </trkpt>
      <trkpt lat="49.26245" lon="1.82553">
        <ele>92</ele>
        <time>2015-11-30T11:37:06Z</time>
      </trkpt>
      <trkpt lat="49.26249" lon="1.82541">
        <ele>92</ele>
        <time>2015-11-30T11:39:06Z</time>
      </trkpt>
      <trkpt lat="49.26247" lon="1.82512">
        <ele>92</ele>
        <time>2015-11-30T11:41:06Z</time>
      </trkpt>
      <trkpt lat="49.26247" lon="1.82497">
        <ele>92</ele>
        <time>2015-11-30T11:43:06Z</time>
      </trkpt>
      <trkpt lat="49.26245" lon="1.82484">
        <ele>93</ele>
        <time>2015-11-30T11:45:06Z</time>
      </trkpt>
      <trkpt lat="49.26248" lon="1.82469">
        <ele>92</ele>
        <time>2015-11-30T11:47:06Z</time>
      </trkpt>
      <trkpt lat="49.26249" lon="1.82451">
        <ele>92</ele>
        <time>2015-11-30T11:49:06Z</time>
      </trkpt>
      <trkpt lat="49.26249" lon="1.82435">
        <ele>92</ele>
        <time>2015-11-30T11:51:06Z</time>
      </trkpt>
      <trkpt lat="49.26246" lon="1.82422">
        <ele>92</ele>
        <time>2015-11-30T11:53:06Z</time>
      </trkpt>
      <trkpt lat="49.26243" lon="1.82391">
        <ele>93</ele>
        <time>2015-11-30T11:55:06Z</time>
      </trkpt>
      <trkpt lat="49.26237" lon="1.82363">
        <ele>93</ele>
        <time>2015-11-30T11:57:06Z</time>
      </trkpt>
      <trkpt lat="49.26233" lon="1.8235">
        <ele>93</ele>
        <time>2015-11-30T11:59:06Z</time>
      </trkpt>
      <trkpt lat="49.26229" lon="1.82337">
        <ele>93</ele>
        <time>2015-11-30T12:01:06Z</time>
      </trkpt>
      <trkpt lat="49.26223" lon="1.82323">
        <ele>93</ele>
        <time>2015-11-30T12:03:06Z</time>
      </trkpt>
      <trkpt lat="49.26218" lon="1.82309">
        <ele>93</ele>
        <time>2015-11-30T12:05:06Z</time>
      </trkpt>
      <trkpt lat="49.26212" lon="1.82296">
        <ele>93</ele>
        <time>2015-11-30T12:07:06Z</time>
      </trkpt>
      <trkpt lat="49.26206" lon="1.82284">
        <ele>93</ele>
        <time>2015-11-30T12:09:06Z</time>
      </trkpt>
      <trkpt lat="49.26199" lon="1.82271">
        <ele>93</ele>
        <time>2015-11-30T12:11:06Z</time>
      </trkpt>
      <trkpt lat="49.26194" lon="1.82257">
        <ele>93</ele>
        <time>2015-11-30T12:13:06Z</time>
      </trkpt>
      <trkpt lat="49.26176" lon="1.82221">
        <ele>92</ele>
        <time>2015-11-30T12:15:06Z</time>
      </trkpt>
      <trkpt lat="49.26171" lon="1.82207">
        <ele>92</ele>
        <time>2015-11-30T12:17:06Z</time>
      </trkpt>
      <trkpt lat="49.26165" lon="1.82194">
        <ele>91</ele>
        <time>2015-11-30T12:19:06Z</time>
      </trkpt>
      <trkpt lat="49.2616" lon="1.8218">
        <ele>91</ele>
        <time>2015-11-30T12:21:06Z</time>
      </trkpt>
      <trkpt lat="49.26155" lon="1.82166">
        <ele>91</ele>
        <time>2015-11-30T12:23:06Z</time>
      </trkpt>
      <trkpt lat="49.2615" lon="1.82151">
        <ele>90</ele>
        <time>2015-11-30T12:25:06Z</time>
      </trkpt>
      <trkpt lat="49.26144" lon="1.82136">
        <ele>89</ele>
        <time>2015-11-30T12:27:06Z</time>
      </trkpt>
      <trkpt lat="49.26137" lon="1.82122">
        <ele>89</ele>
        <time>2015-11-30T12:29:06Z</time>
      </trkpt>
      <trkpt lat="49.26129" lon="1.82106">
        <ele>88</ele>
        <time>2015-11-30T12:31:06Z</time>
      </trkpt>
      <trkpt lat="49.26122" lon="1.82093">
        <ele>87</ele>
        <time>2015-11-30T12:33:06Z</time>
      </trkpt>
      <trkpt lat="49.26114" lon="1.82079">
        <ele>86</ele>
        <time>2015-11-30T12:35:06Z</time>
      </trkpt>
      <trkpt lat="49.26099" lon="1.8205">
        <ele>85</ele>
        <time>2015-11-30T12:37:06Z</time>
      </trkpt>
      <trkpt lat="49.26085" lon="1.82022">
        <ele>83</ele>
        <time>2015-11-30T12:39:06Z</time>
      </trkpt>
      <trkpt lat="49.2608" lon="1.82008">
        <ele>83</ele>
        <time>2015-11-30T12:41:06Z</time>
      </trkpt>
      <trkpt lat="49.26073" lon="1.81993">
        <ele>83</ele>
        <time>2015-11-30T12:43:06Z</time>
      </trkpt>
      <trkpt lat="49.26068" lon="1.81976">
        <ele>82</ele>
        <time>2015-11-30T12:45:06Z</time>
      </trkpt>
      <trkpt lat="49.26065" lon="1.81956">
        <ele>81</ele>
        <time>2015-11-30T12:47:06Z</time>
      </trkpt>
      <trkpt lat="49.26064" lon="1.81939">
        <ele>79</ele>
        <time>2015-11-30T12:49:06Z</time>
      </trkpt>
      <trkpt lat="49.26063" lon="1.81923">
        <ele>78</ele>
        <time>2015-11-30T12:51:06Z</time>
      </trkpt>
      <trkpt lat="49.26061" lon="1.81909">
        <ele>77</ele>
        <time>2015-11-30T12:53:06Z</time>
      </trkpt>
      <trkpt lat="49.26051" lon="1.81901">
        <ele>77</ele>
        <time>2015-11-30T12:55:06Z</time>
      </trkpt>
      <trkpt lat="49.26042" lon="1.81898">
        <ele>77</ele>
        <time>2015-11-30T12:57:06Z</time>
      </trkpt>
      <trkpt lat="49.2603" lon="1.81893">
        <ele>77</ele>
        <time>2015-11-30T12:59:06Z</time>
      </trkpt>
      <trkpt lat="49.26021" lon="1.8189">
        <ele>77</ele>
        <time>2015-11-30T13:01:06Z</time>
      </trkpt>
      <trkpt lat="49.26012" lon="1.81887">
        <ele>77</ele>
        <time>2015-11-30T13:03:06Z</time>
      </trkpt>
      <trkpt lat="49.26002" lon="1.81887">
        <ele>77</ele>
        <time>2015-11-30T13:05:06Z</time>
      </trkpt>
      <trkpt lat="49.25991" lon="1.81891">
        <ele>78</ele>
        <time>2015-11-30T13:07:06Z</time>
      </trkpt>
      <trkpt lat="49.25982" lon="1.81893">
        <ele>78</ele>
        <time>2015-11-30T13:09:06Z</time>
      </trkpt>
      <trkpt lat="49.25971" lon="1.81898">
        <ele>78</ele>
        <time>2015-11-30T13:11:06Z</time>
      </trkpt>
      <trkpt lat="49.2596" lon="1.81907">
        <ele>79</ele>
        <time>2015-11-30T13:13:06Z</time>
      </trkpt>
      <trkpt lat="49.25954" lon="1.81918">
        <ele>80</ele>
        <time>2015-11-30T13:15:06Z</time>
      </trkpt>
      <trkpt lat="49.25947" lon="1.8193">
        <ele>81</ele>
        <time>2015-11-30T13:17:06Z</time>
      </trkpt>
      <trkpt lat="49.25942" lon="1.81942">
        <ele>82</ele>
        <time>2015-11-30T13:19:06Z</time>
      </trkpt>
      <trkpt lat="49.25936" lon="1.81953">
        <ele>83</ele>
        <time>2015-11-30T13:21:06Z</time>
      </trkpt>
      <trkpt lat="49.25929" lon="1.81964">
        <ele>83</ele>
        <time>2015-11-30T13:23:06Z</time>
      </trkpt>
      <trkpt lat="49.25923" lon="1.81975">
        <ele>84</ele>
        <time>2015-11-30T13:25:06Z</time>
      </trkpt>
      <trkpt lat="49.25917" lon="1.81988">
        <ele>85</ele>
        <time>2015-11-30T13:27:06Z</time>
      </trkpt>
      <trkpt lat="49.2591" lon="1.82001">
        <ele>86</ele>
        <time>2015-11-30T13:29:06Z</time>
      </trkpt>
      <trkpt lat="49.25903" lon="1.82012">
        <ele>86</ele>
        <time>2015-11-30T13:31:06Z</time>
      </trkpt>
      <trkpt lat="49.25887" lon="1.82034">
        <ele>88</ele>
        <time>2015-11-30T13:33:06Z</time>
      </trkpt>
      <trkpt lat="49.2588" lon="1.82042">
        <ele>88</ele>
        <time>2015-11-30T13:35:06Z</time>
      </trkpt>
      <trkpt lat="49.25866" lon="1.8206">
        <ele>90</ele>
        <time>2015-11-30T13:37:06Z</time>
      </trkpt>
      <trkpt lat="49.25858" lon="1.82068">
        <ele>90</ele>
        <time>2015-11-30T13:39:06Z</time>
      </trkpt>
      <trkpt lat="49.25849" lon="1.82075">
        <ele>91</ele>
        <time>2015-11-30T13:41:06Z</time>
      </trkpt>
      <trkpt lat="49.2584" lon="1.82082">
        <ele>91</ele>
        <time>2015-11-30T13:43:06Z</time>
      </trkpt>
      <trkpt lat="49.25832" lon="1.82087">
        <ele>91</ele>
        <time>2015-11-30T13:45:06Z</time>
      </trkpt>
      <trkpt lat="49.25813" lon="1.82097">
        <ele>91</ele>
        <time>2015-11-30T13:47:06Z</time>
      </trkpt>
      <trkpt lat="49.25795" lon="1.8211">
        <ele>91</ele>
        <time>2015-11-30T13:49:06Z</time>
      </trkpt>
      <trkpt lat="49.25787" lon="1.82116">
        <ele>91</ele>
        <time>2015-11-30T13:51:06Z</time>
      </trkpt>
      <trkpt lat="49.25778" lon="1.82123">
        <ele>91</ele>
        <time>2015-11-30T13:53:06Z</time>
      </trkpt>
      <trkpt lat="49.25772" lon="1.82133">
        <ele>91</ele>
        <time>2015-11-30T13:55:06Z</time>
      </trkpt>
      <trkpt lat="49.25757" lon="1.8215">
        <ele>92</ele>
        <time>2015-11-30T13:57:06Z</time>
      </trkpt>
      <trkpt lat="49.25749" lon="1.82157">
        <ele>92</ele>
        <time>2015-11-30T13:59:06Z</time>
      </trkpt>
      <trkpt lat="49.25742" lon="1.82168">
        <ele>93</ele>
        <time>2015-11-30T14:01:06Z</time>
      </trkpt>
      <trkpt lat="49.25735" lon="1.82177">
        <ele>93</ele>
        <time>2015-11-30T14:03:06Z</time>
      </trkpt>
      <trkpt lat="49.25729" lon="1.82188">
        <ele>94</ele>
        <time>2015-11-30T14:05:06Z</time>
      </trkpt>
      <trkpt lat="49.25722" lon="1.82198">
        <ele>95</ele>
        <time>2015-11-30T14:07:06Z</time>
      </trkpt>
      <trkpt lat="49.25715" lon="1.82207">
        <ele>95</ele>
        <time>2015-11-30T14:09:06Z</time>
      </trkpt>
      <trkpt lat="49.25709" lon="1.82217">
        <ele>96</ele>
        <time>2015-11-30T14:11:06Z</time>
      </trkpt>
      <trkpt lat="49.25696" lon="1.82239">
        <ele>97</ele>
        <time>2015-11-30T14:13:06Z</time>
      </trkpt>
      <trkpt lat="49.25691" lon="1.82251">
        <ele>98</ele>
        <time>2015-11-30T14:15:06Z</time>
      </trkpt>
      <trkpt lat="49.25686" lon="1.82263">
        <ele>98</ele>
        <time>2015-11-30T14:17:06Z</time>
      </trkpt>
      <trkpt lat="49.25683" lon="1.82278">
        <ele>100</ele>
        <time>2015-11-30T14:19:06Z</time>
      </trkpt>
      <trkpt lat="49.25677" lon="1.82308">
        <ele>102</ele>
        <time>2015-11-30T14:21:06Z</time>
      </trkpt>
      <trkpt lat="49.25672" lon="1.82323">
        <ele>103</ele>
        <time>2015-11-30T14:23:06Z</time>
      </trkpt>
      <trkpt lat="49.25669" lon="1.82337">
        <ele>104</ele>
        <time>2015-11-30T14:25:06Z</time>
      </trkpt>
      <trkpt lat="49.25667" lon="1.82353">
        <ele>106</ele>
        <time>2015-11-30T14:27:06Z</time>
      </trkpt>
      <trkpt lat="49.25666" lon="1.82367">
        <ele>107</ele>
        <time>2015-11-30T14:29:06Z</time>
      </trkpt>
      <trkpt lat="49.25668" lon="1.82397">
        <ele>112</ele>
        <time>2015-11-30T14:31:06Z</time>
      </trkpt>
      <trkpt lat="49.25669" lon="1.82413">
        <ele>114</ele>
        <time>2015-11-30T14:33:06Z</time>
      </trkpt>
      <trkpt lat="49.25669" lon="1.82429">
        <ele>115</ele>
        <time>2015-11-30T14:35:06Z</time>
      </trkpt>
      <trkpt lat="49.25671" lon="1.82443">
        <ele>116</ele>
        <time>2015-11-30T14:37:06Z</time>
      </trkpt>
      <trkpt lat="49.25674" lon="1.82458">
        <ele>117</ele>
        <time>2015-11-30T14:39:06Z</time>
      </trkpt>
      <trkpt lat="49.25674" lon="1.82473">
        <ele>118</ele>
        <time>2015-11-30T14:41:06Z</time>
      </trkpt>
      <trkpt lat="49.25676" lon="1.82488">
        <ele>119</ele>
        <time>2015-11-30T14:43:06Z</time>
      </trkpt>
      <trkpt lat="49.25677" lon="1.82504">
        <ele>120</ele>
        <time>2015-11-30T14:45:06Z</time>
      </trkpt>
      <trkpt lat="49.25679" lon="1.82519">
        <ele>120</ele>
        <time>2015-11-30T14:47:06Z</time>
      </trkpt>
      <trkpt lat="49.25678" lon="1.82534">
        <ele>120</ele>
        <time>2015-11-30T14:49:06Z</time>
      </trkpt>
      <trkpt lat="49.2568" lon="1.8255">
        <ele>121</ele>
        <time>2015-11-30T14:51:06Z</time>
      </trkpt>
      <trkpt lat="49.25683" lon="1.82566">
        <ele>121</ele>
        <time>2015-11-30T14:53:06Z</time>
      </trkpt>
      <trkpt lat="49.25685" lon="1.82582">
        <ele>122</ele>
        <time>2015-11-30T14:55:06Z</time>
      </trkpt>
      <trkpt lat="49.25687" lon="1.82598">
        <ele>123</ele>
        <time>2015-11-30T14:57:06Z</time>
      </trkpt>
      <trkpt lat="49.2569" lon="1.82613">
        <ele>124</ele>
        <time>2015-11-30T14:59:06Z</time>
      </trkpt>
      <trkpt lat="49.25693" lon="1.82629">
        <ele>125</ele>
        <time>2015-11-30T15:01:06Z</time>
      </trkpt>
      <trkpt lat="49.25694" lon="1.82644">
        <ele>126</ele>
        <time>2015-11-30T15:03:06Z</time>
      </trkpt>
      <trkpt lat="49.25697" lon="1.82659">
        <ele>126</ele>
        <time>2015-11-30T15:05:06Z</time>
      </trkpt>
      <trkpt lat="49.25692" lon="1.82673">
        <ele>127</ele>
        <time>2015-11-30T15:07:06Z</time>
      </trkpt>
      <trkpt lat="49.25682" lon="1.8268">
        <ele>127</ele>
        <time>2015-11-30T15:09:06Z</time>
      </trkpt>
      <trkpt lat="49.2567" lon="1.82686">
        <ele>127</ele>
        <time>2015-11-30T15:11:06Z</time>
      </trkpt>
      <trkpt lat="49.25651" lon="1.82698">
        <ele>127</ele>
        <time>2015-11-30T15:13:06Z</time>
      </trkpt>
      <trkpt lat="49.2564" lon="1.82703">
        <ele>126</ele>
        <time>2015-11-30T15:15:06Z</time>
      </trkpt>
      <trkpt lat="49.25629" lon="1.82706">
        <ele>126</ele>
        <time>2015-11-30T15:17:06Z</time>
      </trkpt>
      <trkpt lat="49.25618" lon="1.8271">
        <ele>126</ele>
        <time>2015-11-30T15:19:06Z</time>
      </trkpt>
      <trkpt lat="49.25609" lon="1.82715">
        <ele>126</ele>
        <time>2015-11-30T15:21:06Z</time>
      </trkpt>
      <trkpt lat="49.25588" lon="1.82726">
        <ele>125</ele>
        <time>2015-11-30T15:23:06Z</time>
      </trkpt>
      <trkpt lat="49.2557" lon="1.82737">
        <ele>125</ele>
        <time>2015-11-30T15:25:06Z</time>
      </trkpt>
      <trkpt lat="49.25559" lon="1.82743">
        <ele>125</ele>
        <time>2015-11-30T15:27:06Z</time>
      </trkpt>
      <trkpt lat="49.25548" lon="1.82748">
        <ele>125</ele>
        <time>2015-11-30T15:29:06Z</time>
      </trkpt>
      <trkpt lat="49.25538" lon="1.82754">
        <ele>124</ele>
        <time>2015-11-30T15:31:06Z</time>
      </trkpt>
      <trkpt lat="49.25528" lon="1.82757">
        <ele>124</ele>
        <time>2015-11-30T15:33:06Z</time>
      </trkpt>
      <trkpt lat="49.25519" lon="1.82761">
        <ele>123</ele>
        <time>2015-11-30T15:35:06Z</time>
      </trkpt>
      <trkpt lat="49.2551" lon="1.82766">
        <ele>123</ele>
        <time>2015-11-30T15:37:06Z</time>
      </trkpt>
      <trkpt lat="49.255" lon="1.8277">
        <ele>122</ele>
        <time>2015-11-30T15:39:06Z</time>
      </trkpt>
      <trkpt lat="49.2549" lon="1.82776">
        <ele>122</ele>
        <time>2015-11-30T15:41:06Z</time>
      </trkpt>
      <trkpt lat="49.2548" lon="1.82781">
        <ele>122</ele>
        <time>2015-11-30T15:43:06Z</time>
      </trkpt>
      <trkpt lat="49.25461" lon="1.82799">
        <ele>121</ele>
        <time>2015-11-30T15:45:06Z</time>
      </trkpt>
      <trkpt lat="49.25451" lon="1.82807">
        <ele>121</ele>
        <time>2015-11-30T15:47:06Z</time>
      </trkpt>
      <trkpt lat="49.25442" lon="1.82816">
        <ele>122</ele>
        <time>2015-11-30T15:49:06Z</time>
      </trkpt>
      <trkpt lat="49.25414" lon="1.82842">
        <ele>122</ele>
        <time>2015-11-30T15:51:06Z</time>
      </trkpt>
      <trkpt lat="49.25404" lon="1.8285">
        <ele>122</ele>
        <time>2015-11-30T15:53:06Z</time>
      </trkpt>
      <trkpt lat="49.25385" lon="1.82867">
        <ele>122</ele>
        <time>2015-11-30T15:55:06Z</time>
      </trkpt>
      <trkpt lat="49.25367" lon="1.82885">
        <ele>122</ele>
        <time>2015-11-30T15:57:06Z</time>
      </trkpt>
      <trkpt lat="49.25348" lon="1.82901">
        <ele>122</ele>
        <time>2015-11-30T15:59:06Z</time>
      </trkpt>
      <trkpt lat="49.25339" lon="1.82909">
        <ele>122</ele>
        <time>2015-11-30T16:01:06Z</time>
      </trkpt>
      <trkpt lat="49.25311" lon="1.82936">
        <ele>121</ele>
        <time>2015-11-30T16:03:06Z</time>
      </trkpt>
      <trkpt lat="49.25303" lon="1.82947">
        <ele>121</ele>
        <time>2015-11-30T16:05:06Z</time>
      </trkpt>
      <trkpt lat="49.25286" lon="1.8297">
        <ele>121</ele>
        <time>2015-11-30T16:07:06Z</time>
      </trkpt>
      <trkpt lat="49.25276" lon="1.82981">
        <ele>121</ele>
        <time>2015-11-30T16:09:06Z</time>
      </trkpt>
      <trkpt lat="49.25266" lon="1.82992">
        <ele>121</ele>
        <time>2015-11-30T16:11:06Z</time>
      </trkpt>
      <trkpt lat="49.25257" lon="1.83">
        <ele>121</ele>
        <time>2015-11-30T16:13:06Z</time>
      </trkpt>
      <trkpt lat="49.25248" lon="1.83007">
        <ele>121</ele>
        <time>2015-11-30T16:15:06Z</time>
      </trkpt>
      <trkpt lat="49.25239" lon="1.83013">
        <ele>120</ele>
        <time>2015-11-30T16:17:06Z</time>
      </trkpt>
      <trkpt lat="49.2523" lon="1.83008">
        <ele>119</ele>
        <time>2015-11-30T16:19:06Z</time>
      </trkpt>
      <trkpt lat="49.25221" lon="1.83006">
        <ele>118</ele>
        <time>2015-11-30T16:21:06Z</time>
      </trkpt>
      <trkpt lat="49.25211" lon="1.83003">
        <ele>117</ele>
        <time>2015-11-30T16:23:06Z</time>
      </trkpt>
      <trkpt lat="49.25176" lon="1.82996">
        <ele>114</ele>
        <time>2015-11-30T16:25:06Z</time>
      </trkpt>
      <trkpt lat="49.25145" lon="1.82991">
        <ele>110</ele>
        <time>2015-11-30T16:27:06Z</time>
      </trkpt>
      <trkpt lat="49.25134" lon="1.82988">
        <ele>109</ele>
        <time>2015-11-30T16:29:06Z</time>
      </trkpt>
      <trkpt lat="49.25112" lon="1.82984">
        <ele>106</ele>
        <time>2015-11-30T16:31:06Z</time>
      </trkpt>
      <trkpt lat="49.25093" lon="1.82982">
        <ele>104</ele>
        <time>2015-11-30T16:33:06Z</time>
      </trkpt>
      <trkpt lat="49.25083" lon="1.8298">
        <ele>102</ele>
        <time>2015-11-30T16:35:06Z</time>
      </trkpt>
      <trkpt lat="49.25072" lon="1.82976">
        <ele>101</ele>
        <time>2015-11-30T16:37:06Z</time>
      </trkpt>
      <trkpt lat="49.25063" lon="1.82972">
        <ele>101</ele>
        <time>2015-11-30T16:39:06Z</time>
      </trkpt>
      <trkpt lat="49.25043" lon="1.82959">
        <ele>99</ele>
        <time>2015-11-30T16:41:06Z</time>
      </trkpt>
      <trkpt lat="49.25033" lon="1.82954">
        <ele>98</ele>
        <time>2015-11-30T16:43:06Z</time>
      </trkpt>
      <trkpt lat="49.25014" lon="1.8295">
        <ele>96</ele>
        <time>2015-11-30T16:45:06Z</time>
      </trkpt>
      <trkpt lat="49.25002" lon="1.8295">
        <ele>95</ele>
        <time>2015-11-30T16:47:06Z</time>
      </trkpt>
      <trkpt lat="49.24979" lon="1.82951">
        <ele>93</ele>
        <time>2015-11-30T16:49:06Z</time>
      </trkpt>
      <trkpt lat="49.24958" lon="1.8295">
        <ele>91</ele>
        <time>2015-11-30T16:51:06Z</time>
      </trkpt>
      <trkpt lat="49.24945" lon="1.8295">
        <ele>90</ele>
        <time>2015-11-30T16:53:06Z</time>
      </trkpt>
      <trkpt lat="49.24899" lon="1.82956">
        <ele>87</ele>
        <time>2015-11-30T16:55:06Z</time>
      </trkpt>
      <trkpt lat="49.24857" lon="1.8296">
        <ele>82</ele>
        <time>2015-11-30T16:57:06Z</time>
      </trkpt>
      <trkpt lat="49.24843" lon="1.82962">
        <ele>81</ele>
        <time>2015-11-30T16:59:06Z</time>
      </trkpt>
      <trkpt lat="49.24832" lon="1.82962">
        <ele>80</ele>
        <time>2015-11-30T17:01:06Z</time>
      </trkpt>
      <trkpt lat="49.24821" lon="1.82962">
        <ele>79</ele>
        <time>2015-11-30T17:03:06Z</time>
      </trkpt>
      <trkpt lat="49.24812" lon="1.82965">
        <ele>79</ele>
        <time>2015-11-30T17:05:06Z</time>
      </trkpt>
      <trkpt lat="49.24804" lon="1.82976">
        <ele>79</ele>
        <time>2015-11-30T17:07:06Z</time>
      </trkpt>
      <trkpt lat="49.24796" lon="1.82984">
        <ele>78</ele>
        <time>2015-11-30T17:09:06Z</time>
      </trkpt>
      <trkpt lat="49.24787" lon="1.82994">
        <ele>78</ele>
        <time>2015-11-30T17:11:06Z</time>
      </trkpt>
      <trkpt lat="49.24771" lon="1.83014">
        <ele>77</ele>
        <time>2015-11-30T17:13:06Z</time>
      </trkpt>
      <trkpt lat="49.24764" lon="1.83024">
        <ele>77</ele>
        <time>2015-11-30T17:15:06Z</time>
      </trkpt>
      <trkpt lat="49.24746" lon="1.83041">
        <ele>76</ele>
        <time>2015-11-30T17:17:06Z</time>
      </trkpt>
      <trkpt lat="49.24747" lon="1.83056">
        <ele>76</ele>
        <time>2015-11-30T17:19:06Z</time>
      </trkpt>
      <trkpt lat="49.24752" lon="1.83084">
        <ele>76</ele>
        <time>2015-11-30T17:21:06Z</time>
      </trkpt>
      <trkpt lat="49.24755" lon="1.83117">
        <ele>76</ele>
        <time>2015-11-30T17:23:06Z</time>
      </trkpt>
      <trkpt lat="49.24757" lon="1.83135">
        <ele>77</ele>
        <time>2015-11-30T17:25:06Z</time>
      </trkpt>
      <trkpt lat="49.24763" lon="1.83167">
        <ele>77</ele>
        <time>2015-11-30T17:27:06Z</time>
      </trkpt>
      <trkpt lat="49.24766" lon="1.83181">
        <ele>78</ele>
        <time>2015-11-30T17:29:06Z</time>
      </trkpt>
      <trkpt lat="49.24767" lon="1.83197">
        <ele>78</ele>
        <time>2015-11-30T17:31:06Z</time>
      </trkpt>
      <trkpt lat="49.24767" lon="1.83213">
        <ele>78</ele>
        <time>2015-11-30T17:33:06Z</time>
      </trkpt>
      <trkpt lat="49.24767" lon="1.83256">
        <ele>78</ele>
        <time>2015-11-30T17:35:06Z</time>
      </trkpt>
      <trkpt lat="49.24768" lon="1.83271">
        <ele>78</ele>
        <time>2015-11-30T17:37:06Z</time>
      </trkpt>
      <trkpt lat="49.24767" lon="1.83318">
        <ele>79</ele>
        <time>2015-11-30T17:39:06Z</time>
      </trkpt>
      <trkpt lat="49.24766" lon="1.83335">
        <ele>80</ele>
        <time>2015-11-30T17:41:06Z</time>
      </trkpt>
      <trkpt lat="49.24763" lon="1.83351">
        <ele>79</ele>
        <time>2015-11-30T17:43:06Z</time>
      </trkpt>
      <trkpt lat="49.24759" lon="1.83366">
        <ele>79</ele>
        <time>2015-11-30T17:45:06Z</time>
      </trkpt>
      <trkpt lat="49.24753" lon="1.83381">
        <ele>79</ele>
        <time>2015-11-30T17:47:06Z</time>
      </trkpt>
      <trkpt lat="49.24746" lon="1.83397">
        <ele>79</ele>
        <time>2015-11-30T17:49:06Z</time>
      </trkpt>
      <trkpt lat="49.24739" lon="1.83411">
        <ele>79</ele>
        <time>2015-11-30T17:51:06Z</time>
      </trkpt>
      <trkpt lat="49.24733" lon="1.83425">
        <ele>80</ele>
        <time>2015-11-30T17:53:06Z</time>
      </trkpt>
      <trkpt lat="49.2473" lon="1.83441">
        <ele>80</ele>
        <time>2015-11-30T17:55:06Z</time>
      </trkpt>
      <trkpt lat="49.24725" lon="1.83474">
        <ele>80</ele>
        <time>2015-11-30T17:57:06Z</time>
      </trkpt>
      <trkpt lat="49.24723" lon="1.83506">
        <ele>80</ele>
        <time>2015-11-30T17:59:06Z</time>
      </trkpt>
      <trkpt lat="49.24722" lon="1.83523">
        <ele>79</ele>
        <time>2015-11-30T18:01:06Z</time>
      </trkpt>
      <trkpt lat="49.24723" lon="1.83537">
        <ele>79</ele>
        <time>2015-11-30T18:03:06Z</time>
      </trkpt>
      <trkpt lat="49.24723" lon="1.83552">
        <ele>79</ele>
        <time>2015-11-30T18:05:06Z</time>
      </trkpt>
      <trkpt lat="49.24713" lon="1.83554">
        <ele>80</ele>
        <time>2015-11-30T18:07:06Z</time>
      </trkpt>
      <trkpt lat="49.24703" lon="1.83549">
        <ele>81</ele>
        <time>2015-11-30T18:09:06Z</time>
      </trkpt>
      <trkpt lat="49.24696" lon="1.83539">
        <ele>81</ele>
        <time>2015-11-30T18:11:06Z</time>
      </trkpt>
      <trkpt lat="49.24687" lon="1.83534">
        <ele>82</ele>
        <time>2015-11-30T18:13:06Z</time>
      </trkpt>
      <trkpt lat="49.24676" lon="1.83531">
        <ele>82</ele>
        <time>2015-11-30T18:15:06Z</time>
      </trkpt>
      <trkpt lat="49.24666" lon="1.83526">
        <ele>83</ele>
        <time>2015-11-30T18:17:06Z</time>
      </trkpt>
      <trkpt lat="49.24656" lon="1.83522">
        <ele>83</ele>
        <time>2015-11-30T18:19:06Z</time>
      </trkpt>
      <trkpt lat="49.24646" lon="1.83518">
        <ele>84</ele>
        <time>2015-11-30T18:21:06Z</time>
      </trkpt>
      <trkpt lat="49.24638" lon="1.83512">
        <ele>84</ele>
        <time>2015-11-30T18:23:06Z</time>
      </trkpt>
      <trkpt lat="49.2463" lon="1.835">
        <ele>84</ele>
        <time>2015-11-30T18:25:06Z</time>
      </trkpt>
      <trkpt lat="49.2462" lon="1.83492">
        <ele>84</ele>
        <time>2015-11-30T18:27:06Z</time>
      </trkpt>
      <trkpt lat="49.2461" lon="1.83487">
        <ele>84</ele>
        <time>2015-11-30T18:29:06Z</time>
      </trkpt>
      <trkpt lat="49.246" lon="1.83484">
        <ele>84</ele>
        <time>2015-11-30T18:31:06Z</time>
      </trkpt>
      <trkpt lat="49.24595" lon="1.83496">
        <ele>85</ele>
        <time>2015-11-30T18:33:06Z</time>
      </trkpt>
      <trkpt lat="49.24593" lon="1.83509">
        <ele>85</ele>
        <time>2015-11-30T18:35:06Z</time>
      </trkpt>
      <trkpt lat="49.24581" lon="1.8355">
        <ele>88</ele>
        <time>2015-11-30T18:37:06Z</time>
      </trkpt>
      <trkpt lat="49.24576" lon="1.83565">
        <ele>89</ele>
        <time>2015-11-30T18:39:06Z</time>
      </trkpt>
      <trkpt lat="49.24562" lon="1.83604">
        <ele>90</ele>
        <time>2015-11-30T18:41:06Z</time>
      </trkpt>
      <trkpt lat="49.24559" lon="1.83618">
        <ele>90</ele>
        <time>2015-11-30T18:43:06Z</time>
      </trkpt>
      <trkpt lat="49.24555" lon="1.83635">
        <ele>90</ele>
        <time>2015-11-30T18:45:06Z</time>
      </trkpt>
      <trkpt lat="49.24551" lon="1.8365">
        <ele>90</ele>
        <time>2015-11-30T18:47:06Z</time>
      </trkpt>
      <trkpt lat="49.24548" lon="1.83664">
        <ele>90</ele>
        <time>2015-11-30T18:49:06Z</time>
      </trkpt>
      <trkpt lat="49.24547" lon="1.83693">
        <ele>89</ele>
        <time>2015-11-30T18:51:06Z</time>
      </trkpt>
      <trkpt lat="49.24544" lon="1.83708">
        <ele>88</ele>
        <time>2015-11-30T18:53:06Z</time>
      </trkpt>
      <trkpt lat="49.2454" lon="1.83722">
        <ele>88</ele>
        <time>2015-11-30T18:55:06Z</time>
      </trkpt>
      <trkpt lat="49.24537" lon="1.83735">
        <ele>88</ele>
        <time>2015-11-30T18:57:06Z</time>
      </trkpt>
      <trkpt lat="49.24536" lon="1.83751">
        <ele>88</ele>
        <time>2015-11-30T18:59:06Z</time>
      </trkpt>
      <trkpt lat="49.24537" lon="1.83766">
        <ele>87</ele>
        <time>2015-11-30T19:01:06Z</time>
      </trkpt>
      <trkpt lat="49.24551" lon="1.83802">
        <ele>85</ele>
        <time>2015-11-30T19:03:06Z</time>
      </trkpt>
      <trkpt lat="49.24558" lon="1.83815">
        <ele>85</ele>
        <time>2015-11-30T19:05:06Z</time>
      </trkpt>
      <trkpt lat="49.24563" lon="1.83826">
        <ele>84</ele>
        <time>2015-11-30T19:07:06Z</time>
      </trkpt>
      <trkpt lat="49.24568" lon="1.83839">
        <ele>84</ele>
        <time>2015-11-30T19:09:06Z</time>
      </trkpt>
      <trkpt lat="49.24572" lon="1.83853">
        <ele>85</ele>
        <time>2015-11-30T19:11:06Z</time>
      </trkpt>
      <trkpt lat="49.24576" lon="1.83866">
        <ele>85</ele>
        <time>2015-11-30T19:13:06Z</time>
      </trkpt>
      <trkpt lat="49.24579" lon="1.8388">
        <ele>86</ele>
        <time>2015-11-30T19:15:06Z</time>
      </trkpt>
      <trkpt lat="49.24583" lon="1.83894">
        <ele>86</ele>
        <time>2015-11-30T19:17:06Z</time>
      </trkpt>
      <trkpt lat="49.24587" lon="1.83908">
        <ele>86</ele>
        <time>2015-11-30T19:19:06Z</time>
      </trkpt>
      <trkpt lat="49.24594" lon="1.83937">
        <ele>87</ele>
        <time>2015-11-30T19:21:06Z</time>
      </trkpt>
      <trkpt lat="49.24601" lon="1.83964">
        <ele>88</ele>
        <time>2015-11-30T19:23:06Z</time>
      </trkpt>
      <trkpt lat="49.24595" lon="1.83975">
        <ele>89</ele>
        <time>2015-11-30T19:25:06Z</time>
      </trkpt>
      <trkpt lat="49.24581" lon="1.83993">
        <ele>91</ele>
        <time>2015-11-30T19:27:06Z</time>
      </trkpt>
      <trkpt lat="49.24566" lon="1.84014">
        <ele>93</ele>
        <time>2015-11-30T19:29:06Z</time>
      </trkpt>
      <trkpt lat="49.24559" lon="1.84025">
        <ele>94</ele>
        <time>2015-11-30T19:31:06Z</time>
      </trkpt>
      <trkpt lat="49.24552" lon="1.84035">
        <ele>95</ele>
        <time>2015-11-30T19:33:06Z</time>
      </trkpt>
      <trkpt lat="49.24542" lon="1.84031">
        <ele>96</ele>
        <time>2015-11-30T19:35:06Z</time>
      </trkpt>
      <trkpt lat="49.24533" lon="1.84022">
        <ele>96</ele>
        <time>2015-11-30T19:37:06Z</time>
      </trkpt>
      <trkpt lat="49.24524" lon="1.84013">
        <ele>97</ele>
        <time>2015-11-30T19:39:06Z</time>
      </trkpt>
      <trkpt lat="49.24508" lon="1.83996">
        <ele>97</ele>
        <time>2015-11-30T19:41:06Z</time>
      </trkpt>
      <trkpt lat="49.24491" lon="1.83978">
        <ele>98</ele>
        <time>2015-11-30T19:43:06Z</time>
      </trkpt>
      <trkpt lat="49.24473" lon="1.8396">
        <ele>100</ele>
        <time>2015-11-30T19:45:06Z</time>
      </trkpt>
      <trkpt lat="49.24458" lon="1.83944">
        <ele>101</ele>
        <time>2015-11-30T19:47:06Z</time>
      </trkpt>
      <trkpt lat="49.24451" lon="1.83936">
        <ele>102</ele>
        <time>2015-11-30T19:49:06Z</time>
      </trkpt>
      <trkpt lat="49.24444" lon="1.83926">
        <ele>103</ele>
        <time>2015-11-30T19:51:06Z</time>
      </trkpt>
      <trkpt lat="49.24437" lon="1.83915">
        <ele>103</ele>
        <time>2015-11-30T19:53:06Z</time>
      </trkpt>
      <trkpt lat="49.2443" lon="1.83904">
        <ele>104</ele>
        <time>2015-11-30T19:55:06Z</time>
      </trkpt>
      <trkpt lat="49.24424" lon="1.83891">
        <ele>105</ele>
        <time>2015-11-30T19:57:06Z</time>
      </trkpt>
      <trkpt lat="49.24418" lon="1.83879">
        <ele>105</ele>
        <time>2015-11-30T19:59:06Z</time>
      </trkpt>
      <trkpt lat="49.24404" lon="1.83838">
        <ele>105</ele>
        <time>2015-11-30T20:01:06Z</time>
      </trkpt>
      <trkpt lat="49.24399" lon="1.83822">
        <ele>106</ele>
        <time>2015-11-30T20:03:06Z</time>
      </trkpt>
      <trkpt lat="49.24383" lon="1.8378">
        <ele>107</ele>
        <time>2015-11-30T20:05:06Z</time>
      </trkpt>
      <trkpt lat="49.24375" lon="1.83751">
        <ele>109</ele>
        <time>2015-11-30T20:07:06Z</time>
      </trkpt>
      <trkpt lat="49.24372" lon="1.83736">
        <ele>109</ele>
        <time>2015-11-30T20:09:06Z</time>
      </trkpt>
      <trkpt lat="49.2437" lon="1.8372">
        <ele>110</ele>
        <time>2015-11-30T20:11:06Z</time>
      </trkpt>
      <trkpt lat="49.24369" lon="1.83704">
        <ele>111</ele>
        <time>2015-11-30T20:13:06Z</time>
      </trkpt>
      <trkpt lat="49.24366" lon="1.83671">
        <ele>113</ele>
        <time>2015-11-30T20:15:06Z</time>
      </trkpt>
      <trkpt lat="49.24362" lon="1.83622">
        <ele>113</ele>
        <time>2015-11-30T20:17:06Z</time>
      </trkpt>
      <trkpt lat="49.24359" lon="1.83587">
        <ele>113</ele>
        <time>2015-11-30T20:19:06Z</time>
      </trkpt>
      <trkpt lat="49.24357" lon="1.8357">
        <ele>113</ele>
        <time>2015-11-30T20:21:06Z</time>
      </trkpt>
      <trkpt lat="49.24357" lon="1.83554">
        <ele>113</ele>
        <time>2015-11-30T20:23:06Z</time>
      </trkpt>
      <trkpt lat="49.24348" lon="1.83553">
        <ele>114</ele>
        <time>2015-11-30T20:25:06Z</time>
      </trkpt>
      <trkpt lat="49.24345" lon="1.83569">
        <ele>115</ele>
        <time>2015-11-30T20:27:06Z</time>
      </trkpt>
      <trkpt lat="49.24341" lon="1.83583">
        <ele>117</ele>
        <time>2015-11-30T20:29:06Z</time>
      </trkpt>
      <trkpt lat="49.24334" lon="1.83609">
        <ele>118</ele>
        <time>2015-11-30T20:31:06Z</time>
      </trkpt>
      <trkpt lat="49.24324" lon="1.83614">
        <ele>120</ele>
        <time>2015-11-30T20:33:06Z</time>
      </trkpt>
      <trkpt lat="49.24304" lon="1.83613">
        <ele>123</ele>
        <time>2015-11-30T20:35:06Z</time>
      </trkpt>
      <trkpt lat="49.24296" lon="1.83606">
        <ele>124</ele>
        <time>2015-11-30T20:37:06Z</time>
      </trkpt>
      <trkpt lat="49.24288" lon="1.836">
        <ele>125</ele>
        <time>2015-11-30T20:39:06Z</time>
      </trkpt>
      <trkpt lat="49.24278" lon="1.83599">
        <ele>126</ele>
        <time>2015-11-30T20:41:06Z</time>
      </trkpt>
      <trkpt lat="49.24272" lon="1.83586">
        <ele>127</ele>
        <time>2015-11-30T20:43:06Z</time>
      </trkpt>
      <trkpt lat="49.24263" lon="1.83578">
        <ele>128</ele>
        <time>2015-11-30T20:45:06Z</time>
      </trkpt>
      <trkpt lat="49.24254" lon="1.83574">
        <ele>129</ele>
        <time>2015-11-30T20:47:06Z</time>
      </trkpt>
      <trkpt lat="49.24245" lon="1.83568">
        <ele>129</ele>
        <time>2015-11-30T20:49:06Z</time>
      </trkpt>
      <trkpt lat="49.24237" lon="1.83562">
        <ele>129</ele>
        <time>2015-11-30T20:51:06Z</time>
      </trkpt>
      <trkpt lat="49.2422" lon="1.83543">
        <ele>129</ele>
        <time>2015-11-30T20:53:06Z</time>
      </trkpt>
      <trkpt lat="49.24212" lon="1.83535">
        <ele>129</ele>
        <time>2015-11-30T20:55:06Z</time>
      </trkpt>
      <trkpt lat="49.24204" lon="1.83529">
        <ele>129</ele>
        <time>2015-11-30T20:57:06Z</time>
      </trkpt>
      <trkpt lat="49.24194" lon="1.83525">
        <ele>129</ele>
        <time>2015-11-30T20:59:06Z</time>
      </trkpt>
      <trkpt lat="49.24185" lon="1.83523">
        <ele>129</ele>
        <time>2015-11-30T21:01:06Z</time>
      </trkpt>
      <trkpt lat="49.24176" lon="1.83529">
        <ele>130</ele>
        <time>2015-11-30T21:03:06Z</time>
      </trkpt>
      <trkpt lat="49.24166" lon="1.83526">
        <ele>131</ele>
        <time>2015-11-30T21:05:06Z</time>
      </trkpt>
      <trkpt lat="49.24157" lon="1.83521">
        <ele>131</ele>
        <time>2015-11-30T21:07:06Z</time>
      </trkpt>
      <trkpt lat="49.24148" lon="1.8352">
        <ele>131</ele>
        <time>2015-11-30T21:09:06Z</time>
      </trkpt>
      <trkpt lat="49.24139" lon="1.83512">
        <ele>131</ele>
        <time>2015-11-30T21:11:06Z</time>
      </trkpt>
      <trkpt lat="49.24128" lon="1.83508">
        <ele>131</ele>
        <time>2015-11-30T21:13:06Z</time>
      </trkpt>
      <trkpt lat="49.24119" lon="1.83507">
        <ele>131</ele>
        <time>2015-11-30T21:15:06Z</time>
      </trkpt>
      <trkpt lat="49.2411" lon="1.83511">
        <ele>132</ele>
        <time>2015-11-30T21:17:06Z</time>
      </trkpt>
      <trkpt lat="49.24101" lon="1.83511">
        <ele>133</ele>
        <time>2015-11-30T21:19:06Z</time>
      </trkpt>
      <trkpt lat="49.24092" lon="1.83505">
        <ele>132</ele>
        <time>2015-11-30T21:21:06Z</time>
      </trkpt>
      <trkpt lat="49.24072" lon="1.83514">
        <ele>134</ele>
        <time>2015-11-30T21:23:06Z</time>
      </trkpt>
      <trkpt lat="49.24061" lon="1.83519">
        <ele>135</ele>
        <time>2015-11-30T21:25:06Z</time>
      </trkpt>
      <trkpt lat="49.24051" lon="1.83521">
        <ele>135</ele>
        <time>2015-11-30T21:27:06Z</time>
      </trkpt>
      <trkpt lat="49.24047" lon="1.83508">
        <ele>134</ele>
        <time>2015-11-30T21:29:06Z</time>
      </trkpt>
      <trkpt lat="49.24037" lon="1.83505">
        <ele>134</ele>
        <time>2015-11-30T21:31:06Z</time>
      </trkpt>
      <trkpt lat="49.24028" lon="1.83512">
        <ele>135</ele>
        <time>2015-11-30T21:33:06Z</time>
      </trkpt>
      <trkpt lat="49.24018" lon="1.83519">
        <ele>135</ele>
        <time>2015-11-30T21:35:06Z</time>
      </trkpt>
      <trkpt lat="49.24007" lon="1.83516">
        <ele>135</ele>
        <time>2015-11-30T21:37:06Z</time>
      </trkpt>
      <trkpt lat="49.23999" lon="1.83525">
        <ele>136</ele>
        <time>2015-11-30T21:39:06Z</time>
      </trkpt>
      <trkpt lat="49.23991" lon="1.83532">
        <ele>137</ele>
        <time>2015-11-30T21:41:06Z</time>
      </trkpt>
      <trkpt lat="49.23982" lon="1.83537">
        <ele>137</ele>
        <time>2015-11-30T21:43:06Z</time>
      </trkpt>
      <trkpt lat="49.23976" lon="1.83549">
        <ele>138</ele>
        <time>2015-11-30T21:45:06Z</time>
      </trkpt>
      <trkpt lat="49.23966" lon="1.83555">
        <ele>138</ele>
        <time>2015-11-30T21:47:06Z</time>
      </trkpt>
      <trkpt lat="49.2396" lon="1.83568">
        <ele>139</ele>
        <time>2015-11-30T21:49:06Z</time>
      </trkpt>
      <trkpt lat="49.23947" lon="1.83588">
        <ele>140</ele>
        <time>2015-11-30T21:51:06Z</time>
      </trkpt>
      <trkpt lat="49.23936" lon="1.83591">
        <ele>140</ele>
        <time>2015-11-30T21:53:06Z</time>
      </trkpt>
      <trkpt lat="49.23926" lon="1.83593">
        <ele>140</ele>
        <time>2015-11-30T21:55:06Z</time>
      </trkpt>
      <trkpt lat="49.23916" lon="1.83595">
        <ele>139</ele>
        <time>2015-11-30T21:57:06Z</time>
      </trkpt>
      <trkpt lat="49.23905" lon="1.83595">
        <ele>139</ele>
        <time>2015-11-30T21:59:06Z</time>
      </trkpt>
      <trkpt lat="49.23895" lon="1.83597">
        <ele>139</ele>
        <time>2015-11-30T22:01:06Z</time>
      </trkpt>
      <trkpt lat="49.23884" lon="1.83597">
        <ele>139</ele>
        <time>2015-11-30T22:03:06Z</time>
      </trkpt>
      <trkpt lat="49.23875" lon="1.83604">
        <ele>139</ele>
        <time>2015-11-30T22:05:06Z</time>
      </trkpt>
      <trkpt lat="49.23867" lon="1.83613">
        <ele>139</ele>
        <time>2015-11-30T22:07:06Z</time>
      </trkpt>
      <trkpt lat="49.23848" lon="1.83625">
        <ele>140</ele>
        <time>2015-11-30T22:09:06Z</time>
      </trkpt>
      <trkpt lat="49.2384" lon="1.83633">
        <ele>140</ele>
        <time>2015-11-30T22:11:06Z</time>
      </trkpt>
      <trkpt lat="49.23831" lon="1.83638">
        <ele>140</ele>
        <time>2015-11-30T22:13:06Z</time>
      </trkpt>
      <trkpt lat="49.23822" lon="1.83642">
        <ele>141</ele>
        <time>2015-11-30T22:15:06Z</time>
      </trkpt>
      <trkpt lat="49.23812" lon="1.83643">
        <ele>141</ele>
        <time>2015-11-30T22:17:06Z</time>
      </trkpt>
      <trkpt lat="49.23803" lon="1.83641">
        <ele>141</ele>
        <time>2015-11-30T22:19:06Z</time>
      </trkpt>
      <trkpt lat="49.23794" lon="1.83643">
        <ele>142</ele>
        <time>2015-11-30T22:21:06Z</time>
      </trkpt>
      <trkpt lat="49.23785" lon="1.83648">
        <ele>142</ele>
        <time>2015-11-30T22:23:06Z</time>
      </trkpt>
      <trkpt lat="49.23775" lon="1.83645">
        <ele>142</ele>
        <time>2015-11-30T22:25:06Z</time>
      </trkpt>
      <trkpt lat="49.23767" lon="1.83652">
        <ele>143</ele>
        <time>2015-11-30T22:27:06Z</time>
      </trkpt>
      <trkpt lat="49.23758" lon="1.8366">
        <ele>144</ele>
        <time>2015-11-30T22:29:06Z</time>
      </trkpt>
      <trkpt lat="49.23748" lon="1.83663">
        <ele>145</ele>
        <time>2015-11-30T22:31:06Z</time>
      </trkpt>
      <trkpt lat="49.23741" lon="1.83672">
        <ele>145</ele>
        <time>2015-11-30T22:33:06Z</time>
      </trkpt>
      <trkpt lat="49.23723" lon="1.8369">
        <ele>145</ele>
        <time>2015-11-30T22:35:06Z</time>
      </trkpt>
      <trkpt lat="49.23715" lon="1.83698">
        <ele>145</ele>
        <time>2015-11-30T22:37:06Z</time>
      </trkpt>
      <trkpt lat="49.23707" lon="1.83709">
        <ele>145</ele>
        <time>2015-11-30T22:39:06Z</time>
      </trkpt>
      <trkpt lat="49.23698" lon="1.83718">
        <ele>145</ele>
        <time>2015-11-30T22:41:06Z</time>
      </trkpt>
      <trkpt lat="49.23689" lon="1.83724">
        <ele>145</ele>
        <time>2015-11-30T22:43:06Z</time>
      </trkpt>
      <trkpt lat="49.23679" lon="1.83731">
        <ele>145</ele>
        <time>2015-11-30T22:45:06Z</time>
      </trkpt>
      <trkpt lat="49.23668" lon="1.83738">
        <ele>146</ele>
        <time>2015-11-30T22:47:06Z</time>
      </trkpt>
      <trkpt lat="49.23659" lon="1.83745">
        <ele>146</ele>
        <time>2015-11-30T22:49:06Z</time>
      </trkpt>
      <trkpt lat="49.2365" lon="1.83756">
        <ele>146</ele>
        <time>2015-11-30T22:51:06Z</time>
      </trkpt>
      <trkpt lat="49.23634" lon="1.83775">
        <ele>146</ele>
        <time>2015-11-30T22:53:06Z</time>
      </trkpt>
      <trkpt lat="49.23623" lon="1.8378">
        <ele>146</ele>
        <time>2015-11-30T22:55:06Z</time>
      </trkpt>
      <trkpt lat="49.23616" lon="1.83794">
        <ele>146</ele>
        <time>2015-11-30T22:57:06Z</time>
      </trkpt>
      <trkpt lat="49.23607" lon="1.83805">
        <ele>146</ele>
        <time>2015-11-30T22:59:06Z</time>
      </trkpt>
      <trkpt lat="49.23599" lon="1.83816">
        <ele>146</ele>
        <time>2015-11-30T23:01:06Z</time>
      </trkpt>
      <trkpt lat="49.23591" lon="1.83826">
        <ele>146</ele>
        <time>2015-11-30T23:03:06Z</time>
      </trkpt>
      <trkpt lat="49.2358" lon="1.83827">
        <ele>146</ele>
        <time>2015-11-30T23:05:06Z</time>
      </trkpt>
      <trkpt lat="49.23571" lon="1.83835">
        <ele>146</ele>
        <time>2015-11-30T23:07:06Z</time>
      </trkpt>
      <trkpt lat="49.23564" lon="1.83846">
        <ele>145</ele>
        <time>2015-11-30T23:09:06Z</time>
      </trkpt>
      <trkpt lat="49.23557" lon="1.83856">
        <ele>145</ele>
        <time>2015-11-30T23:11:06Z</time>
      </trkpt>
      <trkpt lat="49.23549" lon="1.83865">
        <ele>145</ele>
        <time>2015-11-30T23:13:06Z</time>
      </trkpt>
      <trkpt lat="49.2354" lon="1.8387">
        <ele>145</ele>
        <time>2015-11-30T23:15:06Z</time>
      </trkpt>
      <trkpt lat="49.23531" lon="1.83874">
        <ele>145</ele>
        <time>2015-11-30T23:17:06Z</time>
      </trkpt>
      <trkpt lat="49.23522" lon="1.83878">
        <ele>144</ele>
        <time>2015-11-30T23:19:06Z</time>
      </trkpt>
      <trkpt lat="49.23513" lon="1.83885">
        <ele>144</ele>
        <time>2015-11-30T23:21:06Z</time>
      </trkpt>
      <trkpt lat="49.23503" lon="1.83889">
        <ele>144</ele>
        <time>2015-11-30T23:23:06Z</time>
      </trkpt>
      <trkpt lat="49.23493" lon="1.83894">
        <ele>144</ele>
        <time>2015-11-30T23:25:06Z</time>
      </trkpt>
      <trkpt lat="49.23484" lon="1.83899">
        <ele>144</ele>
        <time>2015-11-30T23:27:06Z</time>
      </trkpt>
      <trkpt lat="49.23475" lon="1.83902">
        <ele>143</ele>
        <time>2015-11-30T23:29:06Z</time>
      </trkpt>
      <trkpt lat="49.23464" lon="1.83909">
        <ele>143</ele>
        <time>2015-11-30T23:31:06Z</time>
      </trkpt>
      <trkpt lat="49.23453" lon="1.83913">
        <ele>143</ele>
        <time>2015-11-30T23:33:06Z</time>
      </trkpt>
      <trkpt lat="49.23444" lon="1.83914">
        <ele>143</ele>
        <time>2015-11-30T23:35:06Z</time>
      </trkpt>
      <trkpt lat="49.23423" lon="1.83917">
        <ele>143</ele>
        <time>2015-11-30T23:37:06Z</time>
      </trkpt>
      <trkpt lat="49.23413" lon="1.83918">
        <ele>143</ele>
        <time>2015-11-30T23:39:06Z</time>
      </trkpt>
      <trkpt lat="49.23402" lon="1.83923">
        <ele>143</ele>
        <time>2015-11-30T23:41:06Z</time>
      </trkpt>
      <trkpt lat="49.23393" lon="1.8393">
        <ele>144</ele>
        <time>2015-11-30T23:43:06Z</time>
      </trkpt>
      <trkpt lat="49.23383" lon="1.83934">
        <ele>144</ele>
        <time>2015-11-30T23:45:06Z</time>
      </trkpt>
      <trkpt lat="49.23373" lon="1.83935">
        <ele>144</ele>
        <time>2015-11-30T23:47:06Z</time>
      </trkpt>
      <trkpt lat="49.23363" lon="1.83935">
        <ele>144</ele>
        <time>2015-11-30T23:49:06Z</time>
      </trkpt>
      <trkpt lat="49.23353" lon="1.83932">
        <ele>144</ele>
        <time>2015-11-30T23:51:06Z</time>
      </trkpt>
      <trkpt lat="49.23344" lon="1.83925">
        <ele>144</ele>
        <time>2015-11-30T23:53:06Z</time>
      </trkpt>
      <trkpt lat="49.23336" lon="1.83915">
        <ele>144</ele>
        <time>2015-11-30T23:55:06Z</time>
      </trkpt>
      <trkpt lat="49.23328" lon="1.83908">
        <ele>143</ele>
        <time>2015-11-30T23:57:06Z</time>
      </trkpt>
      <trkpt lat="49.23321" lon="1.83898">
        <ele>142</ele>
        <time>2015-11-30T23:59:06Z</time>
      </trkpt>
      <trkpt lat="49.23312" lon="1.83888">
        <ele>141</ele>
        <time>2015-12-01T00:01:06Z</time>
      </trkpt>
      <trkpt lat="49.23302" lon="1.83879">
        <ele>140</ele>
        <time>2015-12-01T00:03:06Z</time>
      </trkpt>
      <trkpt lat="49.23295" lon="1.83868">
        <ele>139</ele>
        <time>2015-12-01T00:05:06Z</time>
      </trkpt>
      <trkpt lat="49.23296" lon="1.83853">
        <ele>138</ele>
        <time>2015-12-01T00:07:06Z</time>
      </trkpt>
      <trkpt lat="49.23288" lon="1.83844">
        <ele>137</ele>
        <time>2015-12-01T00:09:06Z</time>
      </trkpt>
      <trkpt lat="49.23277" lon="1.83837">
        <ele>136</ele>
        <time>2015-12-01T00:11:06Z</time>
      </trkpt>
      <trkpt lat="49.23269" lon="1.83829">
        <ele>135</ele>
        <time>2015-12-01T00:13:06Z</time>
      </trkpt>
      <trkpt lat="49.23263" lon="1.83819">
        <ele>134</ele>
        <time>2015-12-01T00:15:06Z</time>
      </trkpt>
      <trkpt lat="49.23259" lon="1.83804">
        <ele>132</ele>
        <time>2015-12-01T00:17:06Z</time>
      </trkpt>
      <trkpt lat="49.23252" lon="1.83792">
        <ele>131</ele>
        <time>2015-12-01T00:19:06Z</time>
      </trkpt>
      <trkpt lat="49.23246" lon="1.83781">
        <ele>130</ele>
        <time>2015-12-01T00:21:06Z</time>
      </trkpt>
      <trkpt lat="49.2325" lon="1.83767">
        <ele>129</ele>
        <time>2015-12-01T00:23:06Z</time>
      </trkpt>
      <trkpt lat="49.23255" lon="1.8375">
        <ele>127</ele>
        <time>2015-12-01T00:25:06Z</time>
      </trkpt>
      <trkpt lat="49.23259" lon="1.83735">
        <ele>126</ele>
        <time>2015-12-01T00:27:06Z</time>
      </trkpt>
      <trkpt lat="49.23263" lon="1.83721">
        <ele>126</ele>
        <time>2015-12-01T00:29:06Z</time>
      </trkpt>
      <trkpt lat="49.23272" lon="1.83689">
        <ele>124</ele>
        <time>2015-12-01T00:31:06Z</time>
      </trkpt>
      <trkpt lat="49.23278" lon="1.83672">
        <ele>123</ele>
        <time>2015-12-01T00:33:06Z</time>
      </trkpt>
      <trkpt lat="49.23284" lon="1.83655">
        <ele>122</ele>
        <time>2015-12-01T00:35:06Z</time>
      </trkpt>
      <trkpt lat="49.23292" lon="1.8364">
        <ele>122</ele>
        <time>2015-12-01T00:37:06Z</time>
      </trkpt>
      <trkpt lat="49.233" lon="1.83624">
        <ele>121</ele>
        <time>2015-12-01T00:39:06Z</time>
      </trkpt>
      <trkpt lat="49.2331" lon="1.8361">
        <ele>120</ele>
        <time>2015-12-01T00:41:06Z</time>
      </trkpt>
      <trkpt lat="49.23317" lon="1.83601">
        <ele>119</ele>
        <time>2015-12-01T00:43:06Z</time>
      </trkpt>
      <trkpt lat="49.23325" lon="1.83592">
        <ele>119</ele>
        <time>2015-12-01T00:45:06Z</time>
      </trkpt>
      <trkpt lat="49.23357" lon="1.83561">
        <ele>118</ele>
        <time>2015-12-01T00:47:06Z</time>
      </trkpt>
      <trkpt lat="49.23377" lon="1.83545">
        <ele>118</ele>
        <time>2015-12-01T00:49:06Z</time>
      </trkpt>
      <trkpt lat="49.23388" lon="1.83535">
        <ele>118</ele>
        <time>2015-12-01T00:51:06Z</time>
      </trkpt>
      <trkpt lat="49.234" lon="1.83525">
        <ele>118</ele>
        <time>2015-12-01T00:53:06Z</time>
      </trkpt>
      <trkpt lat="49.23408" lon="1.83518">
        <ele>118</ele>
        <time>2015-12-01T00:55:06Z</time>
      </trkpt>
      <trkpt lat="49.23432" lon="1.83497">
        <ele>117</ele>
        <time>2015-12-01T00:57:06Z</time>
      </trkpt>
      <trkpt lat="49.23439" lon="1.8349">
        <ele>117</ele>
        <time>2015-12-01T00:59:06Z</time>
      </trkpt>
      <trkpt lat="49.23451" lon="1.83478">
        <ele>117</ele>
        <time>2015-12-01T01:01:06Z</time>
      </trkpt>
      <trkpt lat="49.23457" lon="1.83469">
        <ele>117</ele>
        <time>2015-12-01T01:03:06Z</time>
      </trkpt>
      <trkpt lat="49.23463" lon="1.83458">
        <ele>117</ele>
        <time>2015-12-01T01:05:06Z</time>
      </trkpt>
      <trkpt lat="49.23476" lon="1.83431">
        <ele>116</ele>
        <time>2015-12-01T01:07:06Z</time>
      </trkpt>
      <trkpt lat="49.23482" lon="1.83414">
        <ele>115</ele>
        <time>2015-12-01T01:09:06Z</time>
      </trkpt>
      <trkpt lat="49.2349" lon="1.83398">
        <ele>114</ele>
        <time>2015-12-01T01:11:06Z</time>
      </trkpt>
      <trkpt lat="49.23495" lon="1.83381">
        <ele>113</ele>
        <time>2015-12-01T01:13:06Z</time>
      </trkpt>
      <trkpt lat="49.23503" lon="1.83365">
        <ele>112</ele>
        <time>2015-12-01T01:15:06Z</time>
      </trkpt>
      <trkpt lat="49.23509" lon="1.83354">
        <ele>111</ele>
        <time>2015-12-01T01:17:06Z</time>
      </trkpt>
      <trkpt lat="49.23516" lon="1.83345">
        <ele>111</ele>
        <time>2015-12-01T01:19:06Z</time>
      </trkpt>
      <trkpt lat="49.23525" lon="1.83336">
        <ele>110</ele>
        <time>2015-12-01T01:21:06Z</time>
      </trkpt>
      <trkpt lat="49.23543" lon="1.83316">
        <ele>109</ele>
        <time>2015-12-01T01:23:06Z</time>
      </trkpt>
      <trkpt lat="49.23553" lon="1.83308">
        <ele>109</ele>
        <time>2015-12-01T01:25:06Z</time>
      </trkpt>
      <trkpt lat="49.23562" lon="1.833">
        <ele>108</ele>
        <time>2015-12-01T01:27:06Z</time>
      </trkpt>
      <trkpt lat="49.23572" lon="1.83293">
        <ele>107</ele>
        <time>2015-12-01T01:29:06Z</time>
      </trkpt>
      <trkpt lat="49.23593" lon="1.83281">
        <ele>106</ele>
        <time>2015-12-01T01:31:06Z</time>
      </trkpt>
      <trkpt lat="49.23626" lon="1.8326">
        <ele>104</ele>
        <time>2015-12-01T01:33:06Z</time>
      </trkpt>
      <trkpt lat="49.23621" lon="1.83246">
        <ele>103</ele>
        <time>2015-12-01T01:35:06Z</time>
      </trkpt>
      <trkpt lat="49.2361" lon="1.83244">
        <ele>103</ele>
        <time>2015-12-01T01:37:06Z</time>
      </trkpt>
      <trkpt lat="49.236" lon="1.83242">
        <ele>103</ele>
        <time>2015-12-01T01:39:06Z</time>
      </trkpt>
      <trkpt lat="49.23588" lon="1.83238">
        <ele>103</ele>
        <time>2015-12-01T01:41:06Z</time>
      </trkpt>
      <trkpt lat="49.23579" lon="1.8323">
        <ele>103</ele>
        <time>2015-12-01T01:43:06Z</time>
      </trkpt>
      <trkpt lat="49.2357" lon="1.83225">
        <ele>104</ele>
        <time>2015-12-01T01:45:06Z</time>
      </trkpt>
      <trkpt lat="49.23558" lon="1.83222">
        <ele>106</ele>
        <time>2015-12-01T01:47:06Z</time>
      </trkpt>
      <trkpt lat="49.23548" lon="1.83222">
        <ele>107</ele>
        <time>2015-12-01T01:49:06Z</time>
      </trkpt>
      <trkpt lat="49.23539" lon="1.83224">
        <ele>107</ele>
        <time>2015-12-01T01:51:06Z</time>
      </trkpt>
      <trkpt lat="49.23529" lon="1.83225">
        <ele>108</ele>
        <time>2015-12-01T01:53:06Z</time>
      </trkpt>
      <trkpt lat="49.2352" lon="1.83229">
        <ele>109</ele>
        <time>2015-12-01T01:55:06Z</time>
      </trkpt>
      <trkpt lat="49.2351" lon="1.83235">
        <ele>109</ele>
        <time>2015-12-01T01:57:06Z</time>
      </trkpt>
      <trkpt lat="49.23501" lon="1.83242">
        <ele>109</ele>
        <time>2015-12-01T01:59:06Z</time>
      </trkpt>
      <trkpt lat="49.23493" lon="1.83247">
        <ele>110</ele>
        <time>2015-12-01T02:01:06Z</time>
      </trkpt>
      <trkpt lat="49.23483" lon="1.83251">
        <ele>111</ele>
        <time>2015-12-01T02:03:06Z</time>
      </trkpt>
      <trkpt lat="49.23475" lon="1.83256">
        <ele>112</ele>
        <time>2015-12-01T02:05:06Z</time>
      </trkpt>
      <trkpt lat="49.23466" lon="1.83257">
        <ele>113</ele>
        <time>2015-12-01T02:07:06Z</time>
      </trkpt>
      <trkpt lat="49.23456" lon="1.83259">
        <ele>114</ele>
        <time>2015-12-01T02:09:06Z</time>
      </trkpt>
      <trkpt lat="49.23447" lon="1.83257">
        <ele>115</ele>
        <time>2015-12-01T02:11:06Z</time>
      </trkpt>
      <trkpt lat="49.23438" lon="1.83254">
        <ele>116</ele>
        <time>2015-12-01T02:13:06Z</time>
      </trkpt>
      <trkpt lat="49.23429" lon="1.8325">
        <ele>118</ele>
        <time>2015-12-01T02:15:06Z</time>
      </trkpt>
      <trkpt lat="49.23419" lon="1.83248">
        <ele>119</ele>
        <time>2015-12-01T02:17:06Z</time>
      </trkpt>
      <trkpt lat="49.2341" lon="1.83244">
        <ele>119</ele>
        <time>2015-12-01T02:19:06Z</time>
      </trkpt>
      <trkpt lat="49.23401" lon="1.83238">
        <ele>120</ele>
        <time>2015-12-01T02:21:06Z</time>
      </trkpt>
      <trkpt lat="49.23393" lon="1.83232">
        <ele>120</ele>
        <time>2015-12-01T02:23:06Z</time>
      </trkpt>
      <trkpt lat="49.23384" lon="1.83224">
        <ele>121</ele>
        <time>2015-12-01T02:25:06Z</time>
      </trkpt>
      <trkpt lat="49.23377" lon="1.83213">
        <ele>121</ele>
        <time>2015-12-01T02:27:06Z</time>
      </trkpt>
      <trkpt lat="49.2337" lon="1.83203">
        <ele>121</ele>
        <time>2015-12-01T02:29:06Z</time>
      </trkpt>
      <trkpt lat="49.23361" lon="1.83193">
        <ele>121</ele>
        <time>2015-12-01T02:31:06Z</time>
      </trkpt>
      <trkpt lat="49.23346" lon="1.83175">
        <ele>122</ele>
        <time>2015-12-01T02:33:06Z</time>
      </trkpt>
      <trkpt lat="49.23339" lon="1.83165">
        <ele>122</ele>
        <time>2015-12-01T02:35:06Z</time>
      </trkpt>
      <trkpt lat="49.23331" lon="1.83174">
        <ele>122</ele>
        <time>2015-12-01T02:37:06Z</time>
      </trkpt>
      <trkpt lat="49.23322" lon="1.83183">
        <ele>122</ele>
        <time>2015-12-01T02:39:06Z</time>
      </trkpt>
      <trkpt lat="49.23314" lon="1.83191">
        <ele>123</ele>
        <time>2015-12-01T02:41:06Z</time>
      </trkpt>
      <trkpt lat="49.23306" lon="1.83198">
        <ele>123</ele>
        <time>2015-12-01T02:43:06Z</time>
      </trkpt>
      <trkpt lat="49.23298" lon="1.83206">
        <ele>123</ele>
        <time>2015-12-01T02:45:06Z</time>
      </trkpt>
      <trkpt lat="49.23289" lon="1.83212">
        <ele>123</ele>
        <time>2015-12-01T02:47:06Z</time>
      </trkpt>
      <trkpt lat="49.23278" lon="1.83217">
        <ele>124</ele>
        <time>2015-12-01T02:49:06Z</time>
      </trkpt>
      <trkpt lat="49.23266" lon="1.8322">
        <ele>124</ele>
        <time>2015-12-01T02:51:06Z</time>
      </trkpt>
      <trkpt lat="49.23245" lon="1.83225">
        <ele>125</ele>
        <time>2015-12-01T02:53:06Z</time>
      </trkpt>
      <trkpt lat="49.23226" lon="1.83229">
        <ele>125</ele>
        <time>2015-12-01T02:55:06Z</time>
      </trkpt>
      <trkpt lat="49.23199" lon="1.83235">
        <ele>126</ele>
        <time>2015-12-01T02:57:06Z</time>
      </trkpt>
      <trkpt lat="49.23152" lon="1.83246">
        <ele>127</ele>
        <time>2015-12-01T02:59:06Z</time>
      </trkpt>
      <trkpt lat="49.23122" lon="1.83252">
        <ele>129</ele>
        <time>2015-12-01T03:01:06Z</time>
      </trkpt>
      <trkpt lat="49.2311" lon="1.83256">
        <ele>129</ele>
        <time>2015-12-01T03:03:06Z</time>
      </trkpt>
      <trkpt lat="49.23092" lon="1.8326">
        <ele>130</ele>
        <time>2015-12-01T03:05:06Z</time>
      </trkpt>
      <trkpt lat="49.2308" lon="1.83261">
        <ele>130</ele>
        <time>2015-12-01T03:07:06Z</time>
      </trkpt>
      <trkpt lat="49.23057" lon="1.83264">
        <ele>131</ele>
        <time>2015-12-01T03:09:06Z</time>
      </trkpt>
      <trkpt lat="49.23046" lon="1.83266">
        <ele>131</ele>
        <time>2015-12-01T03:11:06Z</time>
      </trkpt>
      <trkpt lat="49.23034" lon="1.8327">
        <ele>131</ele>
        <time>2015-12-01T03:13:06Z</time>
      </trkpt>
      <trkpt lat="49.23023" lon="1.83274">
        <ele>131</ele>
        <time>2015-12-01T03:15:06Z</time>
      </trkpt>
      <trkpt lat="49.23013" lon="1.83278">
        <ele>131</ele>
        <time>2015-12-01T03:17:06Z</time>
      </trkpt>
      <trkpt lat="49.23003" lon="1.83277">
        <ele>132</ele>
        <time>2015-12-01T03:19:06Z</time>
      </trkpt>
      <trkpt lat="49.23004" lon="1.83263">
        <ele>132</ele>
        <time>2015-12-01T03:21:06Z</time>
      </trkpt>
      <trkpt lat="49.2301" lon="1.8325">
        <ele>132</ele>
        <time>2015-12-01T03:23:06Z</time>
      </trkpt>
      <trkpt lat="49.23016" lon="1.83237">
        <ele>132</ele>
        <time>2015-12-01T03:25:06Z</time>
      </trkpt>
      <trkpt lat="49.23024" lon="1.83226">
        <ele>132</ele>
        <time>2015-12-01T03:27:06Z</time>
      </trkpt>
      <trkpt lat="49.23059" lon="1.83167">
        <ele>130</ele>
        <time>2015-12-01T03:29:06Z</time>
      </trkpt>
      <trkpt lat="49.23083" lon="1.83124">
        <ele>130</ele>
        <time>2015-12-01T03:31:06Z</time>
      </trkpt>
      <trkpt lat="49.23118" lon="1.83063">
        <ele>129</ele>
        <time>2015-12-01T03:33:06Z</time>
      </trkpt>
      <trkpt lat="49.23127" lon="1.83047">
        <ele>128</ele>
        <time>2015-12-01T03:35:06Z</time>
      </trkpt>
      <trkpt lat="49.23143" lon="1.83019">
        <ele>128</ele>
        <time>2015-12-01T03:37:06Z</time>
      </trkpt>
      <trkpt lat="49.23152" lon="1.83005">
        <ele>128</ele>
        <time>2015-12-01T03:39:06Z</time>
      </trkpt>
      <trkpt lat="49.2316" lon="1.8299">
        <ele>128</ele>
        <time>2015-12-01T03:41:06Z</time>
      </trkpt>
      <trkpt lat="49.23169" lon="1.82974">
        <ele>128</ele>
        <time>2015-12-01T03:43:06Z</time>
      </trkpt>
      <trkpt lat="49.23181" lon="1.82952">
        <ele>128</ele>
        <time>2015-12-01T03:45:06Z</time>
      </trkpt>
      <trkpt lat="49.23186" lon="1.82941">
        <ele>127</ele>
        <time>2015-12-01T03:47:06Z</time>
      </trkpt>
      <trkpt lat="49.23195" lon="1.82926">
        <ele>127</ele>
        <time>2015-12-01T03:49:06Z</time>
      </trkpt>
      <trkpt lat="49.23204" lon="1.82911">
        <ele>127</ele>
        <time>2015-12-01T03:51:06Z</time>
      </trkpt>
      <trkpt lat="49.23225" lon="1.8287">
        <ele>127</ele>
        <time>2015-12-01T03:53:06Z</time>
      </trkpt>
      <trkpt lat="49.23256" lon="1.82813">
        <ele>126</ele>
        <time>2015-12-01T03:55:06Z</time>
      </trkpt>
      <trkpt lat="49.23279" lon="1.8277">
        <ele>125</ele>
        <time>2015-12-01T03:57:06Z</time>
      </trkpt>
      <trkpt lat="49.23304" lon="1.82728">
        <ele>124</ele>
        <time>2015-12-01T03:59:06Z</time>
      </trkpt>
      <trkpt lat="49.23312" lon="1.82713">
        <ele>124</ele>
        <time>2015-12-01T04:01:06Z</time>
      </trkpt>
      <trkpt lat="49.23321" lon="1.82699">
        <ele>124</ele>
        <time>2015-12-01T04:03:06Z</time>
      </trkpt>
      <trkpt lat="49.23334" lon="1.82675">
        <ele>125</ele>
        <time>2015-12-01T04:05:06Z</time>
      </trkpt>
      <trkpt lat="49.23342" lon="1.82663">
        <ele>125</ele>
        <time>2015-12-01T04:07:06Z</time>
      </trkpt>
      <trkpt lat="49.23356" lon="1.82639">
        <ele>125</ele>
        <time>2015-12-01T04:09:06Z</time>
      </trkpt>
      <trkpt lat="49.23377" lon="1.82602">
        <ele>125</ele>
        <time>2015-12-01T04:11:06Z</time>
      </trkpt>
      <trkpt lat="49.23399" lon="1.82563">
        <ele>125</ele>
        <time>2015-12-01T04:13:06Z</time>
      </trkpt>
      <trkpt lat="49.23407" lon="1.82549">
        <ele>125</ele>
        <time>2015-12-01T04:15:06Z</time>
      </trkpt>
      <trkpt lat="49.23438" lon="1.82496">
        <ele>124</ele>
        <time>2015-12-01T04:17:06Z</time>
      </trkpt>
      <trkpt lat="49.23445" lon="1.82482">
        <ele>123</ele>
        <time>2015-12-01T04:19:06Z</time>
      </trkpt>
      <trkpt lat="49.2347" lon="1.82438">
        <ele>122</ele>
        <time>2015-12-01T04:21:06Z</time>
      </trkpt>
      <trkpt lat="49.23478" lon="1.82422">
        <ele>122</ele>
        <time>2015-12-01T04:23:06Z</time>
      </trkpt>
      <trkpt lat="49.23501" lon="1.82381">
        <ele>121</ele>
        <time>2015-12-01T04:25:06Z</time>
      </trkpt>
      <trkpt lat="49.23507" lon="1.8237">
        <ele>121</ele>
        <time>2015-12-01T04:27:06Z</time>
      </trkpt>
      <trkpt lat="49.23545" lon="1.82303">
        <ele>119</ele>
        <time>2015-12-01T04:29:06Z</time>
      </trkpt>
      <trkpt lat="49.23551" lon="1.82288">
        <ele>119</ele>
        <time>2015-12-01T04:31:06Z</time>
      </trkpt>
      <trkpt lat="49.23552" lon="1.82272">
        <ele>118</ele>
        <time>2015-12-01T04:33:06Z</time>
      </trkpt>
      <trkpt lat="49.23549" lon="1.82256">
        <ele>118</ele>
        <time>2015-12-01T04:35:06Z</time>
      </trkpt>
      <trkpt lat="49.23547" lon="1.82237">
        <ele>118</ele>
        <time>2015-12-01T04:37:06Z</time>
      </trkpt>
      <trkpt lat="49.23535" lon="1.82164">
        <ele>119</ele>
        <time>2015-12-01T04:39:06Z</time>
      </trkpt>
      <trkpt lat="49.23532" lon="1.82146">
        <ele>120</ele>
        <time>2015-12-01T04:41:06Z</time>
      </trkpt>
      <trkpt lat="49.23526" lon="1.82128">
        <ele>120</ele>
        <time>2015-12-01T04:43:06Z</time>
      </trkpt>
      <trkpt lat="49.23517" lon="1.82113">
        <ele>120</ele>
        <time>2015-12-01T04:45:06Z</time>
      </trkpt>
      <trkpt lat="49.23508" lon="1.82098">
        <ele>120</ele>
        <time>2015-12-01T04:47:06Z</time>
      </trkpt>
      <trkpt lat="49.23501" lon="1.82083">
        <ele>120</ele>
        <time>2015-12-01T04:49:06Z</time>
      </trkpt>
      <trkpt lat="49.23491" lon="1.82056">
        <ele>119</ele>
        <time>2015-12-01T04:51:06Z</time>
      </trkpt>
      <trkpt lat="49.23485" lon="1.82044">
        <ele>119</ele>
        <time>2015-12-01T04:53:06Z</time>
      </trkpt>
      <trkpt lat="49.23474" lon="1.82013">
        <ele>119</ele>
        <time>2015-12-01T04:55:06Z</time>
      </trkpt>
      <trkpt lat="49.2347" lon="1.81997">
        <ele>118</ele>
        <time>2015-12-01T04:57:06Z</time>
      </trkpt>
      <trkpt lat="49.23463" lon="1.81966">
        <ele>118</ele>
        <time>2015-12-01T04:59:06Z</time>
      </trkpt>
      <trkpt lat="49.23458" lon="1.81951">
        <ele>119</ele>
        <time>2015-12-01T05:01:06Z</time>
      </trkpt>
      <trkpt lat="49.23453" lon="1.81938">
        <ele>119</ele>
        <time>2015-12-01T05:03:06Z</time>
      </trkpt>
      <trkpt lat="49.23447" lon="1.81925">
        <ele>119</ele>
        <time>2015-12-01T05:05:06Z</time>
      </trkpt>
      <trkpt lat="49.23441" lon="1.8191">
        <ele>119</ele>
        <time>2015-12-01T05:07:06Z</time>
      </trkpt>
      <trkpt lat="49.23435" lon="1.81899">
        <ele>119</ele>
        <time>2015-12-01T05:09:06Z</time>
      </trkpt>
      <trkpt lat="49.2343" lon="1.81885">
        <ele>119</ele>
        <time>2015-12-01T05:11:06Z</time>
      </trkpt>
      <trkpt lat="49.23424" lon="1.81871">
        <ele>120</ele>
        <time>2015-12-01T05:13:06Z</time>
      </trkpt>
      <trkpt lat="49.23413" lon="1.81844">
        <ele>120</ele>
        <time>2015-12-01T05:15:06Z</time>
      </trkpt>
      <trkpt lat="49.2341" lon="1.8183">
        <ele>120</ele>
        <time>2015-12-01T05:17:06Z</time>
      </trkpt>
      <trkpt lat="49.23419" lon="1.81826">
        <ele>120</ele>
        <time>2015-12-01T05:19:06Z</time>
      </trkpt>
      <trkpt lat="49.23427" lon="1.81837">
        <ele>120</ele>
        <time>2015-12-01T05:21:06Z</time>
      </trkpt>
      <trkpt lat="49.23435" lon="1.81847">
        <ele>120</ele>
        <time>2015-12-01T05:23:06Z</time>
      </trkpt>
      <trkpt lat="49.2345" lon="1.81872">
        <ele>119</ele>
        <time>2015-12-01T05:25:06Z</time>
      </trkpt>
      <trkpt lat="49.23458" lon="1.81883">
        <ele>119</ele>
        <time>2015-12-01T05:27:06Z</time>
      </trkpt>
      <trkpt lat="49.23467" lon="1.81894">
        <ele>119</ele>
        <time>2015-12-01T05:29:06Z</time>
      </trkpt>
      <trkpt lat="49.23482" lon="1.81916">
        <ele>118</ele>
        <time>2015-12-01T05:31:06Z</time>
      </trkpt>
      <trkpt lat="49.23489" lon="1.81926">
        <ele>118</ele>
        <time>2015-12-01T05:33:06Z</time>
      </trkpt>
      <trkpt lat="49.23499" lon="1.81938">
        <ele>118</ele>
        <time>2015-12-01T05:35:06Z</time>
      </trkpt>
      <trkpt lat="49.23506" lon="1.81947">
        <ele>118</ele>
        <time>2015-12-01T05:37:06Z</time>
      </trkpt>
      <trkpt lat="49.23515" lon="1.81956">
        <ele>118</ele>
        <time>2015-12-01T05:39:06Z</time>
      </trkpt>
      <trkpt lat="49.23525" lon="1.81964">
        <ele>119</ele>
        <time>2015-12-01T05:41:06Z</time>
      </trkpt>
      <trkpt lat="49.23533" lon="1.81972">
        <ele>119</ele>
        <time>2015-12-01T05:43:06Z</time>
      </trkpt>
      <trkpt lat="49.23543" lon="1.81981">
        <ele>119</ele>
        <time>2015-12-01T05:45:06Z</time>
      </trkpt>
      <trkpt lat="49.23553" lon="1.81992">
        <ele>119</ele>
        <time>2015-12-01T05:47:06Z</time>
      </trkpt>
      <trkpt lat="49.23563" lon="1.82004">
        <ele>119</ele>
        <time>2015-12-01T05:49:06Z</time>
      </trkpt>
      <trkpt lat="49.2358" lon="1.82025">
        <ele>119</ele>
        <time>2015-12-01T05:51:06Z</time>
      </trkpt>
      <trkpt lat="49.2359" lon="1.82037">
        <ele>119</ele>
        <time>2015-12-01T05:53:06Z</time>
      </trkpt>
      <trkpt lat="49.23598" lon="1.82048">
        <ele>119</ele>
        <time>2015-12-01T05:55:06Z</time>
      </trkpt>
      <trkpt lat="49.23606" lon="1.82061">
        <ele>120</ele>
        <time>2015-12-01T05:57:06Z</time>
      </trkpt>
      <trkpt lat="49.2363" lon="1.82109">
        <ele>120</ele>
        <time>2015-12-01T05:59:06Z</time>
      </trkpt>
      <trkpt lat="49.23636" lon="1.82124">
        <ele>119</ele>
        <time>2015-12-01T06:01:06Z</time>
      </trkpt>
      <trkpt lat="49.23642" lon="1.82136">
        <ele>119</ele>
        <time>2015-12-01T06:03:06Z</time>
      </trkpt>
      <trkpt lat="49.23649" lon="1.82152">
        <ele>119</ele>
        <time>2015-12-01T06:05:06Z</time>
      </trkpt>
      <trkpt lat="49.23654" lon="1.82164">
        <ele>119</ele>
        <time>2015-12-01T06:07:06Z</time>
      </trkpt>
      <trkpt lat="49.2366" lon="1.82175">
        <ele>118</ele>
        <time>2015-12-01T06:09:06Z</time>
      </trkpt>
      <trkpt lat="49.23666" lon="1.82191">
        <ele>117</ele>
        <time>2015-12-01T06:11:06Z</time>
      </trkpt>
      <trkpt lat="49.23674" lon="1.82207">
        <ele>116</ele>
        <time>2015-12-01T06:13:06Z</time>
      </trkpt>
      <trkpt lat="49.23687" lon="1.82228">
        <ele>115</ele>
        <time>2015-12-01T06:15:06Z</time>
      </trkpt>
      <trkpt lat="49.23694" lon="1.82239">
        <ele>115</ele>
        <time>2015-12-01T06:17:06Z</time>
      </trkpt>
      <trkpt lat="49.23708" lon="1.82261">
        <ele>114</ele>
        <time>2015-12-01T06:19:06Z</time>
      </trkpt>
      <trkpt lat="49.23722" lon="1.82281">
        <ele>114</ele>
        <time>2015-12-01T06:21:06Z</time>
      </trkpt>
      <trkpt lat="49.23738" lon="1.82305">
        <ele>114</ele>
        <time>2015-12-01T06:23:06Z</time>
      </trkpt>
      <trkpt lat="49.23744" lon="1.82316">
        <ele>114</ele>
        <time>2015-12-01T06:25:06Z</time>
      </trkpt>
      <trkpt lat="49.2375" lon="1.82329">
        <ele>114</ele>
        <time>2015-12-01T06:27:06Z</time>
      </trkpt>
      <trkpt lat="49.23769" lon="1.82364">
        <ele>113</ele>
        <time>2015-12-01T06:29:06Z</time>
      </trkpt>
      <trkpt lat="49.23775" lon="1.82375">
        <ele>113</ele>
        <time>2015-12-01T06:31:06Z</time>
      </trkpt>
      <trkpt lat="49.23781" lon="1.82386">
        <ele>113</ele>
        <time>2015-12-01T06:33:06Z</time>
      </trkpt>
      <trkpt lat="49.23787" lon="1.82397">
        <ele>113</ele>
        <time>2015-12-01T06:35:06Z</time>
      </trkpt>
      <trkpt lat="49.23794" lon="1.82407">
        <ele>113</ele>
        <time>2015-12-01T06:37:06Z</time>
      </trkpt>
      <trkpt lat="49.23813" lon="1.82435">
        <ele>114</ele>
        <time>2015-12-01T06:39:06Z</time>
      </trkpt>
      <trkpt lat="49.23848" lon="1.82483">
        <ele>114</ele>
        <time>2015-12-01T06:41:06Z</time>
      </trkpt>
      <trkpt lat="49.23855" lon="1.82494">
        <ele>114</ele>
        <time>2015-12-01T06:43:06Z</time>
      </trkpt>
      <trkpt lat="49.2387" lon="1.82518">
        <ele>113</ele>
        <time>2015-12-01T06:45:06Z</time>
      </trkpt>
      <trkpt lat="49.23883" lon="1.82543">
        <ele>112</ele>
        <time>2015-12-01T06:47:06Z</time>
      </trkpt>
      <trkpt lat="49.2389" lon="1.82556">
        <ele>112</ele>
        <time>2015-12-01T06:49:06Z</time>
      </trkpt>
      <trkpt lat="49.23897" lon="1.8257">
        <ele>112</ele>
        <time>2015-12-01T06:51:06Z</time>
      </trkpt>
      <trkpt lat="49.23906" lon="1.82581">
        <ele>111</ele>
        <time>2015-12-01T06:53:06Z</time>
      </trkpt>
      <trkpt lat="49.23916" lon="1.82578">
        <ele>112</ele>
        <time>2015-12-01T06:55:06Z</time>
      </trkpt>
      <trkpt lat="49.23923" lon="1.82566">
        <ele>112</ele>
        <time>2015-12-01T06:57:06Z</time>
      </trkpt>
      <trkpt lat="49.23931" lon="1.82557">
        <ele>112</ele>
        <time>2015-12-01T06:59:06Z</time>
      </trkpt>
      <trkpt lat="49.23941" lon="1.82557">
        <ele>112</ele>
        <time>2015-12-01T07:01:06Z</time>
      </trkpt>
      <trkpt lat="49.2395" lon="1.82566">
        <ele>111</ele>
        <time>2015-12-01T07:03:06Z</time>
      </trkpt>
      <trkpt lat="49.2396" lon="1.82574">
        <ele>110</ele>
        <time>2015-12-01T07:05:06Z</time>
      </trkpt>
      <trkpt lat="49.23971" lon="1.82585">
        <ele>109</ele>
        <time>2015-12-01T07:07:06Z</time>
      </trkpt>
      <trkpt lat="49.23979" lon="1.82591">
        <ele>108</ele>
        <time>2015-12-01T07:09:06Z</time>
      </trkpt>
      <trkpt lat="49.2399" lon="1.826">
        <ele>107</ele>
        <time>2015-12-01T07:11:06Z</time>
      </trkpt>
      <trkpt lat="49.2402" lon="1.82624">
        <ele>104</ele>
        <time>2015-12-01T07:13:06Z</time>
      </trkpt>
      <trkpt lat="49.24047" lon="1.82645">
        <ele>101</ele>
        <time>2015-12-01T07:15:06Z</time>
      </trkpt>
      <trkpt lat="49.24056" lon="1.82651">
        <ele>100</ele>
        <time>2015-12-01T07:17:06Z</time>
      </trkpt>
      <trkpt lat="49.24065" lon="1.82659">
        <ele>99</ele>
        <time>2015-12-01T07:19:06Z</time>
      </trkpt>
      <trkpt lat="49.24086" lon="1.82674">
        <ele>98</ele>
        <time>2015-12-01T07:21:06Z</time>
      </trkpt>
      <trkpt lat="49.24097" lon="1.82683">
        <ele>96</ele>
        <time>2015-12-01T07:23:06Z</time>
      </trkpt>
      <trkpt lat="49.24107" lon="1.8269">
        <ele>95</ele>
        <time>2015-12-01T07:25:06Z</time>
      </trkpt>
      <trkpt lat="49.2412" lon="1.82696">
        <ele>94</ele>
        <time>2015-12-01T07:27:06Z</time>
      </trkpt>
      <trkpt lat="49.24132" lon="1.82699">
        <ele>93</ele>
        <time>2015-12-01T07:29:06Z</time>
      </trkpt>
      <trkpt lat="49.24145" lon="1.827">
        <ele>92</ele>
        <time>2015-12-01T07:31:06Z</time>
      </trkpt>
      <trkpt lat="49.24168" lon="1.82701">
        <ele>89</ele>
        <time>2015-12-01T07:33:06Z</time>
      </trkpt>
      <trkpt lat="49.24203" lon="1.82701">
        <ele>87</ele>
        <time>2015-12-01T07:35:06Z</time>
      </trkpt>
      <trkpt lat="49.24223" lon="1.82702">
        <ele>85</ele>
        <time>2015-12-01T07:37:06Z</time>
      </trkpt>
      <trkpt lat="49.24233" lon="1.82702">
        <ele>84</ele>
        <time>2015-12-01T07:39:06Z</time>
      </trkpt>
      <trkpt lat="49.24242" lon="1.827">
        <ele>84</ele>
        <time>2015-12-01T07:41:06Z</time>
      </trkpt>
      <trkpt lat="49.24263" lon="1.82689">
        <ele>83</ele>
        <time>2015-12-01T07:43:06Z</time>
      </trkpt>
      <trkpt lat="49.24272" lon="1.82685">
        <ele>83</ele>
        <time>2015-12-01T07:45:06Z</time>
      </trkpt>
      <trkpt lat="49.24281" lon="1.82681">
        <ele>84</ele>
        <time>2015-12-01T07:47:06Z</time>
      </trkpt>
      <trkpt lat="49.24292" lon="1.82677">
        <ele>84</ele>
        <time>2015-12-01T07:49:06Z</time>
      </trkpt>
      <trkpt lat="49.2437" lon="1.82665">
        <ele>85</ele>
        <time>2015-12-01T07:51:06Z</time>
      </trkpt>
      <trkpt lat="49.24382" lon="1.82663">
        <ele>85</ele>
        <time>2015-12-01T07:53:06Z</time>
      </trkpt>
      <trkpt lat="49.24417" lon="1.82657">
        <ele>86</ele>
        <time>2015-12-01T07:55:06Z</time>
      </trkpt>
      <trkpt lat="49.24446" lon="1.82652">
        <ele>84</ele>
        <time>2015-12-01T07:57:06Z</time>
      </trkpt>
      <trkpt lat="49.24456" lon="1.8265">
        <ele>84</ele>
        <time>2015-12-01T07:59:06Z</time>
      </trkpt>
      <trkpt lat="49.24488" lon="1.82644">
        <ele>82</ele>
        <time>2015-12-01T08:01:06Z</time>
      </trkpt>
      <trkpt lat="49.24497" lon="1.82642">
        <ele>81</ele>
        <time>2015-12-01T08:03:06Z</time>
      </trkpt>
      <trkpt lat="49.24516" lon="1.82638">
        <ele>80</ele>
        <time>2015-12-01T08:05:06Z</time>
      </trkpt>
      <trkpt lat="49.24526" lon="1.82635">
        <ele>80</ele>
        <time>2015-12-01T08:07:06Z</time>
      </trkpt>
      <trkpt lat="49.24544" lon="1.82632">
        <ele>80</ele>
        <time>2015-12-01T08:09:06Z</time>
      </trkpt>
      <trkpt lat="49.24566" lon="1.82625">
        <ele>79</ele>
        <time>2015-12-01T08:11:06Z</time>
      </trkpt>
      <trkpt lat="49.24578" lon="1.82624">
        <ele>79</ele>
        <time>2015-12-01T08:13:06Z</time>
      </trkpt>
      <trkpt lat="49.246" lon="1.82615">
        <ele>79</ele>
        <time>2015-12-01T08:15:06Z</time>
      </trkpt>
      <trkpt lat="49.24611" lon="1.82609">
        <ele>79</ele>
        <time>2015-12-01T08:17:06Z</time>
      </trkpt>
      <trkpt lat="49.24621" lon="1.82603">
        <ele>79</ele>
        <time>2015-12-01T08:19:06Z</time>
      </trkpt>
      <trkpt lat="49.24631" lon="1.82596">
        <ele>79</ele>
        <time>2015-12-01T08:21:06Z</time>
      </trkpt>
      <trkpt lat="49.24641" lon="1.82586">
        <ele>79</ele>
        <time>2015-12-01T08:23:06Z</time>
      </trkpt>
      <trkpt lat="49.24649" lon="1.82572">
        <ele>79</ele>
        <time>2015-12-01T08:25:06Z</time>
      </trkpt>
      <trkpt lat="49.24656" lon="1.82557">
        <ele>79</ele>
        <time>2015-12-01T08:27:06Z</time>
      </trkpt>
      <trkpt lat="49.24662" lon="1.8254">
        <ele>79</ele>
        <time>2015-12-01T08:29:06Z</time>
      </trkpt>
      <trkpt lat="49.24665" lon="1.82521">
        <ele>79</ele>
        <time>2015-12-01T08:31:06Z</time>
      </trkpt>
      <trkpt lat="49.24666" lon="1.82502">
        <ele>79</ele>
        <time>2015-12-01T08:33:06Z</time>
      </trkpt>
      <trkpt lat="49.24666" lon="1.82485">
        <ele>80</ele>
        <time>2015-12-01T08:35:06Z</time>
      </trkpt>
      <trkpt lat="49.24664" lon="1.82468">
        <ele>80</ele>
        <time>2015-12-01T08:37:06Z</time>
      </trkpt>
      <trkpt lat="49.24662" lon="1.82452">
        <ele>81</ele>
        <time>2015-12-01T08:39:06Z</time>
      </trkpt>
      <trkpt lat="49.2466" lon="1.82438">
        <ele>82</ele>
        <time>2015-12-01T08:41:06Z</time>
      </trkpt>
      <trkpt lat="49.24657" lon="1.82425">
        <ele>82</ele>
        <time>2015-12-01T08:43:06Z</time>
      </trkpt>
      <trkpt lat="49.24653" lon="1.82412">
        <ele>83</ele>
        <time>2015-12-01T08:45:06Z</time>
      </trkpt>
      <trkpt lat="49.24649" lon="1.82395">
        <ele>84</ele>
        <time>2015-12-01T08:47:06Z</time>
      </trkpt>
      <trkpt lat="49.24645" lon="1.8238">
        <ele>84</ele>
        <time>2015-12-01T08:49:06Z</time>
      </trkpt>
      <trkpt lat="49.24641" lon="1.82364">
        <ele>85</ele>
        <time>2015-12-01T08:51:06Z</time>
      </trkpt>
      <trkpt lat="49.24632" lon="1.82334">
        <ele>86</ele>
        <time>2015-12-01T08:53:06Z</time>
      </trkpt>
      <trkpt lat="49.24624" lon="1.82303">
        <ele>87</ele>
        <time>2015-12-01T08:55:06Z</time>
      </trkpt>
      <trkpt lat="49.2462" lon="1.82287">
        <ele>87</ele>
        <time>2015-12-01T08:57:06Z</time>
      </trkpt>
      <trkpt lat="49.24613" lon="1.82253">
        <ele>88</ele>
        <time>2015-12-01T08:59:06Z</time>
      </trkpt>
      <trkpt lat="49.24609" lon="1.82237">
        <ele>89</ele>
        <time>2015-12-01T09:01:06Z</time>
      </trkpt>
      <trkpt lat="49.24605" lon="1.8222">
        <ele>89</ele>
        <time>2015-12-01T09:03:06Z</time>
      </trkpt>
      <trkpt lat="49.24602" lon="1.82207">
        <ele>88</ele>
        <time>2015-12-01T09:05:06Z</time>
      </trkpt>
      <trkpt lat="49.24592" lon="1.82173">
        <ele>88</ele>
        <time>2015-12-01T09:07:06Z</time>
      </trkpt>
      <trkpt lat="49.24584" lon="1.82147">
        <ele>88</ele>
        <time>2015-12-01T09:09:06Z</time>
      </trkpt>
      <trkpt lat="49.24571" lon="1.82101">
        <ele>89</ele>
        <time>2015-12-01T09:11:06Z</time>
      </trkpt>
      <trkpt lat="49.24562" lon="1.82066">
        <ele>89</ele>
        <time>2015-12-01T09:13:06Z</time>
      </trkpt>
      <trkpt lat="49.24557" lon="1.82049">
        <ele>89</ele>
        <time>2015-12-01T09:15:06Z</time>
      </trkpt>
      <trkpt lat="49.24548" lon="1.82014">
        <ele>89</ele>
        <time>2015-12-01T09:17:06Z</time>
      </trkpt>
      <trkpt lat="49.24534" lon="1.81961">
        <ele>88</ele>
        <time>2015-12-01T09:19:06Z</time>
      </trkpt>
      <trkpt lat="49.24528" lon="1.81944">
        <ele>87</ele>
        <time>2015-12-01T09:21:06Z</time>
      </trkpt>
      <trkpt lat="49.24521" lon="1.81928">
        <ele>87</ele>
        <time>2015-12-01T09:23:06Z</time>
      </trkpt>
      <trkpt lat="49.24513" lon="1.81913">
        <ele>87</ele>
        <time>2015-12-01T09:25:06Z</time>
      </trkpt>
      <trkpt lat="49.24506" lon="1.81904">
        <ele>87</ele>
        <time>2015-12-01T09:27:06Z</time>
      </trkpt>
      <trkpt lat="49.24495" lon="1.81892">
        <ele>88</ele>
        <time>2015-12-01T09:29:06Z</time>
      </trkpt>
      <trkpt lat="49.24485" lon="1.81881">
        <ele>89</ele>
        <time>2015-12-01T09:31:06Z</time>
      </trkpt>
      <trkpt lat="49.24466" lon="1.81858">
        <ele>90</ele>
        <time>2015-12-01T09:33:06Z</time>
      </trkpt>
      <trkpt lat="49.24438" lon="1.81828">
        <ele>91</ele>
        <time>2015-12-01T09:35:06Z</time>
      </trkpt>
      <trkpt lat="49.24402" lon="1.81789">
        <ele>92</ele>
        <time>2015-12-01T09:37:06Z</time>
      </trkpt>
      <trkpt lat="49.24385" lon="1.81769">
        <ele>93</ele>
        <time>2015-12-01T09:39:06Z</time>
      </trkpt>
      <trkpt lat="49.24376" lon="1.8176">
        <ele>93</ele>
        <time>2015-12-01T09:41:06Z</time>
      </trkpt>
      <trkpt lat="49.24368" lon="1.8175">
        <ele>93</ele>
        <time>2015-12-01T09:43:06Z</time>
      </trkpt>
      <trkpt lat="49.24352" lon="1.8173">
        <ele>93</ele>
        <time>2015-12-01T09:45:06Z</time>
      </trkpt>
      <trkpt lat="49.24345" lon="1.8172">
        <ele>93</ele>
        <time>2015-12-01T09:47:06Z</time>
      </trkpt>
      <trkpt lat="49.24338" lon="1.81709">
        <ele>93</ele>
        <time>2015-12-01T09:49:06Z</time>
      </trkpt>
      <trkpt lat="49.24332" lon="1.81695">
        <ele>93</ele>
        <time>2015-12-01T09:51:06Z</time>
      </trkpt>
      <trkpt lat="49.24328" lon="1.81678">
        <ele>93</ele>
        <time>2015-12-01T09:53:06Z</time>
      </trkpt>
      <trkpt lat="49.24326" lon="1.81658">
        <ele>92</ele>
        <time>2015-12-01T09:55:06Z</time>
      </trkpt>
      <trkpt lat="49.24323" lon="1.81639">
        <ele>92</ele>
        <time>2015-12-01T09:57:06Z</time>
      </trkpt>
      <trkpt lat="49.24317" lon="1.81622">
        <ele>91</ele>
        <time>2015-12-01T09:59:06Z</time>
      </trkpt>
      <trkpt lat="49.24311" lon="1.8161">
        <ele>91</ele>
        <time>2015-12-01T10:01:06Z</time>
      </trkpt>
      <trkpt lat="49.24302" lon="1.81598">
        <ele>91</ele>
        <time>2015-12-01T10:03:06Z</time>
      </trkpt>
      <trkpt lat="49.24292" lon="1.81589">
        <ele>91</ele>
        <time>2015-12-01T10:05:06Z</time>
      </trkpt>
      <trkpt lat="49.24281" lon="1.8158">
        <ele>92</ele>
        <time>2015-12-01T10:07:06Z</time>
      </trkpt>
      <trkpt lat="49.2427" lon="1.81571">
        <ele>92</ele>
        <time>2015-12-01T10:09:06Z</time>
      </trkpt>
      <trkpt lat="49.24259" lon="1.81564">
        <ele>93</ele>
        <time>2015-12-01T10:11:06Z</time>
      </trkpt>
      <trkpt lat="49.24248" lon="1.81557">
        <ele>94</ele>
        <time>2015-12-01T10:13:06Z</time>
      </trkpt>
      <trkpt lat="49.24216" lon="1.81542">
        <ele>96</ele>
        <time>2015-12-01T10:15:06Z</time>
      </trkpt>
      <trkpt lat="49.24195" lon="1.81531">
        <ele>97</ele>
        <time>2015-12-01T10:17:06Z</time>
      </trkpt>
      <trkpt lat="49.24176" lon="1.81519">
        <ele>97</ele>
        <time>2015-12-01T10:19:06Z</time>
      </trkpt>
      <trkpt lat="49.24166" lon="1.81513">
        <ele>97</ele>
        <time>2015-12-01T10:21:06Z</time>
      </trkpt>
      <trkpt lat="49.24156" lon="1.81503">
        <ele>98</ele>
        <time>2015-12-01T10:23:06Z</time>
      </trkpt>
      <trkpt lat="49.24148" lon="1.81493">
        <ele>99</ele>
        <time>2015-12-01T10:25:06Z</time>
      </trkpt>
      <trkpt lat="49.2414" lon="1.81484">
        <ele>100</ele>
        <time>2015-12-01T10:27:06Z</time>
      </trkpt>
      <trkpt lat="49.24135" lon="1.81471">
        <ele>101</ele>
        <time>2015-12-01T10:29:06Z</time>
      </trkpt>
      <trkpt lat="49.24139" lon="1.81458">
        <ele>100</ele>
        <time>2015-12-01T10:31:06Z</time>
      </trkpt>
      <trkpt lat="49.24144" lon="1.81447">
        <ele>100</ele>
        <time>2015-12-01T10:33:06Z</time>
      </trkpt>
      <trkpt lat="49.24152" lon="1.81436">
        <ele>99</ele>
        <time>2015-12-01T10:35:06Z</time>
      </trkpt>
      <trkpt lat="49.24161" lon="1.81426">
        <ele>98</ele>
        <time>2015-12-01T10:37:06Z</time>
      </trkpt>
      <trkpt lat="49.24171" lon="1.81417">
        <ele>97</ele>
        <time>2015-12-01T10:39:06Z</time>
      </trkpt>
      <trkpt lat="49.2418" lon="1.81409">
        <ele>97</ele>
        <time>2015-12-01T10:41:06Z</time>
      </trkpt>
      <trkpt lat="49.24202" lon="1.814">
        <ele>98</ele>
        <time>2015-12-01T10:43:06Z</time>
      </trkpt>
      <trkpt lat="49.24226" lon="1.81398">
        <ele>98</ele>
        <time>2015-12-01T10:45:06Z</time>
      </trkpt>
      <trkpt lat="49.24237" lon="1.81399">
        <ele>98</ele>
        <time>2015-12-01T10:47:06Z</time>
      </trkpt>
      <trkpt lat="49.24249" lon="1.81399">
        <ele>98</ele>
        <time>2015-12-01T10:49:06Z</time>
      </trkpt>
      <trkpt lat="49.2426" lon="1.81398">
        <ele>97</ele>
        <time>2015-12-01T10:51:06Z</time>
      </trkpt>
      <trkpt lat="49.2428" lon="1.81395">
        <ele>97</ele>
        <time>2015-12-01T10:53:06Z</time>
      </trkpt>
      <trkpt lat="49.24289" lon="1.81395">
        <ele>97</ele>
        <time>2015-12-01T10:55:06Z</time>
      </trkpt>
      <trkpt lat="49.243" lon="1.8139">
        <ele>97</ele>
        <time>2015-12-01T10:57:06Z</time>
      </trkpt>
      <trkpt lat="49.2431" lon="1.81385">
        <ele>98</ele>
        <time>2015-12-01T10:59:06Z</time>
      </trkpt>
      <trkpt lat="49.2432" lon="1.81382">
        <ele>98</ele>
        <time>2015-12-01T11:01:06Z</time>
      </trkpt>
      <trkpt lat="49.24329" lon="1.81379">
        <ele>98</ele>
        <time>2015-12-01T11:03:06Z</time>
      </trkpt>
      <trkpt lat="49.24338" lon="1.81376">
        <ele>98</ele>
        <time>2015-12-01T11:05:06Z</time>
      </trkpt>
      <trkpt lat="49.24346" lon="1.81367">
        <ele>98</ele>
        <time>2015-12-01T11:07:06Z</time>
      </trkpt>
      <trkpt lat="49.24345" lon="1.81353">
        <ele>100</ele>
        <time>2015-12-01T11:09:06Z</time>
      </trkpt>
      <trkpt lat="49.24336" lon="1.81343">
        <ele>101</ele>
        <time>2015-12-01T11:11:06Z</time>
      </trkpt>
      <trkpt lat="49.24327" lon="1.81338">
        <ele>102</ele>
        <time>2015-12-01T11:13:06Z</time>
      </trkpt>
      <trkpt lat="49.24308" lon="1.81327">
        <ele>104</ele>
        <time>2015-12-01T11:15:06Z</time>
      </trkpt>
      <trkpt lat="49.243" lon="1.81319">
        <ele>105</ele>
        <time>2015-12-01T11:17:06Z</time>
      </trkpt>
      <trkpt lat="49.24294" lon="1.81308">
        <ele>107</ele>
        <time>2015-12-01T11:19:06Z</time>
      </trkpt>
      <trkpt lat="49.2429" lon="1.81295">
        <ele>108</ele>
        <time>2015-12-01T11:21:06Z</time>
      </trkpt>
      <trkpt lat="49.24289" lon="1.81281">
        <ele>109</ele>
        <time>2015-12-01T11:23:06Z</time>
      </trkpt>
      <trkpt lat="49.24285" lon="1.81268">
        <ele>111</ele>
        <time>2015-12-01T11:25:06Z</time>
      </trkpt>
      <trkpt lat="49.24282" lon="1.81253">
        <ele>112</ele>
        <time>2015-12-01T11:27:06Z</time>
      </trkpt>
      <trkpt lat="49.2428" lon="1.81238">
        <ele>113</ele>
        <time>2015-12-01T11:29:06Z</time>
      </trkpt>
      <trkpt lat="49.24279" lon="1.81221">
        <ele>114</ele>
        <time>2015-12-01T11:31:06Z</time>
      </trkpt>
      <trkpt lat="49.24281" lon="1.81206">
        <ele>114</ele>
        <time>2015-12-01T11:33:06Z</time>
      </trkpt>
      <trkpt lat="49.24281" lon="1.8119">
        <ele>115</ele>
        <time>2015-12-01T11:35:06Z</time>
      </trkpt>
      <trkpt lat="49.24283" lon="1.81124">
        <ele>117</ele>
        <time>2015-12-01T11:37:06Z</time>
      </trkpt>
      <trkpt lat="49.24283" lon="1.81096">
        <ele>118</ele>
        <time>2015-12-01T11:39:06Z</time>
      </trkpt>
      <trkpt lat="49.24283" lon="1.81081">
        <ele>119</ele>
        <time>2015-12-01T11:41:06Z</time>
      </trkpt>
      <trkpt lat="49.24281" lon="1.81049">
        <ele>118</ele>
        <time>2015-12-01T11:43:06Z</time>
      </trkpt>
      <trkpt lat="49.2428" lon="1.81033">
        <ele>118</ele>
        <time>2015-12-01T11:45:06Z</time>
      </trkpt>
      <trkpt lat="49.24279" lon="1.81017">
        <ele>118</ele>
        <time>2015-12-01T11:47:06Z</time>
      </trkpt>
      <trkpt lat="49.24277" lon="1.81001">
        <ele>118</ele>
        <time>2015-12-01T11:49:06Z</time>
      </trkpt>
      <trkpt lat="49.24275" lon="1.80985">
        <ele>117</ele>
        <time>2015-12-01T11:51:06Z</time>
      </trkpt>
      <trkpt lat="49.24273" lon="1.80969">
        <ele>117</ele>
        <time>2015-12-01T11:53:06Z</time>
      </trkpt>
      <trkpt lat="49.24272" lon="1.80951">
        <ele>117</ele>
        <time>2015-12-01T11:55:06Z</time>
      </trkpt>
      <trkpt lat="49.24269" lon="1.80937">
        <ele>116</ele>
        <time>2015-12-01T11:57:06Z</time>
      </trkpt>
      <trkpt lat="49.24263" lon="1.80924">
        <ele>117</ele>
        <time>2015-12-01T11:59:06Z</time>
      </trkpt>
      <trkpt lat="49.24258" lon="1.80908">
        <ele>117</ele>
        <time>2015-12-01T12:01:06Z</time>
      </trkpt>
      <trkpt lat="49.24252" lon="1.80891">
        <ele>117</ele>
        <time>2015-12-01T12:03:06Z</time>
      </trkpt>
      <trkpt lat="49.24246" lon="1.80874">
        <ele>118</ele>
        <time>2015-12-01T12:05:06Z</time>
      </trkpt>
      <trkpt lat="49.24244" lon="1.80857">
        <ele>118</ele>
        <time>2015-12-01T12:07:06Z</time>
      </trkpt>
      <trkpt lat="49.24244" lon="1.80842">
        <ele>118</ele>
        <time>2015-12-01T12:09:06Z</time>
      </trkpt>
      <trkpt lat="49.24247" lon="1.80824">
        <ele>117</ele>
        <time>2015-12-01T12:11:06Z</time>
      </trkpt>
      <trkpt lat="49.24248" lon="1.80809">
        <ele>117</ele>
        <time>2015-12-01T12:13:06Z</time>
      </trkpt>
      <trkpt lat="49.24253" lon="1.8078">
        <ele>117</ele>
        <time>2015-12-01T12:15:06Z</time>
      </trkpt>
      <trkpt lat="49.24253" lon="1.80766">
        <ele>117</ele>
        <time>2015-12-01T12:17:06Z</time>
      </trkpt>
      <trkpt lat="49.24254" lon="1.80752">
        <ele>117</ele>
        <time>2015-12-01T12:19:06Z</time>
      </trkpt>
      <trkpt lat="49.24257" lon="1.80735">
        <ele>117</ele>
        <time>2015-12-01T12:21:06Z</time>
      </trkpt>
      <trkpt lat="49.2426" lon="1.80718">
        <ele>116</ele>
        <time>2015-12-01T12:23:06Z</time>
      </trkpt>
      <trkpt lat="49.24263" lon="1.80702">
        <ele>116</ele>
        <time>2015-12-01T12:25:06Z</time>
      </trkpt>
      <trkpt lat="49.24263" lon="1.80685">
        <ele>116</ele>
        <time>2015-12-01T12:27:06Z</time>
      </trkpt>
      <trkpt lat="49.24266" lon="1.80669">
        <ele>115</ele>
        <time>2015-12-01T12:29:06Z</time>
      </trkpt>
      <trkpt lat="49.24268" lon="1.80652">
        <ele>116</ele>
        <time>2015-12-01T12:31:06Z</time>
      </trkpt>
      <trkpt lat="49.24271" lon="1.80634">
        <ele>116</ele>
        <time>2015-12-01T12:33:06Z</time>
      </trkpt>
      <trkpt lat="49.24273" lon="1.8062">
        <ele>116</ele>
        <time>2015-12-01T12:35:06Z</time>
      </trkpt>
      <trkpt lat="49.24275" lon="1.80602">
        <ele>116</ele>
        <time>2015-12-01T12:37:06Z</time>
      </trkpt>
      <trkpt lat="49.24278" lon="1.80572">
        <ele>116</ele>
        <time>2015-12-01T12:39:06Z</time>
      </trkpt>
      <trkpt lat="49.24281" lon="1.80555">
        <ele>115</ele>
        <time>2015-12-01T12:41:06Z</time>
      </trkpt>
      <trkpt lat="49.24283" lon="1.80539">
        <ele>115</ele>
        <time>2015-12-01T12:43:06Z</time>
      </trkpt>
      <trkpt lat="49.24286" lon="1.80506">
        <ele>114</ele>
        <time>2015-12-01T12:45:06Z</time>
      </trkpt>
      <trkpt lat="49.24285" lon="1.8049">
        <ele>114</ele>
        <time>2015-12-01T12:47:06Z</time>
      </trkpt>
      <trkpt lat="49.24284" lon="1.80476">
        <ele>113</ele>
        <time>2015-12-01T12:49:06Z</time>
      </trkpt>
      <trkpt lat="49.24283" lon="1.80461">
        <ele>113</ele>
        <time>2015-12-01T12:51:06Z</time>
      </trkpt>
      <trkpt lat="49.24282" lon="1.80447">
        <ele>113</ele>
        <time>2015-12-01T12:53:06Z</time>
      </trkpt>
      <trkpt lat="49.24278" lon="1.8043">
        <ele>113</ele>
        <time>2015-12-01T12:55:06Z</time>
      </trkpt>
      <trkpt lat="49.24273" lon="1.80414">
        <ele>113</ele>
        <time>2015-12-01T12:57:06Z</time>
      </trkpt>
      <trkpt lat="49.24267" lon="1.80399">
        <ele>113</ele>
        <time>2015-12-01T12:59:06Z</time>
      </trkpt>
      <trkpt lat="49.2426" lon="1.80387">
        <ele>114</ele>
        <time>2015-12-01T13:01:06Z</time>
      </trkpt>
      <trkpt lat="49.24253" lon="1.80372">
        <ele>114</ele>
        <time>2015-12-01T13:03:06Z</time>
      </trkpt>
      <trkpt lat="49.24248" lon="1.80355">
        <ele>114</ele>
        <time>2015-12-01T13:05:06Z</time>
      </trkpt>
      <trkpt lat="49.24245" lon="1.80338">
        <ele>114</ele>
        <time>2015-12-01T13:07:06Z</time>
      </trkpt>
      <trkpt lat="49.24244" lon="1.80321">
        <ele>114</ele>
        <time>2015-12-01T13:09:06Z</time>
      </trkpt>
      <trkpt lat="49.24245" lon="1.80306">
        <ele>115</ele>
        <time>2015-12-01T13:11:06Z</time>
      </trkpt>
      <trkpt lat="49.24247" lon="1.80291">
        <ele>115</ele>
        <time>2015-12-01T13:13:06Z</time>
      </trkpt>
      <trkpt lat="49.24249" lon="1.80274">
        <ele>115</ele>
        <time>2015-12-01T13:15:06Z</time>
      </trkpt>
      <trkpt lat="49.24253" lon="1.8026">
        <ele>115</ele>
        <time>2015-12-01T13:17:06Z</time>
      </trkpt>
      <trkpt lat="49.24256" lon="1.80246">
        <ele>115</ele>
        <time>2015-12-01T13:19:06Z</time>
      </trkpt>
      <trkpt lat="49.24258" lon="1.80231">
        <ele>115</ele>
        <time>2015-12-01T13:21:06Z</time>
      </trkpt>
      <trkpt lat="49.24262" lon="1.80213">
        <ele>115</ele>
        <time>2015-12-01T13:23:06Z</time>
      </trkpt>
      <trkpt lat="49.24265" lon="1.80196">
        <ele>115</ele>
        <time>2015-12-01T13:25:06Z</time>
      </trkpt>
      <trkpt lat="49.24269" lon="1.80165">
        <ele>115</ele>
        <time>2015-12-01T13:27:06Z</time>
      </trkpt>
      <trkpt lat="49.24268" lon="1.80151">
        <ele>116</ele>
        <time>2015-12-01T13:29:06Z</time>
      </trkpt>
      <trkpt lat="49.24262" lon="1.8014">
        <ele>118</ele>
        <time>2015-12-01T13:31:06Z</time>
      </trkpt>
      <trkpt lat="49.2426" lon="1.80126">
        <ele>119</ele>
        <time>2015-12-01T13:33:06Z</time>
      </trkpt>
      <trkpt lat="49.24261" lon="1.80111">
        <ele>119</ele>
        <time>2015-12-01T13:35:06Z</time>
      </trkpt>
      <trkpt lat="49.24262" lon="1.80098">
        <ele>119</ele>
        <time>2015-12-01T13:37:06Z</time>
      </trkpt>
      <trkpt lat="49.24265" lon="1.80067">
        <ele>120</ele>
        <time>2015-12-01T13:39:06Z</time>
      </trkpt>
      <trkpt lat="49.24264" lon="1.80053">
        <ele>121</ele>
        <time>2015-12-01T13:41:06Z</time>
      </trkpt>
      <trkpt lat="49.24264" lon="1.80038">
        <ele>121</ele>
        <time>2015-12-01T13:43:06Z</time>
      </trkpt>
      <trkpt lat="49.24262" lon="1.80023">
        <ele>122</ele>
        <time>2015-12-01T13:45:06Z</time>
      </trkpt>
      <trkpt lat="49.24259" lon="1.8001">
        <ele>123</ele>
        <time>2015-12-01T13:47:06Z</time>
      </trkpt>
      <trkpt lat="49.24255" lon="1.79996">
        <ele>125</ele>
        <time>2015-12-01T13:49:06Z</time>
      </trkpt>
      <trkpt lat="49.24248" lon="1.79984">
        <ele>126</ele>
        <time>2015-12-01T13:51:06Z</time>
      </trkpt>
      <trkpt lat="49.24241" lon="1.79975">
        <ele>127</ele>
        <time>2015-12-01T13:53:06Z</time>
      </trkpt>
      <trkpt lat="49.24234" lon="1.79964">
        <ele>127</ele>
        <time>2015-12-01T13:55:06Z</time>
      </trkpt>
      <trkpt lat="49.24218" lon="1.79951">
        <ele>128</ele>
        <time>2015-12-01T13:57:06Z</time>
      </trkpt>
      <trkpt lat="49.2421" lon="1.79943">
        <ele>129</ele>
        <time>2015-12-01T13:59:06Z</time>
      </trkpt>
      <trkpt lat="49.24204" lon="1.79933">
        <ele>129</ele>
        <time>2015-12-01T14:01:06Z</time>
      </trkpt>
      <trkpt lat="49.24195" lon="1.79925">
        <ele>129</ele>
        <time>2015-12-01T14:03:06Z</time>
      </trkpt>
      <trkpt lat="49.24186" lon="1.7992">
        <ele>130</ele>
        <time>2015-12-01T14:05:06Z</time>
      </trkpt>
      <trkpt lat="49.24179" lon="1.79909">
        <ele>130</ele>
        <time>2015-12-01T14:07:06Z</time>
      </trkpt>
      <trkpt lat="49.24182" lon="1.79893">
        <ele>130</ele>
        <time>2015-12-01T14:09:06Z</time>
      </trkpt>
      <trkpt lat="49.24188" lon="1.7988">
        <ele>130</ele>
        <time>2015-12-01T14:11:06Z</time>
      </trkpt>
      <trkpt lat="49.24222" lon="1.7981">
        <ele>129</ele>
        <time>2015-12-01T14:13:06Z</time>
      </trkpt>
      <trkpt lat="49.2423" lon="1.79795">
        <ele>129</ele>
        <time>2015-12-01T14:15:06Z</time>
      </trkpt>
      <trkpt lat="49.24237" lon="1.79779">
        <ele>129</ele>
        <time>2015-12-01T14:17:06Z</time>
      </trkpt>
      <trkpt lat="49.24253" lon="1.79748">
        <ele>129</ele>
        <time>2015-12-01T14:19:06Z</time>
      </trkpt>
      <trkpt lat="49.24276" lon="1.79703">
        <ele>129</ele>
        <time>2015-12-01T14:21:06Z</time>
      </trkpt>
      <trkpt lat="49.24291" lon="1.79671">
        <ele>129</ele>
        <time>2015-12-01T14:23:06Z</time>
      </trkpt>
      <trkpt lat="49.24299" lon="1.79656">
        <ele>129</ele>
        <time>2015-12-01T14:25:06Z</time>
      </trkpt>
      <trkpt lat="49.24307" lon="1.79641">
        <ele>129</ele>
        <time>2015-12-01T14:27:06Z</time>
      </trkpt>
      <trkpt lat="49.24323" lon="1.79611">
        <ele>129</ele>
        <time>2015-12-01T14:29:06Z</time>
      </trkpt>
      <trkpt lat="49.24339" lon="1.79579">
        <ele>129</ele>
        <time>2015-12-01T14:31:06Z</time>
      </trkpt>
      <trkpt lat="49.24347" lon="1.79563">
        <ele>129</ele>
        <time>2015-12-01T14:33:06Z</time>
      </trkpt>
      <trkpt lat="49.24363" lon="1.7953">
        <ele>130</ele>
        <time>2015-12-01T14:35:06Z</time>
      </trkpt>
      <trkpt lat="49.24379" lon="1.79495">
        <ele>129</ele>
        <time>2015-12-01T14:37:06Z</time>
      </trkpt>
      <trkpt lat="49.24402" lon="1.79449">
        <ele>129</ele>
        <time>2015-12-01T14:39:06Z</time>
      </trkpt>
      <trkpt lat="49.24407" lon="1.79438">
        <ele>129</ele>
        <time>2015-12-01T14:41:06Z</time>
      </trkpt>
      <trkpt lat="49.24418" lon="1.79415">
        <ele>129</ele>
        <time>2015-12-01T14:43:06Z</time>
      </trkpt>
      <trkpt lat="49.24449" lon="1.79354">
        <ele>129</ele>
        <time>2015-12-01T14:45:06Z</time>
      </trkpt>
      <trkpt lat="49.24472" lon="1.79309">
        <ele>130</ele>
        <time>2015-12-01T14:47:06Z</time>
      </trkpt>
      <trkpt lat="49.24484" lon="1.79287">
        <ele>131</ele>
        <time>2015-12-01T14:49:06Z</time>
      </trkpt>
      <trkpt lat="49.24508" lon="1.79246">
        <ele>132</ele>
        <time>2015-12-01T14:51:06Z</time>
      </trkpt>
      <trkpt lat="49.24527" lon="1.79216">
        <ele>133</ele>
        <time>2015-12-01T14:53:06Z</time>
      </trkpt>
      <trkpt lat="49.24537" lon="1.79201">
        <ele>133</ele>
        <time>2015-12-01T14:55:06Z</time>
      </trkpt>
      <trkpt lat="49.24546" lon="1.79187">
        <ele>133</ele>
        <time>2015-12-01T14:57:06Z</time>
      </trkpt>
      <trkpt lat="49.24573" lon="1.79152">
        <ele>135</ele>
        <time>2015-12-01T14:59:06Z</time>
      </trkpt>
      <trkpt lat="49.24594" lon="1.79126">
        <ele>135</ele>
        <time>2015-12-01T15:01:06Z</time>
      </trkpt>
      <trkpt lat="49.24605" lon="1.79114">
        <ele>136</ele>
        <time>2015-12-01T15:03:06Z</time>
      </trkpt>
      <trkpt lat="49.24638" lon="1.79082">
        <ele>137</ele>
        <time>2015-12-01T15:05:06Z</time>
      </trkpt>
      <trkpt lat="49.24672" lon="1.79051">
        <ele>137</ele>
        <time>2015-12-01T15:07:06Z</time>
      </trkpt>
      <trkpt lat="49.24683" lon="1.79042">
        <ele>137</ele>
        <time>2015-12-01T15:09:06Z</time>
      </trkpt>
      <trkpt lat="49.24694" lon="1.79033">
        <ele>138</ele>
        <time>2015-12-01T15:11:06Z</time>
      </trkpt>
      <trkpt lat="49.24717" lon="1.79014">
        <ele>138</ele>
        <time>2015-12-01T15:13:06Z</time>
      </trkpt>
      <trkpt lat="49.24729" lon="1.79006">
        <ele>138</ele>
        <time>2015-12-01T15:15:06Z</time>
      </trkpt>
      <trkpt lat="49.24741" lon="1.78998">
        <ele>139</ele>
        <time>2015-12-01T15:17:06Z</time>
      </trkpt>
      <trkpt lat="49.24752" lon="1.78989">
        <ele>139</ele>
        <time>2015-12-01T15:19:06Z</time>
      </trkpt>
      <trkpt lat="49.24763" lon="1.78978">
        <ele>139</ele>
        <time>2015-12-01T15:21:06Z</time>
      </trkpt>
      <trkpt lat="49.24775" lon="1.7897">
        <ele>140</ele>
        <time>2015-12-01T15:23:06Z</time>
      </trkpt>
      <trkpt lat="49.24814" lon="1.78948">
        <ele>140</ele>
        <time>2015-12-01T15:25:06Z</time>
      </trkpt>
      <trkpt lat="49.24822" lon="1.78944">
        <ele>140</ele>
        <time>2015-12-01T15:27:06Z</time>
      </trkpt>
      <trkpt lat="49.24848" lon="1.78932">
        <ele>140</ele>
        <time>2015-12-01T15:29:06Z</time>
      </trkpt>
      <trkpt lat="49.2486" lon="1.78923">
        <ele>140</ele>
        <time>2015-12-01T15:31:06Z</time>
      </trkpt>
      <trkpt lat="49.24869" lon="1.78911">
        <ele>140</ele>
        <time>2015-12-01T15:33:06Z</time>
      </trkpt>
      <trkpt lat="49.24876" lon="1.789">
        <ele>139</ele>
        <time>2015-12-01T15:35:06Z</time>
      </trkpt>
      <trkpt lat="49.24885" lon="1.78897">
        <ele>139</ele>
        <time>2015-12-01T15:37:06Z</time>
      </trkpt>
      <trkpt lat="49.24896" lon="1.78891">
        <ele>139</ele>
        <time>2015-12-01T15:39:06Z</time>
      </trkpt>
      <trkpt lat="49.249" lon="1.78874">
        <ele>138</ele>
        <time>2015-12-01T15:41:06Z</time>
      </trkpt>
      <trkpt lat="49.24899" lon="1.78859">
        <ele>138</ele>
        <time>2015-12-01T15:43:06Z</time>
      </trkpt>
      <trkpt lat="49.24897" lon="1.78844">
        <ele>138</ele>
        <time>2015-12-01T15:45:06Z</time>
      </trkpt>
      <trkpt lat="49.24896" lon="1.78829">
        <ele>138</ele>
        <time>2015-12-01T15:47:06Z</time>
      </trkpt>
      <trkpt lat="49.24896" lon="1.78815">
        <ele>138</ele>
        <time>2015-12-01T15:49:06Z</time>
      </trkpt>
      <trkpt lat="49.24894" lon="1.78798">
        <ele>138</ele>
        <time>2015-12-01T15:51:06Z</time>
      </trkpt>
      <trkpt lat="49.24893" lon="1.78782">
        <ele>139</ele>
        <time>2015-12-01T15:53:06Z</time>
      </trkpt>
      <trkpt lat="49.24891" lon="1.78764">
        <ele>139</ele>
        <time>2015-12-01T15:55:06Z</time>
      </trkpt>
      <trkpt lat="49.24889" lon="1.78747">
        <ele>140</ele>
        <time>2015-12-01T15:57:06Z</time>
      </trkpt>
      <trkpt lat="49.24888" lon="1.7873">
        <ele>140</ele>
        <time>2015-12-01T15:59:06Z</time>
      </trkpt>
      <trkpt lat="49.24887" lon="1.78714">
        <ele>140</ele>
        <time>2015-12-01T16:01:06Z</time>
      </trkpt>
      <trkpt lat="49.24885" lon="1.78697">
        <ele>140</ele>
        <time>2015-12-01T16:03:06Z</time>
      </trkpt>
      <trkpt lat="49.24884" lon="1.78681">
        <ele>140</ele>
        <time>2015-12-01T16:05:06Z</time>
      </trkpt>
      <trkpt lat="49.24882" lon="1.78665">
        <ele>140</ele>
        <time>2015-12-01T16:07:06Z</time>
      </trkpt>
      <trkpt lat="49.24881" lon="1.7865">
        <ele>140</ele>
        <time>2015-12-01T16:09:06Z</time>
      </trkpt>
      <trkpt lat="49.24879" lon="1.78634">
        <ele>140</ele>
        <time>2015-12-01T16:11:06Z</time>
      </trkpt>
      <trkpt lat="49.24875" lon="1.78602">
        <ele>141</ele>
        <time>2015-12-01T16:13:06Z</time>
      </trkpt>
      <trkpt lat="49.24873" lon="1.78586">
        <ele>141</ele>
        <time>2015-12-01T16:15:06Z</time>
      </trkpt>
      <trkpt lat="49.24864" lon="1.78506">
        <ele>141</ele>
        <time>2015-12-01T16:17:06Z</time>
      </trkpt>
      <trkpt lat="49.24863" lon="1.78488">
        <ele>141</ele>
        <time>2015-12-01T16:19:06Z</time>
      </trkpt>
      <trkpt lat="49.24862" lon="1.78473">
        <ele>141</ele>
        <time>2015-12-01T16:21:06Z</time>
      </trkpt>
      <trkpt lat="49.24858" lon="1.78439">
        <ele>141</ele>
        <time>2015-12-01T16:23:06Z</time>
      </trkpt>
      <trkpt lat="49.24853" lon="1.78385">
        <ele>140</ele>
        <time>2015-12-01T16:25:06Z</time>
      </trkpt>
      <trkpt lat="49.24851" lon="1.78365">
        <ele>140</ele>
        <time>2015-12-01T16:27:06Z</time>
      </trkpt>
      <trkpt lat="49.24849" lon="1.78346">
        <ele>139</ele>
        <time>2015-12-01T16:29:06Z</time>
      </trkpt>
      <trkpt lat="49.24848" lon="1.78326">
        <ele>139</ele>
        <time>2015-12-01T16:31:06Z</time>
      </trkpt>
      <trkpt lat="49.24847" lon="1.78307">
        <ele>139</ele>
        <time>2015-12-01T16:33:06Z</time>
      </trkpt>
      <trkpt lat="49.24846" lon="1.78266">
        <ele>138</ele>
        <time>2015-12-01T16:35:06Z</time>
      </trkpt>
      <trkpt lat="49.24848" lon="1.78193">
        <ele>137</ele>
        <time>2015-12-01T16:37:06Z</time>
      </trkpt>
      <trkpt lat="49.24847" lon="1.78177">
        <ele>138</ele>
        <time>2015-12-01T16:39:06Z</time>
      </trkpt>
      <trkpt lat="49.24849" lon="1.78128">
        <ele>138</ele>
        <time>2015-12-01T16:41:06Z</time>
      </trkpt>
      <trkpt lat="49.24849" lon="1.78114">
        <ele>139</ele>
        <time>2015-12-01T16:43:06Z</time>
      </trkpt>
      <trkpt lat="49.24849" lon="1.78066">
        <ele>140</ele>
        <time>2015-12-01T16:45:06Z</time>
      </trkpt>
      <trkpt lat="49.24849" lon="1.78034">
        <ele>139</ele>
        <time>2015-12-01T16:47:06Z</time>
      </trkpt>
      <trkpt lat="49.24851" lon="1.78018">
        <ele>139</ele>
        <time>2015-12-01T16:49:06Z</time>
      </trkpt>
      <trkpt lat="49.24852" lon="1.77999">
        <ele>139</ele>
        <time>2015-12-01T16:51:06Z</time>
      </trkpt>
      <trkpt lat="49.24855" lon="1.77965">
        <ele>139</ele>
        <time>2015-12-01T16:53:06Z</time>
      </trkpt>
      <trkpt lat="49.24864" lon="1.7792">
        <ele>138</ele>
        <time>2015-12-01T16:55:06Z</time>
      </trkpt>
      <trkpt lat="49.24868" lon="1.77907">
        <ele>138</ele>
        <time>2015-12-01T16:57:06Z</time>
      </trkpt>
      <trkpt lat="49.24882" lon="1.77853">
        <ele>136</ele>
        <time>2015-12-01T16:59:06Z</time>
      </trkpt>
      <trkpt lat="49.24886" lon="1.77835">
        <ele>136</ele>
        <time>2015-12-01T17:01:06Z</time>
      </trkpt>
      <trkpt lat="49.24891" lon="1.7782">
        <ele>136</ele>
        <time>2015-12-01T17:03:06Z</time>
      </trkpt>
      <trkpt lat="49.24897" lon="1.77803">
        <ele>137</ele>
        <time>2015-12-01T17:05:06Z</time>
      </trkpt>
      <trkpt lat="49.24907" lon="1.77769">
        <ele>138</ele>
        <time>2015-12-01T17:07:06Z</time>
      </trkpt>
      <trkpt lat="49.24912" lon="1.77751">
        <ele>138</ele>
        <time>2015-12-01T17:09:06Z</time>
      </trkpt>
      <trkpt lat="49.24917" lon="1.77735">
        <ele>138</ele>
        <time>2015-12-01T17:11:06Z</time>
      </trkpt>
      <trkpt lat="49.24921" lon="1.7772">
        <ele>138</ele>
        <time>2015-12-01T17:13:06Z</time>
      </trkpt>
      <trkpt lat="49.24925" lon="1.77701">
        <ele>138</ele>
        <time>2015-12-01T17:15:06Z</time>
      </trkpt>
      <trkpt lat="49.2493" lon="1.77685">
        <ele>137</ele>
        <time>2015-12-01T17:17:06Z</time>
      </trkpt>
      <trkpt lat="49.24935" lon="1.77668">
        <ele>137</ele>
        <time>2015-12-01T17:19:06Z</time>
      </trkpt>
      <trkpt lat="49.2494" lon="1.77655">
        <ele>137</ele>
        <time>2015-12-01T17:21:06Z</time>
      </trkpt>
      <trkpt lat="49.24944" lon="1.77639">
        <ele>137</ele>
        <time>2015-12-01T17:23:06Z</time>
      </trkpt>
      <trkpt lat="49.24947" lon="1.7762">
        <ele>136</ele>
        <time>2015-12-01T17:25:06Z</time>
      </trkpt>
      <trkpt lat="49.24953" lon="1.77585">
        <ele>135</ele>
        <time>2015-12-01T17:27:06Z</time>
      </trkpt>
      <trkpt lat="49.24957" lon="1.77571">
        <ele>135</ele>
        <time>2015-12-01T17:29:06Z</time>
      </trkpt>
      <trkpt lat="49.24962" lon="1.77556">
        <ele>134</ele>
        <time>2015-12-01T17:31:06Z</time>
      </trkpt>
      <trkpt lat="49.24966" lon="1.77541">
        <ele>134</ele>
        <time>2015-12-01T17:33:06Z</time>
      </trkpt>
      <trkpt lat="49.24979" lon="1.77493">
        <ele>133</ele>
        <time>2015-12-01T17:35:06Z</time>
      </trkpt>
      <trkpt lat="49.24984" lon="1.77478">
        <ele>133</ele>
        <time>2015-12-01T17:37:06Z</time>
      </trkpt>
      <trkpt lat="49.24993" lon="1.77447">
        <ele>133</ele>
        <time>2015-12-01T17:39:06Z</time>
      </trkpt>
      <trkpt lat="49.24998" lon="1.77432">
        <ele>133</ele>
        <time>2015-12-01T17:41:06Z</time>
      </trkpt>
      <trkpt lat="49.25006" lon="1.77401">
        <ele>133</ele>
        <time>2015-12-01T17:43:06Z</time>
      </trkpt>
      <trkpt lat="49.25015" lon="1.7737">
        <ele>133</ele>
        <time>2015-12-01T17:45:06Z</time>
      </trkpt>
      <trkpt lat="49.25019" lon="1.77354">
        <ele>133</ele>
        <time>2015-12-01T17:47:06Z</time>
      </trkpt>
      <trkpt lat="49.25023" lon="1.77339">
        <ele>133</ele>
        <time>2015-12-01T17:49:06Z</time>
      </trkpt>
      <trkpt lat="49.25027" lon="1.77323">
        <ele>133</ele>
        <time>2015-12-01T17:51:06Z</time>
      </trkpt>
      <trkpt lat="49.25041" lon="1.77278">
        <ele>132</ele>
        <time>2015-12-01T17:53:06Z</time>
      </trkpt>
      <trkpt lat="49.25055" lon="1.77228">
        <ele>132</ele>
        <time>2015-12-01T17:55:06Z</time>
      </trkpt>
      <trkpt lat="49.25072" lon="1.77164">
        <ele>133</ele>
        <time>2015-12-01T17:57:06Z</time>
      </trkpt>
      <trkpt lat="49.25076" lon="1.77147">
        <ele>133</ele>
        <time>2015-12-01T17:59:06Z</time>
      </trkpt>
      <trkpt lat="49.25083" lon="1.77113">
        <ele>135</ele>
        <time>2015-12-01T18:01:06Z</time>
      </trkpt>
      <trkpt lat="49.25092" lon="1.77079">
        <ele>136</ele>
        <time>2015-12-01T18:03:06Z</time>
      </trkpt>
      <trkpt lat="49.25104" lon="1.7703">
        <ele>139</ele>
        <time>2015-12-01T18:05:06Z</time>
      </trkpt>
      <trkpt lat="49.25107" lon="1.77013">
        <ele>140</ele>
        <time>2015-12-01T18:07:06Z</time>
      </trkpt>
      <trkpt lat="49.2511" lon="1.76996">
        <ele>141</ele>
        <time>2015-12-01T18:09:06Z</time>
      </trkpt>
      <trkpt lat="49.25118" lon="1.76965">
        <ele>141</ele>
        <time>2015-12-01T18:11:06Z</time>
      </trkpt>
      <trkpt lat="49.25121" lon="1.76951">
        <ele>141</ele>
        <time>2015-12-01T18:13:06Z</time>
      </trkpt>
      <trkpt lat="49.25125" lon="1.76937">
        <ele>141</ele>
        <time>2015-12-01T18:15:06Z</time>
      </trkpt>
      <trkpt lat="49.25131" lon="1.76926">
        <ele>141</ele>
        <time>2015-12-01T18:17:06Z</time>
      </trkpt>
      <trkpt lat="49.25134" lon="1.7691">
        <ele>141</ele>
        <time>2015-12-01T18:19:06Z</time>
      </trkpt>
      <trkpt lat="49.25139" lon="1.76899">
        <ele>141</ele>
        <time>2015-12-01T18:21:06Z</time>
      </trkpt>
      <trkpt lat="49.25143" lon="1.76884">
        <ele>141</ele>
        <time>2015-12-01T18:23:06Z</time>
      </trkpt>
      <trkpt lat="49.25148" lon="1.7687">
        <ele>141</ele>
        <time>2015-12-01T18:25:06Z</time>
      </trkpt>
      <trkpt lat="49.25154" lon="1.76855">
        <ele>141</ele>
        <time>2015-12-01T18:27:06Z</time>
      </trkpt>
      <trkpt lat="49.25159" lon="1.76837">
        <ele>141</ele>
        <time>2015-12-01T18:29:06Z</time>
      </trkpt>
      <trkpt lat="49.25164" lon="1.76824">
        <ele>141</ele>
        <time>2015-12-01T18:31:06Z</time>
      </trkpt>
      <trkpt lat="49.25171" lon="1.7681">
        <ele>141</ele>
        <time>2015-12-01T18:33:06Z</time>
      </trkpt>
      <trkpt lat="49.25177" lon="1.76797">
        <ele>142</ele>
        <time>2015-12-01T18:35:06Z</time>
      </trkpt>
      <trkpt lat="49.25181" lon="1.76782">
        <ele>142</ele>
        <time>2015-12-01T18:37:06Z</time>
      </trkpt>
      <trkpt lat="49.25186" lon="1.7677">
        <ele>142</ele>
        <time>2015-12-01T18:39:06Z</time>
      </trkpt>
      <trkpt lat="49.25203" lon="1.76709">
        <ele>143</ele>
        <time>2015-12-01T18:41:06Z</time>
      </trkpt>
      <trkpt lat="49.25212" lon="1.76679">
        <ele>144</ele>
        <time>2015-12-01T18:43:06Z</time>
      </trkpt>
      <trkpt lat="49.25217" lon="1.76665">
        <ele>144</ele>
        <time>2015-12-01T18:45:06Z</time>
      </trkpt>
      <trkpt lat="49.25221" lon="1.7665">
        <ele>145</ele>
        <time>2015-12-01T18:47:06Z</time>
      </trkpt>
      <trkpt lat="49.25225" lon="1.76633">
        <ele>145</ele>
        <time>2015-12-01T18:49:06Z</time>
      </trkpt>
      <trkpt lat="49.2523" lon="1.76619">
        <ele>146</ele>
        <time>2015-12-01T18:51:06Z</time>
      </trkpt>
      <trkpt lat="49.25234" lon="1.76604">
        <ele>147</ele>
        <time>2015-12-01T18:53:06Z</time>
      </trkpt>
      <trkpt lat="49.25238" lon="1.76588">
        <ele>147</ele>
        <time>2015-12-01T18:55:06Z</time>
      </trkpt>
      <trkpt lat="49.25248" lon="1.7656">
        <ele>148</ele>
        <time>2015-12-01T18:57:06Z</time>
      </trkpt>
      <trkpt lat="49.25256" lon="1.76529">
        <ele>148</ele>
        <time>2015-12-01T18:59:06Z</time>
      </trkpt>
      <trkpt lat="49.25261" lon="1.76516">
        <ele>148</ele>
        <time>2015-12-01T19:01:06Z</time>
      </trkpt>
      <trkpt lat="49.25264" lon="1.765">
        <ele>148</ele>
        <time>2015-12-01T19:03:06Z</time>
      </trkpt>
      <trkpt lat="49.25268" lon="1.76483">
        <ele>148</ele>
        <time>2015-12-01T19:05:06Z</time>
      </trkpt>
      <trkpt lat="49.25272" lon="1.76467">
        <ele>148</ele>
        <time>2015-12-01T19:07:06Z</time>
      </trkpt>
      <trkpt lat="49.25277" lon="1.76451">
        <ele>148</ele>
        <time>2015-12-01T19:09:06Z</time>
      </trkpt>
      <trkpt lat="49.2528" lon="1.76434">
        <ele>148</ele>
        <time>2015-12-01T19:11:06Z</time>
      </trkpt>
      <trkpt lat="49.25282" lon="1.76418">
        <ele>148</ele>
        <time>2015-12-01T19:13:06Z</time>
      </trkpt>
      <trkpt lat="49.25283" lon="1.76402">
        <ele>148</ele>
        <time>2015-12-01T19:15:06Z</time>
      </trkpt>
      <trkpt lat="49.25279" lon="1.76385">
        <ele>148</ele>
        <time>2015-12-01T19:17:06Z</time>
      </trkpt>
      <trkpt lat="49.2528" lon="1.76368">
        <ele>148</ele>
        <time>2015-12-01T19:19:06Z</time>
      </trkpt>
      <trkpt lat="49.25278" lon="1.7635">
        <ele>148</ele>
        <time>2015-12-01T19:21:06Z</time>
      </trkpt>
      <trkpt lat="49.25277" lon="1.76331">
        <ele>147</ele>
        <time>2015-12-01T19:23:06Z</time>
      </trkpt>
      <trkpt lat="49.25275" lon="1.76318">
        <ele>147</ele>
        <time>2015-12-01T19:25:06Z</time>
      </trkpt>
      <trkpt lat="49.25273" lon="1.76301">
        <ele>147</ele>
        <time>2015-12-01T19:27:06Z</time>
      </trkpt>
      <trkpt lat="49.2527" lon="1.76281">
        <ele>147</ele>
        <time>2015-12-01T19:29:06Z</time>
      </trkpt>
      <trkpt lat="49.25269" lon="1.76263">
        <ele>147</ele>
        <time>2015-12-01T19:31:06Z</time>
      </trkpt>
      <trkpt lat="49.25267" lon="1.76246">
        <ele>146</ele>
        <time>2015-12-01T19:33:06Z</time>
      </trkpt>
      <trkpt lat="49.25265" lon="1.76227">
        <ele>146</ele>
        <time>2015-12-01T19:35:06Z</time>
      </trkpt>
      <trkpt lat="49.25264" lon="1.76209">
        <ele>146</ele>
        <time>2015-12-01T19:37:06Z</time>
      </trkpt>
      <trkpt lat="49.25261" lon="1.76166">
        <ele>146</ele>
        <time>2015-12-01T19:39:06Z</time>
      </trkpt>
      <trkpt lat="49.2526" lon="1.76151">
        <ele>146</ele>
        <time>2015-12-01T19:41:06Z</time>
      </trkpt>
      <trkpt lat="49.25259" lon="1.76119">
        <ele>146</ele>
        <time>2015-12-01T19:43:06Z</time>
      </trkpt>
      <trkpt lat="49.25259" lon="1.76104">
        <ele>146</ele>
        <time>2015-12-01T19:45:06Z</time>
      </trkpt>
      <trkpt lat="49.25257" lon="1.76072">
        <ele>146</ele>
        <time>2015-12-01T19:47:06Z</time>
      </trkpt>
      <trkpt lat="49.25257" lon="1.76056">
        <ele>145</ele>
        <time>2015-12-01T19:49:06Z</time>
      </trkpt>
      <trkpt lat="49.25257" lon="1.76041">
        <ele>145</ele>
        <time>2015-12-01T19:51:06Z</time>
      </trkpt>
      <trkpt lat="49.25258" lon="1.76002">
        <ele>144</ele>
        <time>2015-12-01T19:53:06Z</time>
      </trkpt>
      <trkpt lat="49.25258" lon="1.75987">
        <ele>144</ele>
        <time>2015-12-01T19:55:06Z</time>
      </trkpt>
      <trkpt lat="49.25258" lon="1.75974">
        <ele>144</ele>
        <time>2015-12-01T19:57:06Z</time>
      </trkpt>
      <trkpt lat="49.25258" lon="1.75944">
        <ele>143</ele>
        <time>2015-12-01T19:59:06Z</time>
      </trkpt>
      <trkpt lat="49.25255" lon="1.75897">
        <ele>142</ele>
        <time>2015-12-01T20:01:06Z</time>
      </trkpt>
      <trkpt lat="49.25253" lon="1.75876">
        <ele>142</ele>
        <time>2015-12-01T20:03:06Z</time>
      </trkpt>
      <trkpt lat="49.25253" lon="1.75855">
        <ele>141</ele>
        <time>2015-12-01T20:05:06Z</time>
      </trkpt>
      <trkpt lat="49.25251" lon="1.75834">
        <ele>140</ele>
        <time>2015-12-01T20:07:06Z</time>
      </trkpt>
      <trkpt lat="49.25249" lon="1.75819">
        <ele>140</ele>
        <time>2015-12-01T20:09:06Z</time>
      </trkpt>
      <trkpt lat="49.25248" lon="1.75806">
        <ele>139</ele>
        <time>2015-12-01T20:11:06Z</time>
      </trkpt>
      <trkpt lat="49.25247" lon="1.75789">
        <ele>139</ele>
        <time>2015-12-01T20:13:06Z</time>
      </trkpt>
      <trkpt lat="49.25247" lon="1.75772">
        <ele>138</ele>
        <time>2015-12-01T20:15:06Z</time>
      </trkpt>
      <trkpt lat="49.25242" lon="1.75727">
        <ele>137</ele>
        <time>2015-12-01T20:17:06Z</time>
      </trkpt>
      <trkpt lat="49.25239" lon="1.75696">
        <ele>136</ele>
        <time>2015-12-01T20:19:06Z</time>
      </trkpt>
      <trkpt lat="49.25236" lon="1.7568">
        <ele>136</ele>
        <time>2015-12-01T20:21:06Z</time>
      </trkpt>
      <trkpt lat="49.25234" lon="1.75664">
        <ele>136</ele>
        <time>2015-12-01T20:23:06Z</time>
      </trkpt>
      <trkpt lat="49.25232" lon="1.7565">
        <ele>136</ele>
        <time>2015-12-01T20:25:06Z</time>
      </trkpt>
      <trkpt lat="49.25231" lon="1.75636">
        <ele>135</ele>
        <time>2015-12-01T20:27:06Z</time>
      </trkpt>
      <trkpt lat="49.2523" lon="1.75617">
        <ele>135</ele>
        <time>2015-12-01T20:29:06Z</time>
      </trkpt>
      <trkpt lat="49.25228" lon="1.75602">
        <ele>135</ele>
        <time>2015-12-01T20:31:06Z</time>
      </trkpt>
      <trkpt lat="49.25226" lon="1.75568">
        <ele>134</ele>
        <time>2015-12-01T20:33:06Z</time>
      </trkpt>
      <trkpt lat="49.25226" lon="1.75554">
        <ele>134</ele>
        <time>2015-12-01T20:35:06Z</time>
      </trkpt>
      <trkpt lat="49.25224" lon="1.75539">
        <ele>134</ele>
        <time>2015-12-01T20:37:06Z</time>
      </trkpt>
      <trkpt lat="49.25222" lon="1.7552">
        <ele>133</ele>
        <time>2015-12-01T20:39:06Z</time>
      </trkpt>
      <trkpt lat="49.25221" lon="1.75506">
        <ele>133</ele>
        <time>2015-12-01T20:41:06Z</time>
      </trkpt>
      <trkpt lat="49.2522" lon="1.75492">
        <ele>133</ele>
        <time>2015-12-01T20:43:06Z</time>
      </trkpt>
      <trkpt lat="49.25219" lon="1.75463">
        <ele>133</ele>
        <time>2015-12-01T20:45:06Z</time>
      </trkpt>
      <trkpt lat="49.2522" lon="1.75434">
        <ele>133</ele>
        <time>2015-12-01T20:47:06Z</time>
      </trkpt>
      <trkpt lat="49.2522" lon="1.75419">
        <ele>132</ele>
        <time>2015-12-01T20:49:06Z</time>
      </trkpt>
      <trkpt lat="49.25221" lon="1.75403">
        <ele>132</ele>
        <time>2015-12-01T20:51:06Z</time>
      </trkpt>
      <trkpt lat="49.25221" lon="1.75372">
        <ele>133</ele>
        <time>2015-12-01T20:53:06Z</time>
      </trkpt>
      <trkpt lat="49.25221" lon="1.75341">
        <ele>133</ele>
        <time>2015-12-01T20:55:06Z</time>
      </trkpt>
      <trkpt lat="49.25221" lon="1.75326">
        <ele>133</ele>
        <time>2015-12-01T20:57:06Z</time>
      </trkpt>
      <trkpt lat="49.25222" lon="1.75298">
        <ele>132</ele>
        <time>2015-12-01T20:59:06Z</time>
      </trkpt>
      <trkpt lat="49.25223" lon="1.75228">
        <ele>132</ele>
        <time>2015-12-01T21:01:06Z</time>
      </trkpt>
      <trkpt lat="49.25224" lon="1.75179">
        <ele>132</ele>
        <time>2015-12-01T21:03:06Z</time>
      </trkpt>
      <trkpt lat="49.25224" lon="1.75166">
        <ele>132</ele>
        <time>2015-12-01T21:05:06Z</time>
      </trkpt>
      <trkpt lat="49.25225" lon="1.75148">
        <ele>132</ele>
        <time>2015-12-01T21:07:06Z</time>
      </trkpt>
      <trkpt lat="49.25225" lon="1.75111">
        <ele>132</ele>
        <time>2015-12-01T21:09:06Z</time>
      </trkpt>
      <trkpt lat="49.25226" lon="1.75078">
        <ele>133</ele>
        <time>2015-12-01T21:11:06Z</time>
      </trkpt>
      <trkpt lat="49.25226" lon="1.75058">
        <ele>133</ele>
        <time>2015-12-01T21:13:06Z</time>
      </trkpt>
      <trkpt lat="49.25226" lon="1.75038">
        <ele>133</ele>
        <time>2015-12-01T21:15:06Z</time>
      </trkpt>
      <trkpt lat="49.25227" lon="1.75018">
        <ele>133</ele>
        <time>2015-12-01T21:17:06Z</time>
      </trkpt>
      <trkpt lat="49.25229" lon="1.7498">
        <ele>133</ele>
        <time>2015-12-01T21:19:06Z</time>
      </trkpt>
      <trkpt lat="49.2523" lon="1.74964">
        <ele>132</ele>
        <time>2015-12-01T21:21:06Z</time>
      </trkpt>
      <trkpt lat="49.25232" lon="1.74949">
        <ele>132</ele>
        <time>2015-12-01T21:23:06Z</time>
      </trkpt>
      <trkpt lat="49.25233" lon="1.74931">
        <ele>132</ele>
        <time>2015-12-01T21:25:06Z</time>
      </trkpt>
      <trkpt lat="49.25232" lon="1.74914">
        <ele>131</ele>
        <time>2015-12-01T21:27:06Z</time>
      </trkpt>
      <trkpt lat="49.25231" lon="1.749">
        <ele>131</ele>
        <time>2015-12-01T21:29:06Z</time>
      </trkpt>
      <trkpt lat="49.2523" lon="1.7488">
        <ele>130</ele>
        <time>2015-12-01T21:31:06Z</time>
      </trkpt>
      <trkpt lat="49.25232" lon="1.74846">
        <ele>129</ele>
        <time>2015-12-01T21:33:06Z</time>
      </trkpt>
      <trkpt lat="49.25232" lon="1.74827">
        <ele>128</ele>
        <time>2015-12-01T21:35:06Z</time>
      </trkpt>
      <trkpt lat="49.25233" lon="1.74761">
        <ele>129</ele>
        <time>2015-12-01T21:37:06Z</time>
      </trkpt>
      <trkpt lat="49.25234" lon="1.74728">
        <ele>130</ele>
        <time>2015-12-01T21:39:06Z</time>
      </trkpt>
      <trkpt lat="49.25235" lon="1.74681">
        <ele>131</ele>
        <time>2015-12-01T21:41:06Z</time>
      </trkpt>
      <trkpt lat="49.25236" lon="1.74666">
        <ele>132</ele>
        <time>2015-12-01T21:43:06Z</time>
      </trkpt>
      <trkpt lat="49.25237" lon="1.74637">
        <ele>132</ele>
        <time>2015-12-01T21:45:06Z</time>
      </trkpt>
      <trkpt lat="49.25237" lon="1.74607">
        <ele>133</ele>
        <time>2015-12-01T21:47:06Z</time>
      </trkpt>
      <trkpt lat="49.25238" lon="1.74579">
        <ele>133</ele>
        <time>2015-12-01T21:49:06Z</time>
      </trkpt>
      <trkpt lat="49.25239" lon="1.74565">
        <ele>133</ele>
        <time>2015-12-01T21:51:06Z</time>
      </trkpt>
      <trkpt lat="49.25243" lon="1.74505">
        <ele>133</ele>
        <time>2015-12-01T21:53:06Z</time>
      </trkpt>
      <trkpt lat="49.2525" lon="1.74445">
        <ele>134</ele>
        <time>2015-12-01T21:55:06Z</time>
      </trkpt>
      <trkpt lat="49.25253" lon="1.74417">
        <ele>134</ele>
        <time>2015-12-01T21:57:06Z</time>
      </trkpt>
      <trkpt lat="49.25256" lon="1.74404">
        <ele>134</ele>
        <time>2015-12-01T21:59:06Z</time>
      </trkpt>
      <trkpt lat="49.25258" lon="1.74391">
        <ele>135</ele>
        <time>2015-12-01T22:01:06Z</time>
      </trkpt>
      <trkpt lat="49.25261" lon="1.74377">
        <ele>135</ele>
        <time>2015-12-01T22:03:06Z</time>
      </trkpt>
      <trkpt lat="49.25267" lon="1.7435">
        <ele>136</ele>
        <time>2015-12-01T22:05:06Z</time>
      </trkpt>
      <trkpt lat="49.2527" lon="1.74336">
        <ele>136</ele>
        <time>2015-12-01T22:07:06Z</time>
      </trkpt>
      <trkpt lat="49.25272" lon="1.74321">
        <ele>136</ele>
        <time>2015-12-01T22:09:06Z</time>
      </trkpt>
      <trkpt lat="49.25274" lon="1.74307">
        <ele>136</ele>
        <time>2015-12-01T22:11:06Z</time>
      </trkpt>
      <trkpt lat="49.25277" lon="1.74293">
        <ele>136</ele>
        <time>2015-12-01T22:13:06Z</time>
      </trkpt>
      <trkpt lat="49.25284" lon="1.74265">
        <ele>136</ele>
        <time>2015-12-01T22:15:06Z</time>
      </trkpt>
      <trkpt lat="49.25293" lon="1.74221">
        <ele>136</ele>
        <time>2015-12-01T22:17:06Z</time>
      </trkpt>
      <trkpt lat="49.25295" lon="1.74207">
        <ele>136</ele>
        <time>2015-12-01T22:19:06Z</time>
      </trkpt>
      <trkpt lat="49.25307" lon="1.74148">
        <ele>136</ele>
        <time>2015-12-01T22:21:06Z</time>
      </trkpt>
      <trkpt lat="49.2531" lon="1.74134">
        <ele>136</ele>
        <time>2015-12-01T22:23:06Z</time>
      </trkpt>
      <trkpt lat="49.25313" lon="1.74119">
        <ele>136</ele>
        <time>2015-12-01T22:25:06Z</time>
      </trkpt>
      <trkpt lat="49.25325" lon="1.74055">
        <ele>136</ele>
        <time>2015-12-01T22:27:06Z</time>
      </trkpt>
      <trkpt lat="49.25331" lon="1.74021">
        <ele>136</ele>
        <time>2015-12-01T22:29:06Z</time>
      </trkpt>
      <trkpt lat="49.25346" lon="1.7394">
        <ele>136</ele>
        <time>2015-12-01T22:31:06Z</time>
      </trkpt>
      <trkpt lat="49.25365" lon="1.73842">
        <ele>135</ele>
        <time>2015-12-01T22:33:06Z</time>
      </trkpt>
      <trkpt lat="49.25372" lon="1.73811">
        <ele>135</ele>
        <time>2015-12-01T22:35:06Z</time>
      </trkpt>
      <trkpt lat="49.25374" lon="1.73796">
        <ele>135</ele>
        <time>2015-12-01T22:37:06Z</time>
      </trkpt>
      <trkpt lat="49.25378" lon="1.73781">
        <ele>135</ele>
        <time>2015-12-01T22:39:06Z</time>
      </trkpt>
      <trkpt lat="49.25381" lon="1.73763">
        <ele>135</ele>
        <time>2015-12-01T22:41:06Z</time>
      </trkpt>
      <trkpt lat="49.25384" lon="1.73747">
        <ele>135</ele>
        <time>2015-12-01T22:43:06Z</time>
      </trkpt>
      <trkpt lat="49.25386" lon="1.73728">
        <ele>135</ele>
        <time>2015-12-01T22:45:06Z</time>
      </trkpt>
      <trkpt lat="49.25393" lon="1.73692">
        <ele>135</ele>
        <time>2015-12-01T22:47:06Z</time>
      </trkpt>
      <trkpt lat="49.25397" lon="1.73674">
        <ele>135</ele>
        <time>2015-12-01T22:49:06Z</time>
      </trkpt>
      <trkpt lat="49.25399" lon="1.7366">
        <ele>135</ele>
        <time>2015-12-01T22:51:06Z</time>
      </trkpt>
      <trkpt lat="49.25404" lon="1.73642">
        <ele>135</ele>
        <time>2015-12-01T22:53:06Z</time>
      </trkpt>
      <trkpt lat="49.25406" lon="1.73623">
        <ele>135</ele>
        <time>2015-12-01T22:55:06Z</time>
      </trkpt>
      <trkpt lat="49.25414" lon="1.73585">
        <ele>134</ele>
        <time>2015-12-01T22:57:06Z</time>
      </trkpt>
      <trkpt lat="49.25417" lon="1.73566">
        <ele>134</ele>
        <time>2015-12-01T22:59:06Z</time>
      </trkpt>
      <trkpt lat="49.25421" lon="1.73547">
        <ele>134</ele>
        <time>2015-12-01T23:01:06Z</time>
      </trkpt>
      <trkpt lat="49.25425" lon="1.73528">
        <ele>134</ele>
        <time>2015-12-01T23:03:06Z</time>
      </trkpt>
      <trkpt lat="49.25432" lon="1.73496">
        <ele>134</ele>
        <time>2015-12-01T23:05:06Z</time>
      </trkpt>
      <trkpt lat="49.25439" lon="1.7346">
        <ele>134</ele>
        <time>2015-12-01T23:07:06Z</time>
      </trkpt>
      <trkpt lat="49.25447" lon="1.73424">
        <ele>135</ele>
        <time>2015-12-01T23:09:06Z</time>
      </trkpt>
      <trkpt lat="49.25452" lon="1.73394">
        <ele>135</ele>
        <time>2015-12-01T23:11:06Z</time>
      </trkpt>
      <trkpt lat="49.25454" lon="1.73378">
        <ele>136</ele>
        <time>2015-12-01T23:13:06Z</time>
      </trkpt>
      <trkpt lat="49.25456" lon="1.73363">
        <ele>136</ele>
        <time>2015-12-01T23:15:06Z</time>
      </trkpt>
      <trkpt lat="49.25458" lon="1.73345">
        <ele>136</ele>
        <time>2015-12-01T23:17:06Z</time>
      </trkpt>
      <trkpt lat="49.25462" lon="1.73329">
        <ele>137</ele>
        <time>2015-12-01T23:19:06Z</time>
      </trkpt>
      <trkpt lat="49.25474" lon="1.73281">
        <ele>137</ele>
        <time>2015-12-01T23:21:06Z</time>
      </trkpt>
      <trkpt lat="49.25477" lon="1.73264">
        <ele>137</ele>
        <time>2015-12-01T23:23:06Z</time>
      </trkpt>
      <trkpt lat="49.25482" lon="1.73248">
        <ele>138</ele>
        <time>2015-12-01T23:25:06Z</time>
      </trkpt>
      <trkpt lat="49.25485" lon="1.7323">
        <ele>138</ele>
        <time>2015-12-01T23:27:06Z</time>
      </trkpt>
      <trkpt lat="49.25488" lon="1.73212">
        <ele>138</ele>
        <time>2015-12-01T23:29:06Z</time>
      </trkpt>
      <trkpt lat="49.25495" lon="1.73178">
        <ele>138</ele>
        <time>2015-12-01T23:31:06Z</time>
      </trkpt>
      <trkpt lat="49.25504" lon="1.73146">
        <ele>138</ele>
        <time>2015-12-01T23:33:06Z</time>
      </trkpt>
      <trkpt lat="49.25507" lon="1.73128">
        <ele>138</ele>
        <time>2015-12-01T23:35:06Z</time>
      </trkpt>
      <trkpt lat="49.25514" lon="1.73094">
        <ele>138</ele>
        <time>2015-12-01T23:37:06Z</time>
      </trkpt>
      <trkpt lat="49.25521" lon="1.73064">
        <ele>138</ele>
        <time>2015-12-01T23:39:06Z</time>
      </trkpt>
      <trkpt lat="49.25524" lon="1.73046">
        <ele>138</ele>
        <time>2015-12-01T23:41:06Z</time>
      </trkpt>
      <trkpt lat="49.25533" lon="1.72988">
        <ele>139</ele>
        <time>2015-12-01T23:43:06Z</time>
      </trkpt>
      <trkpt lat="49.25536" lon="1.72972">
        <ele>139</ele>
        <time>2015-12-01T23:45:06Z</time>
      </trkpt>
      <trkpt lat="49.25537" lon="1.72954">
        <ele>139</ele>
        <time>2015-12-01T23:47:06Z</time>
      </trkpt>
      <trkpt lat="49.25536" lon="1.7294">
        <ele>139</ele>
        <time>2015-12-01T23:49:06Z</time>
      </trkpt>
      <trkpt lat="49.25534" lon="1.72925">
        <ele>139</ele>
        <time>2015-12-01T23:51:06Z</time>
      </trkpt>
      <trkpt lat="49.25533" lon="1.72908">
        <ele>138</ele>
        <time>2015-12-01T23:53:06Z</time>
      </trkpt>
      <trkpt lat="49.25529" lon="1.72855">
        <ele>137</ele>
        <time>2015-12-01T23:55:06Z</time>
      </trkpt>
      <trkpt lat="49.25529" lon="1.72841">
        <ele>137</ele>
        <time>2015-12-01T23:57:06Z</time>
      </trkpt>
      <trkpt lat="49.2553" lon="1.72809">
        <ele>136</ele>
        <time>2015-12-01T23:59:06Z</time>
      </trkpt>
      <trkpt lat="49.2553" lon="1.72793">
        <ele>136</ele>
        <time>2015-12-02T00:01:06Z</time>
      </trkpt>
      <trkpt lat="49.25526" lon="1.72778">
        <ele>135</ele>
        <time>2015-12-02T00:03:06Z</time>
      </trkpt>
      <trkpt lat="49.2552" lon="1.72751">
        <ele>135</ele>
        <time>2015-12-02T00:05:06Z</time>
      </trkpt>
      <trkpt lat="49.25517" lon="1.72732">
        <ele>134</ele>
        <time>2015-12-02T00:07:06Z</time>
      </trkpt>
      <trkpt lat="49.25513" lon="1.72713">
        <ele>133</ele>
        <time>2015-12-02T00:09:06Z</time>
      </trkpt>
      <trkpt lat="49.25507" lon="1.72675">
        <ele>131</ele>
        <time>2015-12-02T00:11:06Z</time>
      </trkpt>
      <trkpt lat="49.25504" lon="1.72656">
        <ele>130</ele>
        <time>2015-12-02T00:13:06Z</time>
      </trkpt>
      <trkpt lat="49.255" lon="1.72626">
        <ele>129</ele>
        <time>2015-12-02T00:15:06Z</time>
      </trkpt>
      <trkpt lat="49.25499" lon="1.72612">
        <ele>128</ele>
        <time>2015-12-02T00:17:06Z</time>
      </trkpt>
      <trkpt lat="49.25495" lon="1.72596">
        <ele>127</ele>
        <time>2015-12-02T00:19:06Z</time>
      </trkpt>
      <trkpt lat="49.25493" lon="1.7258">
        <ele>126</ele>
        <time>2015-12-02T00:21:06Z</time>
      </trkpt>
      <trkpt lat="49.25492" lon="1.72564">
        <ele>125</ele>
        <time>2015-12-02T00:23:06Z</time>
      </trkpt>
      <trkpt lat="49.2549" lon="1.72548">
        <ele>124</ele>
        <time>2015-12-02T00:25:06Z</time>
      </trkpt>
      <trkpt lat="49.25487" lon="1.7253">
        <ele>123</ele>
        <time>2015-12-02T00:27:06Z</time>
      </trkpt>
      <trkpt lat="49.25483" lon="1.72512">
        <ele>122</ele>
        <time>2015-12-02T00:29:06Z</time>
      </trkpt>
      <trkpt lat="49.2548" lon="1.72498">
        <ele>121</ele>
        <time>2015-12-02T00:31:06Z</time>
      </trkpt>
      <trkpt lat="49.25478" lon="1.72483">
        <ele>121</ele>
        <time>2015-12-02T00:33:06Z</time>
      </trkpt>
      <trkpt lat="49.25475" lon="1.72466">
        <ele>120</ele>
        <time>2015-12-02T00:35:06Z</time>
      </trkpt>
      <trkpt lat="49.25473" lon="1.72449">
        <ele>119</ele>
        <time>2015-12-02T00:37:06Z</time>
      </trkpt>
      <trkpt lat="49.25469" lon="1.72417">
        <ele>118</ele>
        <time>2015-12-02T00:39:06Z</time>
      </trkpt>
      <trkpt lat="49.25467" lon="1.724">
        <ele>117</ele>
        <time>2015-12-02T00:41:06Z</time>
      </trkpt>
      <trkpt lat="49.25466" lon="1.72383">
        <ele>117</ele>
        <time>2015-12-02T00:43:06Z</time>
      </trkpt>
      <trkpt lat="49.25465" lon="1.72365">
        <ele>116</ele>
        <time>2015-12-02T00:45:06Z</time>
      </trkpt>
      <trkpt lat="49.25466" lon="1.72348">
        <ele>116</ele>
        <time>2015-12-02T00:47:06Z</time>
      </trkpt>
      <trkpt lat="49.2547" lon="1.72333">
        <ele>116</ele>
        <time>2015-12-02T00:49:06Z</time>
      </trkpt>
      <trkpt lat="49.25474" lon="1.72317">
        <ele>115</ele>
        <time>2015-12-02T00:51:06Z</time>
      </trkpt>
      <trkpt lat="49.25478" lon="1.72304">
        <ele>114</ele>
        <time>2015-12-02T00:53:06Z</time>
      </trkpt>
      <trkpt lat="49.2549" lon="1.72256">
        <ele>112</ele>
        <time>2015-12-02T00:55:06Z</time>
      </trkpt>
      <trkpt lat="49.25495" lon="1.72242">
        <ele>111</ele>
        <time>2015-12-02T00:57:06Z</time>
      </trkpt>
      <trkpt lat="49.255" lon="1.72229">
        <ele>110</ele>
        <time>2015-12-02T00:59:06Z</time>
      </trkpt>
      <trkpt lat="49.25505" lon="1.72213">
        <ele>109</ele>
        <time>2015-12-02T01:01:06Z</time>
      </trkpt>
      <trkpt lat="49.25518" lon="1.72182">
        <ele>107</ele>
        <time>2015-12-02T01:03:06Z</time>
      </trkpt>
      <trkpt lat="49.25526" lon="1.72165">
        <ele>106</ele>
        <time>2015-12-02T01:05:06Z</time>
      </trkpt>
      <trkpt lat="49.25534" lon="1.7215">
        <ele>105</ele>
        <time>2015-12-02T01:07:06Z</time>
      </trkpt>
      <trkpt lat="49.25543" lon="1.72139">
        <ele>104</ele>
        <time>2015-12-02T01:09:06Z</time>
      </trkpt>
      <trkpt lat="49.25552" lon="1.7213">
        <ele>103</ele>
        <time>2015-12-02T01:11:06Z</time>
      </trkpt>
      <trkpt lat="49.25561" lon="1.72124">
        <ele>103</ele>
        <time>2015-12-02T01:13:06Z</time>
      </trkpt>
      <trkpt lat="49.25572" lon="1.7212">
        <ele>103</ele>
        <time>2015-12-02T01:15:06Z</time>
      </trkpt>
      <trkpt lat="49.25592" lon="1.72113">
        <ele>102</ele>
        <time>2015-12-02T01:17:06Z</time>
      </trkpt>
      <trkpt lat="49.25601" lon="1.72112">
        <ele>102</ele>
        <time>2015-12-02T01:19:06Z</time>
      </trkpt>
      <trkpt lat="49.25615" lon="1.7211">
        <ele>101</ele>
        <time>2015-12-02T01:21:06Z</time>
      </trkpt>
      <trkpt lat="49.25626" lon="1.72108">
        <ele>101</ele>
        <time>2015-12-02T01:23:06Z</time>
      </trkpt>
      <trkpt lat="49.25637" lon="1.72108">
        <ele>100</ele>
        <time>2015-12-02T01:25:06Z</time>
      </trkpt>
      <trkpt lat="49.25659" lon="1.72109">
        <ele>99</ele>
        <time>2015-12-02T01:27:06Z</time>
      </trkpt>
      <trkpt lat="49.25691" lon="1.72116">
        <ele>98</ele>
        <time>2015-12-02T01:29:06Z</time>
      </trkpt>
      <trkpt lat="49.25709" lon="1.72119">
        <ele>96</ele>
        <time>2015-12-02T01:31:06Z</time>
      </trkpt>
      <trkpt lat="49.25718" lon="1.72122">
        <ele>96</ele>
        <time>2015-12-02T01:33:06Z</time>
      </trkpt>
      <trkpt lat="49.25731" lon="1.72124">
        <ele>95</ele>
        <time>2015-12-02T01:35:06Z</time>
      </trkpt>
      <trkpt lat="49.25743" lon="1.72127">
        <ele>94</ele>
        <time>2015-12-02T01:37:06Z</time>
      </trkpt>
      <trkpt lat="49.25752" lon="1.72129">
        <ele>93</ele>
        <time>2015-12-02T01:39:06Z</time>
      </trkpt>
      <trkpt lat="49.25763" lon="1.72133">
        <ele>93</ele>
        <time>2015-12-02T01:41:06Z</time>
      </trkpt>
      <trkpt lat="49.25772" lon="1.72141">
        <ele>92</ele>
        <time>2015-12-02T01:43:06Z</time>
      </trkpt>
      <trkpt lat="49.25781" lon="1.72149">
        <ele>91</ele>
        <time>2015-12-02T01:45:06Z</time>
      </trkpt>
      <trkpt lat="49.2579" lon="1.72161">
        <ele>91</ele>
        <time>2015-12-02T01:47:06Z</time>
      </trkpt>
      <trkpt lat="49.25796" lon="1.72172">
        <ele>91</ele>
        <time>2015-12-02T01:49:06Z</time>
      </trkpt>
      <trkpt lat="49.25802" lon="1.72185">
        <ele>91</ele>
        <time>2015-12-02T01:51:06Z</time>
      </trkpt>
      <trkpt lat="49.25815" lon="1.72211">
        <ele>92</ele>
        <time>2015-12-02T01:53:06Z</time>
      </trkpt>
      <trkpt lat="49.25821" lon="1.72224">
        <ele>92</ele>
        <time>2015-12-02T01:55:06Z</time>
      </trkpt>
      <trkpt lat="49.25828" lon="1.72237">
        <ele>93</ele>
        <time>2015-12-02T01:57:06Z</time>
      </trkpt>
      <trkpt lat="49.25841" lon="1.7226">
        <ele>93</ele>
        <time>2015-12-02T01:59:06Z</time>
      </trkpt>
      <trkpt lat="49.25847" lon="1.72272">
        <ele>93</ele>
        <time>2015-12-02T02:01:06Z</time>
      </trkpt>
      <trkpt lat="49.25858" lon="1.72298">
        <ele>93</ele>
        <time>2015-12-02T02:03:06Z</time>
      </trkpt>
      <trkpt lat="49.2587" lon="1.72322">
        <ele>93</ele>
        <time>2015-12-02T02:05:06Z</time>
      </trkpt>
      <trkpt lat="49.25877" lon="1.72335">
        <ele>93</ele>
        <time>2015-12-02T02:07:06Z</time>
      </trkpt>
      <trkpt lat="49.25883" lon="1.72348">
        <ele>93</ele>
        <time>2015-12-02T02:09:06Z</time>
      </trkpt>
      <trkpt lat="49.25904" lon="1.72388">
        <ele>93</ele>
        <time>2015-12-02T02:11:06Z</time>
      </trkpt>
      <trkpt lat="49.25927" lon="1.72435">
        <ele>93</ele>
        <time>2015-12-02T02:13:06Z</time>
      </trkpt>
      <trkpt lat="49.25933" lon="1.72448">
        <ele>93</ele>
        <time>2015-12-02T02:15:06Z</time>
      </trkpt>
      <trkpt lat="49.25943" lon="1.72478">
        <ele>93</ele>
        <time>2015-12-02T02:17:06Z</time>
      </trkpt>
      <trkpt lat="49.25947" lon="1.72494">
        <ele>93</ele>
        <time>2015-12-02T02:19:06Z</time>
      </trkpt>
      <trkpt lat="49.25949" lon="1.72508">
        <ele>93</ele>
        <time>2015-12-02T02:21:06Z</time>
      </trkpt>
      <trkpt lat="49.25952" lon="1.72522">
        <ele>93</ele>
        <time>2015-12-02T02:23:06Z</time>
      </trkpt>
      <trkpt lat="49.25956" lon="1.72539">
        <ele>93</ele>
        <time>2015-12-02T02:25:06Z</time>
      </trkpt>
      <trkpt lat="49.25958" lon="1.72553">
        <ele>93</ele>
        <time>2015-12-02T02:27:06Z</time>
      </trkpt>
      <trkpt lat="49.25968" lon="1.72602">
        <ele>92</ele>
        <time>2015-12-02T02:29:06Z</time>
      </trkpt>
      <trkpt lat="49.25972" lon="1.72617">
        <ele>92</ele>
        <time>2015-12-02T02:31:06Z</time>
      </trkpt>
      <trkpt lat="49.25983" lon="1.72657">
        <ele>91</ele>
        <time>2015-12-02T02:33:06Z</time>
      </trkpt>
      <trkpt lat="49.25987" lon="1.7267">
        <ele>91</ele>
        <time>2015-12-02T02:35:06Z</time>
      </trkpt>
      <trkpt lat="49.25996" lon="1.72697">
        <ele>90</ele>
        <time>2015-12-02T02:37:06Z</time>
      </trkpt>
      <trkpt lat="49.26" lon="1.72711">
        <ele>90</ele>
        <time>2015-12-02T02:39:06Z</time>
      </trkpt>
      <trkpt lat="49.26004" lon="1.72727">
        <ele>90</ele>
        <time>2015-12-02T02:41:06Z</time>
      </trkpt>
      <trkpt lat="49.26011" lon="1.72759">
        <ele>90</ele>
        <time>2015-12-02T02:43:06Z</time>
      </trkpt>
      <trkpt lat="49.26013" lon="1.72776">
        <ele>90</ele>
        <time>2015-12-02T02:45:06Z</time>
      </trkpt>
      <trkpt lat="49.26015" lon="1.72793">
        <ele>91</ele>
        <time>2015-12-02T02:47:06Z</time>
      </trkpt>
      <trkpt lat="49.26015" lon="1.72809">
        <ele>91</ele>
        <time>2015-12-02T02:49:06Z</time>
      </trkpt>
      <trkpt lat="49.26014" lon="1.72839">
        <ele>92</ele>
        <time>2015-12-02T02:51:06Z</time>
      </trkpt>
      <trkpt lat="49.26013" lon="1.72854">
        <ele>92</ele>
        <time>2015-12-02T02:53:06Z</time>
      </trkpt>
      <trkpt lat="49.26011" lon="1.72884">
        <ele>93</ele>
        <time>2015-12-02T02:55:06Z</time>
      </trkpt>
      <trkpt lat="49.26002" lon="1.7295">
        <ele>93</ele>
        <time>2015-12-02T02:57:06Z</time>
      </trkpt>
      <trkpt lat="49.25997" lon="1.72984">
        <ele>93</ele>
        <time>2015-12-02T02:59:06Z</time>
      </trkpt>
      <trkpt lat="49.2599" lon="1.73018">
        <ele>92</ele>
        <time>2015-12-02T03:01:06Z</time>
      </trkpt>
      <trkpt lat="49.25988" lon="1.73035">
        <ele>92</ele>
        <time>2015-12-02T03:03:06Z</time>
      </trkpt>
      <trkpt lat="49.25986" lon="1.73068">
        <ele>92</ele>
        <time>2015-12-02T03:05:06Z</time>
      </trkpt>
      <trkpt lat="49.25985" lon="1.731">
        <ele>91</ele>
        <time>2015-12-02T03:07:06Z</time>
      </trkpt>
      <trkpt lat="49.25983" lon="1.73136">
        <ele>92</ele>
        <time>2015-12-02T03:09:06Z</time>
      </trkpt>
      <trkpt lat="49.25982" lon="1.73149">
        <ele>92</ele>
        <time>2015-12-02T03:11:06Z</time>
      </trkpt>
      <trkpt lat="49.25979" lon="1.73163">
        <ele>92</ele>
        <time>2015-12-02T03:13:06Z</time>
      </trkpt>
      <trkpt lat="49.25976" lon="1.73176">
        <ele>92</ele>
        <time>2015-12-02T03:15:06Z</time>
      </trkpt>
      <trkpt lat="49.25969" lon="1.73209">
        <ele>91</ele>
        <time>2015-12-02T03:17:06Z</time>
      </trkpt>
      <trkpt lat="49.25965" lon="1.73238">
        <ele>91</ele>
        <time>2015-12-02T03:19:06Z</time>
      </trkpt>
      <trkpt lat="49.25962" lon="1.73255">
        <ele>91</ele>
        <time>2015-12-02T03:21:06Z</time>
      </trkpt>
      <trkpt lat="49.25959" lon="1.73273">
        <ele>90</ele>
        <time>2015-12-02T03:23:06Z</time>
      </trkpt>
      <trkpt lat="49.25952" lon="1.73305">
        <ele>90</ele>
        <time>2015-12-02T03:25:06Z</time>
      </trkpt>
      <trkpt lat="49.25949" lon="1.73323">
        <ele>90</ele>
        <time>2015-12-02T03:27:06Z</time>
      </trkpt>
      <trkpt lat="49.25945" lon="1.73359">
        <ele>89</ele>
        <time>2015-12-02T03:29:06Z</time>
      </trkpt>
      <trkpt lat="49.25943" lon="1.73377">
        <ele>89</ele>
        <time>2015-12-02T03:31:06Z</time>
      </trkpt>
      <trkpt lat="49.25941" lon="1.73395">
        <ele>90</ele>
        <time>2015-12-02T03:33:06Z</time>
      </trkpt>
      <trkpt lat="49.25935" lon="1.73463">
        <ele>90</ele>
        <time>2015-12-02T03:35:06Z</time>
      </trkpt>
      <trkpt lat="49.25933" lon="1.73479">
        <ele>90</ele>
        <time>2015-12-02T03:37:06Z</time>
      </trkpt>
      <trkpt lat="49.25931" lon="1.73494">
        <ele>90</ele>
        <time>2015-12-02T03:39:06Z</time>
      </trkpt>
      <trkpt lat="49.25928" lon="1.7351">
        <ele>91</ele>
        <time>2015-12-02T03:41:06Z</time>
      </trkpt>
      <trkpt lat="49.25926" lon="1.73527">
        <ele>91</ele>
        <time>2015-12-02T03:43:06Z</time>
      </trkpt>
      <trkpt lat="49.25925" lon="1.7354">
        <ele>91</ele>
        <time>2015-12-02T03:45:06Z</time>
      </trkpt>
      <trkpt lat="49.25924" lon="1.73556">
        <ele>90</ele>
        <time>2015-12-02T03:47:06Z</time>
      </trkpt>
      <trkpt lat="49.25919" lon="1.7357">
        <ele>91</ele>
        <time>2015-12-02T03:49:06Z</time>
      </trkpt>
      <trkpt lat="49.25914" lon="1.73585">
        <ele>91</ele>
        <time>2015-12-02T03:51:06Z</time>
      </trkpt>
      <trkpt lat="49.25912" lon="1.73599">
        <ele>91</ele>
        <time>2015-12-02T03:53:06Z</time>
      </trkpt>
      <trkpt lat="49.2591" lon="1.73615">
        <ele>91</ele>
        <time>2015-12-02T03:55:06Z</time>
      </trkpt>
      <trkpt lat="49.25906" lon="1.73646">
        <ele>92</ele>
        <time>2015-12-02T03:57:06Z</time>
      </trkpt>
      <trkpt lat="49.25904" lon="1.7366">
        <ele>92</ele>
        <time>2015-12-02T03:59:06Z</time>
      </trkpt>
      <trkpt lat="49.25903" lon="1.73674">
        <ele>92</ele>
        <time>2015-12-02T04:01:06Z</time>
      </trkpt>
      <trkpt lat="49.25902" lon="1.73688">
        <ele>92</ele>
        <time>2015-12-02T04:03:06Z</time>
      </trkpt>
      <trkpt lat="49.25898" lon="1.73718">
        <ele>93</ele>
        <time>2015-12-02T04:05:06Z</time>
      </trkpt>
      <trkpt lat="49.25891" lon="1.73765">
        <ele>94</ele>
        <time>2015-12-02T04:07:06Z</time>
      </trkpt>
      <trkpt lat="49.25888" lon="1.73797">
        <ele>94</ele>
        <time>2015-12-02T04:09:06Z</time>
      </trkpt>
      <trkpt lat="49.25886" lon="1.73815">
        <ele>95</ele>
        <time>2015-12-02T04:11:06Z</time>
      </trkpt>
      <trkpt lat="49.25885" lon="1.7383">
        <ele>95</ele>
        <time>2015-12-02T04:13:06Z</time>
      </trkpt>
      <trkpt lat="49.25882" lon="1.7386">
        <ele>94</ele>
        <time>2015-12-02T04:15:06Z</time>
      </trkpt>
      <trkpt lat="49.25881" lon="1.73876">
        <ele>94</ele>
        <time>2015-12-02T04:17:06Z</time>
      </trkpt>
      <trkpt lat="49.25878" lon="1.73891">
        <ele>94</ele>
        <time>2015-12-02T04:19:06Z</time>
      </trkpt>
      <trkpt lat="49.25875" lon="1.73906">
        <ele>94</ele>
        <time>2015-12-02T04:21:06Z</time>
      </trkpt>
      <trkpt lat="49.25869" lon="1.73941">
        <ele>93</ele>
        <time>2015-12-02T04:23:06Z</time>
      </trkpt>
      <trkpt lat="49.2586" lon="1.73947">
        <ele>94</ele>
        <time>2015-12-02T04:25:06Z</time>
      </trkpt>
      <trkpt lat="49.2585" lon="1.73947">
        <ele>94</ele>
        <time>2015-12-02T04:27:06Z</time>
      </trkpt>
      <trkpt lat="49.2584" lon="1.73948">
        <ele>95</ele>
        <time>2015-12-02T04:29:06Z</time>
      </trkpt>
      <trkpt lat="49.25831" lon="1.7395">
        <ele>96</ele>
        <time>2015-12-02T04:31:06Z</time>
      </trkpt>
      <trkpt lat="49.25814" lon="1.7396">
        <ele>97</ele>
        <time>2015-12-02T04:33:06Z</time>
      </trkpt>
      <trkpt lat="49.25813" lon="1.73977">
        <ele>96</ele>
        <time>2015-12-02T04:35:06Z</time>
      </trkpt>
      <trkpt lat="49.25821" lon="1.73986">
        <ele>95</ele>
        <time>2015-12-02T04:37:06Z</time>
      </trkpt>
      <trkpt lat="49.2583" lon="1.73998">
        <ele>94</ele>
        <time>2015-12-02T04:39:06Z</time>
      </trkpt>
      <trkpt lat="49.25837" lon="1.74007">
        <ele>94</ele>
        <time>2015-12-02T04:41:06Z</time>
      </trkpt>
      <trkpt lat="49.25846" lon="1.74008">
        <ele>93</ele>
        <time>2015-12-02T04:43:06Z</time>
      </trkpt>
      <trkpt lat="49.25847" lon="1.74005">
        <ele>93</ele>
        <time>2015-12-02T04:45:06Z</time>
      </trkpt>
    </trkseg>
  </trk>
</gpx>